[[{"header":{"parameterUnit":"m.s-1","parameterCategory":1,"la1":30.6,"la2":29.2853,"lo1":-89.7004,"lo2":-87.6739,"dy":0.0162,"dx":0.0183,"nx":112,"ny":82,"refTime":"2023-04-13T12:00:00:Z","depth":0,"parameterNumber":2,"parameterNumberName":"U-component_of_WINDS"},"data":[0.0,0.0,0.0,0.0,0.0,0.0,0.0,0.0,0.0,0.0,0.0,0.0,0.0,0.0,0.0,0.0,0.0,0.0,0.0,0.0,0.0,0.0,0.0,0.0,0.0,0.0,0.0,0.0,0.0,0.0,0.0,0.0,0.0,0.0,0.0,0.0,0.0,0.0,0.0,0.0,0.0,0.0,0.0,0.0,0.0,0.0,0.0,0.0,0.0,0.0,0.0,0.0,0.0,0.0,0.0,0.0,0.0,0.0,0.0,0.0,0.0,0.0,0.0,0.0,0.0,0.0,0.0,0.0,0.0,0.0,0.0,0.0,0.0,0.0,0.0,0.0,0.0,0.0,0.0,0.0,0.0,0.0,0.0,0.0,0.0,0.0,0.0,0.0,0.0,0.0,-4.0756,-4.1585,-4.6594,-4.9819,-4.9768,-5.1799,-5.0942,-4.5748,0.0,0.0,0.0,0.0,0.0,0.0,0.0,0.0,0.0,0.0,0.0,0.0,0.0,0.0,0.0,0.0,0.0,0.0,0.0,0.0,0.0,0.0,0.0,0.0,0.0,0.0,0.0,0.0,0.0,0.0,0.0,0.0,0.0,0.0,0.0,0.0,0.0,0.0,0.0,0.0,0.0,0.0,0.0,0.0,0.0,0.0,0.0,0.0,0.0,0.0,0.0,0.0,0.0,0.0,0.0,0.0,0.0,0.0,0.0,0.0,0.0,0.0,0.0,0.0,0.0,0.0,0.0,0.0,0.0,0.0,0.0,0.0,0.0,0.0,0.0,0.0,0.0,0.0,0.0,0.0,0.0,0.0,0.0,0.0,0.0,0.0,0.0,0.0,0.0,0.0,0.0,0.0,0.0,0.0,0.0,0.0,0.0,0.0,0.0,0.0,0.0,0.0,0.0,0.0,-4.0562,-4.4235,-4.6512,-4.8172,-4.9186,-4.8534,-4.7587,-4.613,0.0,0.0,0.0,0.0,0.0,0.0,0.0,0.0,0.0,0.0,0.0,0.0,0.0,0.0,0.0,0.0,0.0,0.0,0.0,0.0,0.0,0.0,0.0,0.0,0.0,0.0,0.0,0.0,0.0,0.0,0.0,0.0,0.0,0.0,0.0,0.0,0.0,0.0,0.0,0.0,0.0,0.0,0.0,0.0,0.0,0.0,0.0,0.0,0.0,0.0,0.0,0.0,0.0,0.0,0.0,0.0,0.0,0.0,0.0,0.0,0.0,0.0,0.0,0.0,0.0,0.0,0.0,0.0,0.0,0.0,0.0,0.0,0.0,0.0,0.0,0.0,0.0,0.0,0.0,0.0,0.0,0.0,0.0,0.0,0.0,0.0,0.0,0.0,0.0,0.0,0.0,0.0,0.0,0.0,0.0,0.0,0.0,0.0,0.0,0.0,0.0,0.0,0.0,-3.7433,-3.8903,-4.2338,-4.451,-4.5765,-4.5787,-4.6292,-4.5989,-4.4206,-4.5087,0.0,0.0,0.0,0.0,0.0,0.0,0.0,0.0,0.0,0.0,0.0,0.0,0.0,0.0,0.0,0.0,0.0,0.0,0.0,0.0,0.0,0.0,0.0,0.0,0.0,0.0,0.0,0.0,0.0,0.0,0.0,0.0,0.0,0.0,0.0,0.0,0.0,0.0,0.0,0.0,0.0,0.0,0.0,0.0,0.0,0.0,0.0,0.0,0.0,0.0,0.0,0.0,0.0,0.0,0.0,0.0,0.0,0.0,0.0,0.0,0.0,0.0,0.0,0.0,0.0,0.0,0.0,0.0,0.0,0.0,0.0,0.0,0.0,0.0,0.0,0.0,0.0,0.0,0.0,0.0,0.0,0.0,0.0,0.0,0.0,0.0,0.0,0.0,0.0,0.0,0.0,0.0,0.0,0.0,0.0,0.0,0.0,0.0,0.0,0.0,0.0,0.0,-3.6885,-3.7387,-4.0049,-4.2188,-4.32,-4.2645,-4.4201,-4.4312,-4.2392,-4.2831,0.0,0.0,0.0,0.0,0.0,0.0,0.0,0.0,0.0,0.0,0.0,0.0,0.0,0.0,0.0,0.0,0.0,0.0,0.0,0.0,0.0,0.0,0.0,0.0,0.0,0.0,0.0,0.0,0.0,0.0,0.0,0.0,0.0,0.0,0.0,0.0,0.0,0.0,0.0,0.0,0.0,0.0,0.0,0.0,0.0,0.0,0.0,0.0,0.0,0.0,0.0,0.0,0.0,0.0,0.0,0.0,0.0,0.0,0.0,0.0,0.0,0.0,0.0,0.0,0.0,0.0,0.0,0.0,0.0,0.0,0.0,0.0,0.0,0.0,0.0,0.0,0.0,0.0,0.0,0.0,0.0,0.0,0.0,0.0,0.0,0.0,0.0,0.0,0.0,0.0,0.0,0.0,0.0,0.0,0.0,0.0,0.0,0.0,0.0,0.0,0.0,0.0,-3.6433,-3.7262,-3.9521,-4.0379,-4.0958,-4.1404,-4.1544,-4.1879,-4.2261,-4.235,0.0,0.0,0.0,0.0,0.0,0.0,0.0,0.0,0.0,0.0,0.0,0.0,0.0,0.0,0.0,0.0,0.0,0.0,0.0,0.0,0.0,0.0,0.0,0.0,0.0,0.0,0.0,0.0,0.0,0.0,0.0,0.0,0.0,0.0,0.0,0.0,0.0,0.0,0.0,0.0,0.0,0.0,0.0,0.0,0.0,0.0,0.0,0.0,0.0,0.0,0.0,0.0,0.0,0.0,0.0,0.0,0.0,0.0,0.0,0.0,0.0,0.0,0.0,0.0,0.0,0.0,0.0,0.0,0.0,0.0,0.0,0.0,0.0,0.0,0.0,0.0,0.0,0.0,0.0,0.0,0.0,0.0,0.0,0.0,0.0,0.0,0.0,0.0,0.0,0.0,0.0,0.0,0.0,0.0,0.0,0.0,0.0,0.0,0.0,0.0,0.0,0.0,-3.6684,-3.7487,-3.9019,-3.9973,-4.0601,-4.0802,-4.0844,-4.0974,-4.1256,0.0,0.0,0.0,0.0,0.0,0.0,0.0,0.0,0.0,0.0,0.0,0.0,0.0,0.0,0.0,0.0,0.0,0.0,0.0,0.0,0.0,0.0,0.0,0.0,0.0,0.0,0.0,0.0,0.0,0.0,0.0,0.0,0.0,0.0,0.0,0.0,0.0,0.0,0.0,0.0,0.0,0.0,0.0,0.0,0.0,0.0,0.0,0.0,0.0,0.0,0.0,0.0,0.0,0.0,0.0,0.0,0.0,0.0,0.0,0.0,0.0,0.0,0.0,0.0,0.0,0.0,0.0,0.0,0.0,0.0,0.0,0.0,0.0,0.0,0.0,0.0,0.0,0.0,0.0,0.0,0.0,0.0,0.0,0.0,0.0,0.0,0.0,0.0,0.0,0.0,0.0,0.0,0.0,0.0,0.0,0.0,0.0,0.0,0.0,0.0,0.0,0.0,-3.5655,-3.6483,-3.7362,-3.8467,-3.9597,-4.0249,-4.0249,-4.0056,-4.0053,-4.0316,0.0,0.0,0.0,0.0,0.0,0.0,0.0,0.0,0.0,0.0,0.0,0.0,0.0,0.0,0.0,0.0,0.0,0.0,0.0,0.0,0.0,0.0,0.0,0.0,0.0,0.0,0.0,0.0,0.0,0.0,0.0,0.0,0.0,0.0,0.0,0.0,0.0,0.0,0.0,0.0,0.0,0.0,0.0,0.0,0.0,0.0,0.0,0.0,0.0,0.0,0.0,0.0,0.0,0.0,0.0,0.0,0.0,0.0,0.0,0.0,0.0,0.0,0.0,0.0,0.0,0.0,0.0,0.0,0.0,0.0,0.0,0.0,0.0,0.0,0.0,0.0,0.0,0.0,0.0,0.0,0.0,0.0,0.0,0.0,0.0,0.0,0.0,0.0,0.0,0.0,0.0,0.0,0.0,0.0,0.0,0.0,0.0,0.0,0.0,0.0,0.0,0.0,-3.4575,-3.568,-3.6784,-3.7889,-3.9019,-3.9697,-3.9697,-3.9168,-3.9055,0.0,0.0,0.0,0.0,0.0,0.0,0.0,0.0,0.0,0.0,0.0,0.0,0.0,0.0,0.0,0.0,0.0,0.0,0.0,0.0,0.0,0.0,0.0,0.0,0.0,0.0,0.0,0.0,0.0,0.0,0.0,0.0,0.0,0.0,0.0,0.0,0.0,0.0,0.0,0.0,0.0,0.0,0.0,0.0,0.0,0.0,0.0,0.0,0.0,0.0,0.0,0.0,0.0,0.0,0.0,0.0,0.0,0.0,0.0,0.0,0.0,0.0,0.0,0.0,0.0,0.0,0.0,0.0,0.0,0.0,0.0,0.0,0.0,0.0,0.0,0.0,0.0,0.0,0.0,0.0,0.0,0.0,0.0,0.0,0.0,0.0,0.0,0.0,0.0,0.0,0.0,0.0,0.0,0.0,0.0,0.0,0.0,0.0,0.0,0.0,0.0,0.0,0.0,-3.4575,-3.5353,-3.6358,-3.7839,-3.8668,-3.927,-3.9672,-3.9171,-3.8736,-3.8579,0.0,0.0,0.0,0.0,0.0,0.0,0.0,0.0,0.0,0.0,0.0,0.0,0.0,0.0,0.0,0.0,0.0,0.0,0.0,0.0,0.0,0.0,0.0,0.0,0.0,0.0,0.0,0.0,0.0,0.0,0.0,0.0,0.0,0.0,0.0,0.0,0.0,0.0,0.0,0.0,0.0,0.0,0.0,0.0,0.0,0.0,0.0,0.0,0.0,0.0,0.0,0.0,0.0,0.0,0.0,0.0,0.0,0.0,0.0,0.0,0.0,0.0,0.0,0.0,0.0,0.0,0.0,0.0,0.0,0.0,0.0,0.0,0.0,0.0,0.0,0.0,0.0,0.0,0.0,0.0,0.0,0.0,0.0,0.0,0.0,0.0,0.0,0.0,0.0,0.0,0.0,0.0,0.0,0.0,0.0,0.0,0.0,0.0,0.0,0.0,0.0,0.0,-3.4575,-3.5403,-3.6408,-3.7864,-3.8718,-3.9116,-3.8871,-3.8639,-3.7967,-3.6579,0.0,0.0,0.0,0.0,0.0,0.0,0.0,0.0,0.0,0.0,0.0,0.0,0.0,0.0,0.0,0.0,0.0,0.0,0.0,0.0,0.0,0.0,0.0,0.0,0.0,0.0,0.0,0.0,0.0,0.0,0.0,0.0,0.0,0.0,0.0,0.0,0.0,0.0,0.0,0.0,0.0,0.0,0.0,0.0,0.0,0.0,0.0,0.0,0.0,0.0,0.0,0.0,0.0,0.0,0.0,0.0,0.0,0.0,0.0,0.0,0.0,0.0,0.0,0.0,0.0,0.0,0.0,0.0,0.0,0.0,0.0,0.0,0.0,0.0,0.0,0.0,0.0,0.0,0.0,0.0,0.0,0.0,0.0,0.0,0.0,0.0,0.0,0.0,0.0,0.0,0.0,0.0,0.0,0.0,0.0,0.0,0.0,0.0,0.0,0.0,0.0,0.0,-3.4395,-3.5394,-3.6468,-3.7469,-3.8488,-3.8693,-3.7346,-3.7502,-3.6677,-3.4406,0.0,0.0,0.0,0.0,0.0,0.0,0.0,0.0,0.0,0.0,0.0,0.0,0.0,0.0,0.0,0.0,0.0,0.0,0.0,0.0,0.0,0.0,0.0,0.0,0.0,0.0,0.0,0.0,0.0,0.0,0.0,0.0,0.0,0.0,0.0,0.0,0.0,0.0,0.0,0.0,0.0,0.0,0.0,0.0,0.0,0.0,0.0,0.0,0.0,0.0,0.0,0.0,0.0,0.0,0.0,0.0,0.0,0.0,0.0,0.0,-2.2198,-2.2477,0.0,0.0,0.0,0.0,0.0,0.0,0.0,0.0,0.0,0.0,0.0,0.0,0.0,0.0,0.0,0.0,0.0,0.0,0.0,0.0,0.0,0.0,0.0,0.0,0.0,0.0,0.0,0.0,0.0,0.0,0.0,0.0,0.0,0.0,0.0,0.0,0.0,0.0,0.0,0.0,-3.3136,-3.338,-3.3838,-3.4567,-3.4958,-3.529,-3.5768,-3.5374,-3.5121,-3.4828,-3.4292,0.0,0.0,0.0,0.0,0.0,0.0,0.0,0.0,0.0,0.0,0.0,0.0,0.0,0.0,0.0,0.0,0.0,0.0,0.0,0.0,0.0,0.0,0.0,0.0,0.0,0.0,0.0,0.0,0.0,0.0,0.0,0.0,0.0,0.0,0.0,0.0,0.0,0.0,0.0,0.0,0.0,0.0,0.0,0.0,0.0,0.0,0.0,0.0,0.0,0.0,0.0,0.0,0.0,0.0,0.0,0.0,0.0,0.0,0.0,-2.2336,-2.2689,0.0,0.0,0.0,0.0,0.0,0.0,0.0,0.0,0.0,0.0,0.0,0.0,0.0,0.0,0.0,0.0,0.0,0.0,0.0,0.0,0.0,0.0,0.0,0.0,0.0,0.0,0.0,0.0,0.0,0.0,0.0,0.0,0.0,0.0,0.0,0.0,0.0,0.0,0.0,0.0,-3.1808,-3.2268,-3.2849,-3.3758,-3.4235,-3.4403,-3.4248,-3.4383,-3.4117,-3.3614,-3.3139,0.0,0.0,0.0,0.0,0.0,0.0,0.0,0.0,0.0,0.0,0.0,0.0,0.0,0.0,0.0,0.0,0.0,0.0,0.0,0.0,0.0,0.0,0.0,0.0,0.0,0.0,0.0,0.0,0.0,0.0,0.0,0.0,0.0,0.0,0.0,0.0,0.0,0.0,0.0,0.0,0.0,0.0,0.0,0.0,0.0,0.0,0.0,0.0,0.0,0.0,0.0,0.0,0.0,-2.2498,-2.3061,-2.2914,-2.2745,-2.25,-2.2335,-2.2928,-2.32,-2.3294,-2.2943,0.0,0.0,0.0,0.0,0.0,0.0,0.0,0.0,0.0,0.0,0.0,0.0,0.0,0.0,0.0,0.0,0.0,0.0,0.0,0.0,0.0,0.0,-3.1329,-3.3182,-3.267,-3.1696,-3.1236,0.0,0.0,0.0,0.0,0.0,0.0,0.0,0.0,0.0,0.0,0.0,-3.0363,-3.1285,-3.22,-3.2981,-3.3857,-3.3982,-3.2851,-3.3369,-3.3224,-3.1951,-3.1913,-3.1997,0.0,0.0,0.0,0.0,0.0,0.0,0.0,0.0,0.0,0.0,0.0,0.0,0.0,0.0,0.0,0.0,0.0,0.0,0.0,0.0,0.0,0.0,0.0,0.0,0.0,0.0,0.0,0.0,0.0,0.0,0.0,0.0,-0.7379,-0.836,0.0,0.0,0.0,0.0,0.0,0.0,0.0,0.0,0.0,0.0,0.0,0.0,0.0,-2.0594,-2.1465,-2.2137,-2.2602,-2.2646,-2.2786,-2.2777,-2.2545,-2.2794,-2.2809,-2.2781,-2.3107,0.0,-2.2736,-2.2512,0.0,0.0,0.0,0.0,0.0,0.0,0.0,0.0,0.0,0.0,0.0,0.0,0.0,0.0,0.0,0.0,0.0,0.0,0.0,0.0,0.0,0.0,-3.0892,-3.0804,-3.0948,-3.1092,-3.1348,-3.0388,-2.9219,-2.8301,-2.7578,-2.7035,0.0,0.0,0.0,0.0,0.0,0.0,-2.8721,-2.9589,-3.0348,-3.0229,-3.0545,-3.1003,-3.1189,-3.1285,-3.1378,-3.1458,-3.0642,-3.0799,-3.218,-3.1553,0.0,0.0,0.0,0.0,0.0,0.0,0.0,0.0,0.0,0.0,0.0,0.0,0.0,0.0,0.0,0.0,0.0,0.0,0.0,0.0,0.0,0.0,0.0,0.0,0.0,0.0,0.0,0.0,0.0,-0.2002,-0.6168,-1.3341,-1.2143,-1.1204,0.0,0.0,0.0,0.0,0.0,0.0,0.0,0.0,0.0,-2.147,-2.1446,-2.2213,-2.3764,-2.3314,-2.3223,-2.3403,-2.3228,-2.3233,-2.3434,-2.3554,-2.3701,-2.3875,-2.4008,-2.3795,-2.3509,-2.2493,-2.2566,-2.3196,0.0,0.0,0.0,0.0,-2.3844,-2.47,-2.6465,-2.7977,-2.9043,-2.9219,0.0,0.0,0.0,0.0,0.0,0.0,0.0,-2.9297,-2.9648,-3.0488,-3.1309,-3.1601,-3.1992,-3.2305,-3.2246,-3.1601,-3.0625,-2.9277,-2.8516,-2.7871,-2.7226,-2.7023,0.0,0.0,0.0,-2.7889,-2.7562,-2.8649,-2.9499,-2.9623,-3.0176,-3.0664,-3.0879,-3.0898,-3.1162,-3.1781,-3.0506,-3.0325,-3.1651,-3.1734,-3.1877,0.0,0.0,0.0,0.0,0.0,0.0,0.0,0.0,0.0,0.0,0.0,0.0,0.0,0.0,0.0,0.0,0.0,0.0,0.0,0.0,0.0,0.0,0.0,0.0,0.0,0.0,0.0,0.0,-0.31,-0.8227,-1.5829,-1.5058,-1.4081,0.0,0.0,0.0,0.0,0.0,0.0,-1.988,-2.0067,-2.1231,-2.3753,-2.3061,-2.3475,-2.5397,-2.4241,-2.3808,-2.4102,-2.3875,-2.4008,-2.4436,-2.4502,-2.4623,-2.4756,-2.4756,-2.4583,-2.4209,-2.2873,-2.2621,-2.2849,-2.2097,-2.1522,-2.1438,-2.2803,-2.3805,-2.4778,-2.7173,-2.8843,-2.9941,-3.0156,-2.9785,-2.9043,-2.7988,0.0,0.0,0.0,0.0,-2.9668,-3.0762,-3.1445,-3.2012,-3.2637,-3.3105,-3.334,-3.3027,-3.2539,-3.1719,-3.0195,-2.9473,-2.8809,-2.7969,-2.7207,0.0,-2.6426,-2.6582,-2.6836,-2.7148,-2.8301,-2.9258,-2.9687,-3.043,-3.0898,-3.0898,-3.0898,-3.1186,-3.181,-3.0505,-3.0138,-3.097,-3.1825,-3.1999,-3.1484,0.0,0.0,0.0,0.0,0.0,0.0,0.0,0.0,0.0,0.0,0.0,0.0,0.0,0.0,0.0,0.0,0.0,0.0,0.0,0.0,0.0,0.0,0.0,0.0,0.0,0.0,0.0,0.0,0.0,-1.4852,-1.5957,0.0,0.0,0.0,0.0,-1.9137,-1.98,-2.0508,-2.1403,-2.1964,-2.2686,-2.3762,-2.3941,-2.4382,-2.5133,-2.4703,-2.4716,-2.501,-2.4997,-2.501,-2.505,-2.5317,-2.5304,-2.5064,-2.5064,-2.489,-2.4543,-2.3634,-2.2899,-2.2418,-2.1827,-2.1235,-2.0765,-2.1173,-2.3346,-2.6177,-2.6487,-2.8492,-3.0957,-3.1777,-3.1172,-3.0039,-2.957,-2.916,0.0,0.0,-3.0137,-3.0898,-3.1367,-3.2109,-3.2734,-3.2793,-3.3105,-3.3418,-3.3398,-3.2734,-3.1894,-3.0996,-3.0137,-2.9277,-2.8418,0.0,-2.7324,-2.6504,-2.707,-2.7617,-2.7637,-2.875,-2.9707,-3.0117,-3.0605,-3.0898,-3.0898,-3.0898,-3.0879,-3.0976,-3.041,-3.025,-3.0285,-3.1529,-3.2409,-3.2891,-3.3591,0.0,0.0,0.0,0.0,0.0,0.0,0.0,0.0,0.0,0.0,0.0,0.0,0.0,0.0,0.0,0.0,0.0,0.0,0.0,0.0,0.0,0.0,0.0,0.0,0.0,0.0,0.0,0.0,-1.7253,-1.9034,0.0,-1.9645,-2.0052,-2.0602,-2.1323,-2.2071,-2.2899,-2.3768,-2.4195,-2.473,-2.5438,-2.5558,-2.5718,-2.5919,-2.5638,-2.5438,-2.5358,-2.5358,-2.4583,-2.3335,-2.484,-2.4777,-2.3569,-2.4618,-2.5024,-2.489,-2.4382,-2.3714,-2.2966,-2.2552,-2.2031,-2.1537,-2.163,-2.3672,-2.6414,-2.7024,-2.8816,-3.0898,-3.0898,-3.0391,-2.9766,-2.9609,-2.9648,-2.9766,-2.9922,-3.0605,-3.1387,-3.1816,-3.2363,-3.2871,-3.3144,-3.332,-3.3418,-3.3418,-3.2754,-3.207,-3.1777,-3.0781,-2.9785,-2.9219,-2.8535,-2.7871,-2.7305,-2.7461,-2.7754,-2.8027,-2.8945,-2.9726,-3.0156,-3.0605,-3.0898,-3.0898,-3.0898,-3.0762,-3.0469,-3.0293,-2.9941,-2.9394,-3.0722,-3.1294,-3.1016,-3.2018,-3.3146,0.0,0.0,0.0,0.0,0.0,0.0,0.0,0.0,0.0,0.0,0.0,0.0,0.0,0.0,0.0,0.0,0.0,0.0,0.0,0.0,0.0,0.0,0.0,0.0,0.0,-1.778,-2.1765,-1.8776,-2.1232,-2.2819,-2.2205,-2.2766,-2.326,-2.3447,-2.4195,-2.4957,-2.5638,-2.5945,-2.6239,-2.6533,-2.5883,-2.5353,-2.5251,-2.4327,-2.3622,-2.3438,-2.3438,-2.2662,-2.1402,-2.2912,-2.2792,-2.1503,-2.2674,-2.3491,-2.3843,-2.3753,-2.352,-2.346,-2.3247,-2.2739,-2.2151,-2.2245,-2.4275,-2.7068,-2.872,-3.0033,-3.1035,-3.0586,-3.0234,-2.9886,-2.9412,-2.9355,-2.9486,-2.9151,-2.9836,-3.0743,-3.1283,-3.1976,-3.2695,-3.3105,-3.3203,-3.3242,-3.3398,-3.2754,-3.2168,-3.2168,-3.123,-3.0254,-2.9668,-2.9219,-2.875,-2.8184,-2.8203,-2.8457,-2.8887,-2.9434,-2.9941,-3.0391,-3.0703,-3.0898,-3.0898,-3.1325,-3.1451,-3.0877,-3.083,-3.0631,-3.0186,-3.0958,-3.1411,-3.1399,-3.2011,-3.2421,-3.2792,0.0,0.0,0.0,0.0,0.0,0.0,0.0,0.0,0.0,0.0,0.0,0.0,0.0,0.0,0.0,0.0,0.0,0.0,0.0,0.0,0.0,0.0,0.0,-1.131,-1.5864,-1.9209,-1.8893,-2.2241,-2.4223,-2.3527,-2.473,-2.5571,-2.5418,-2.5949,-2.6387,-2.6666,-2.6958,-2.6985,-2.6693,-2.4527,-2.3399,-2.2992,-2.0644,-1.9563,-1.9553,-1.9563,-1.9404,-1.9404,-1.9796,-1.9664,-1.9113,-1.9303,-2.028,-2.1637,-2.1732,-2.2584,-2.3768,-2.3768,-2.322,-2.2458,-2.2875,-2.5026,-2.8196,-3.1124,-3.1855,-3.1445,-3.1035,-3.0898,-3.0528,-2.8902,-2.8426,-2.814,-2.6924,-2.7764,-2.9094,-2.9472,-3.087,-3.2266,-3.2552,-3.2773,-3.291,-3.332,-3.2754,-3.2168,-3.2168,-3.1484,-3.0625,-2.9746,-2.9922,-2.9902,-2.9062,-2.9297,0.0,-3.0137,-3.0195,-3.0371,-3.0859,-3.0898,-3.0898,-3.0918,-3.2207,-3.2734,-3.2121,-3.1793,-3.1977,-3.2635,-3.2352,-3.281,-3.4095,-3.3433,-3.2315,-3.0683,0.0,0.0,0.0,0.0,0.0,0.0,0.0,0.0,0.0,0.0,0.0,0.0,0.0,0.0,0.0,0.0,0.0,0.0,0.0,0.0,0.0,-0.989,-1.178,-1.146,-1.5081,-1.8217,-1.9308,-2.2055,-2.4427,-2.6029,-2.6547,-2.6118,-2.4316,-2.4632,-2.4175,-2.2554,-2.262,-2.2631,-2.2397,-2.1563,-2.1185,-2.0947,-2.0241,-1.9725,-1.9563,-1.9725,-1.8921,-1.7173,-1.8998,-1.9027,-1.745,-1.8649,-2.0323,-2.2142,-2.1836,-2.2558,-2.3768,-2.3768,-2.322,-2.2553,-2.3827,-2.6371,-2.9155,-3.0749,-3.1367,-3.1445,-3.1035,-3.002,-2.9039,-2.8545,-2.7572,-2.6608,-2.6222,-2.6683,-2.7289,-2.7407,-2.8889,-3.0396,-3.0507,-3.1656,-3.2832,-3.2949,-3.2539,-3.2168,-3.2168,-3.1484,-3.0703,-3.0117,-3.0117,-3.0019,-2.9473,-2.9492,-2.9726,-3.0137,-3.0195,-3.0488,-3.1269,-3.1074,-3.1016,-3.1328,-3.109,-3.0717,-2.9849,-2.9499,-2.9166,-2.9143,-2.9908,-3.1086,-3.2487,-3.24,-3.2435,0.0,0.0,0.0,0.0,0.0,0.0,0.0,0.0,0.0,0.0,0.0,0.0,0.0,0.0,0.0,0.0,0.0,0.0,0.0,0.0,0.0,0.0,-1.0664,-1.2208,-1.2244,-1.4752,-1.7098,-1.8305,-2.0815,-2.2898,-2.4389,-2.4675,-2.4233,-2.2876,-2.284,-2.2395,-2.1029,-2.1029,-2.0938,-2.0756,-1.9667,-1.8957,-1.8613,-1.7691,-1.7086,-1.6973,-1.7095,-1.6441,-1.5046,-1.645,-1.6408,-1.5132,-1.7066,-1.9063,-2.0791,-2.1268,-2.235,-2.3768,0.0,0.0,0.0,0.0,-2.6392,-2.8394,-2.9702,-3.0206,-3.0206,-2.9979,-2.8783,-2.7314,-2.6608,-2.5757,-2.4901,-2.4163,-2.5151,-2.6282,-2.6298,-2.8323,-3.0316,-3.0672,-3.1712,-3.2637,-3.2988,-3.2734,-3.2383,-3.2207,-3.1621,0.0,-3.0566,-3.0488,-3.0332,-2.9902,-3.0,-3.0215,-3.0449,-3.0488,-3.0684,-3.1191,-3.1035,-3.0996,-3.123,-3.1321,0.0,0.0,0.0,-2.9326,-2.9001,-3.0811,0.0,0.0,0.0,-3.2624,-3.2726,-3.3316,0.0,0.0,-3.2988,-3.3439,0.0,0.0,0.0,0.0,0.0,0.0,0.0,0.0,0.0,0.0,0.0,0.0,0.0,0.0,0.0,0.0,-1.2611,-1.3056,-1.3164,-1.4823,-1.6282,-1.6943,-1.8987,-2.0587,-2.0757,-2.111,-2.1048,-2.0875,-2.0875,-2.0702,-2.0356,-2.0337,0.0,0.0,0.0,-1.6709,-1.6196,-1.4405,-1.3417,-1.3403,-1.3403,-1.3403,-1.3403,-1.3383,-1.3234,-1.315,-1.4991,-1.68,-1.8723,-2.0369,-2.2142,-2.3661,-2.3594,-2.3359,-2.3215,-2.4466,-2.5498,-2.657,-2.8201,0.0,0.0,-2.817,-2.7073,-2.5497,-2.4054,-2.345,-2.3076,-2.1727,-2.3435,-2.5741,-2.5984,-2.8307,-3.0839,-3.1653,-3.2007,-3.2383,-3.3184,-3.3066,-3.2676,-3.2305,-3.1894,-3.1484,-3.1094,-3.0957,-3.0762,-3.0332,-3.0625,-3.0898,-3.0898,-3.0898,-3.0918,-3.0957,-3.0918,0.0,-3.0957,-3.2072,-3.2413,-3.1428,-3.1103,-3.0991,-3.1099,-3.3215,-3.403,-3.3269,-3.3158,-3.2887,-3.2397,-3.2423,-3.3012,-3.4017,-3.4388,-3.4632,0.0,0.0,0.0,0.0,0.0,0.0,0.0,0.0,0.0,0.0,0.0,0.0,0.0,0.0,0.0,-1.2889,-1.3078,-1.3329,-1.3607,-1.411,-1.5242,-1.7203,-1.7914,-1.9086,-2.0988,-2.1191,-2.0356,-1.8627,-1.8453,-1.7588,-1.569,-1.5563,-1.5458,-1.5399,-1.475,-1.4429,-1.4244,-1.3748,-1.3526,-1.3403,-1.3403,0.0,-1.3397,-1.3275,-1.3186,-1.3119,-1.338,-1.5327,-1.8411,-1.8679,-2.0416,-2.2993,-2.2512,-2.289,-2.3793,-2.3851,-2.4875,-2.6083,-2.6449,-2.652,-2.647,-2.647,-2.5375,-2.4054,-2.3698,-2.2716,0.0,-2.2841,-2.3574,-2.4425,-2.5619,-2.7452,-2.903,-2.9525,-3.1028,-3.2305,-3.2812,-3.2851,-3.2773,-3.2695,-3.2324,-3.2012,-3.1934,-3.1348,-3.0859,-3.0762,-3.084,-3.0898,-3.0898,-3.0898,-3.1016,-3.1367,-3.1094,-3.1035,-3.1367,-3.0954,-3.0532,-3.0036,-3.0298,-3.0927,-3.1962,-3.2173,-3.2936,-3.4335,-3.3465,-3.3113,-3.353,-3.399,-3.4322,-3.4491,-3.4225,-3.4319,0.0,0.0,0.0,0.0,0.0,0.0,0.0,0.0,0.0,0.0,0.0,-0.5434,-0.8382,0.0,-1.2477,-1.3158,-1.3281,-1.3499,-1.3787,-1.3948,-1.4548,-1.5745,-1.5988,-1.6553,-1.7597,-1.7772,-1.7247,-1.621,-1.6034,-1.5513,-1.4299,-1.4156,-1.4075,-1.4075,-1.3851,-1.3702,-1.3627,-1.3553,-1.3478,-1.3403,-1.3403,-1.3363,-1.3281,-1.3207,-1.3091,-1.3095,-1.4727,-1.6644,-1.838,-1.9815,-2.1155,-2.2178,-2.1884,-2.2189,-2.2794,-2.2638,-2.3583,-2.4778,-2.4778,-2.4778,-2.4778,-2.4778,-2.3683,-2.2341,-2.2341,-2.2341,-2.2591,-2.3325,-2.4778,-2.6244,-2.6953,-2.8571,-3.0062,-3.0596,-3.1661,-3.2598,-3.3008,-3.3105,-3.3047,-3.2832,-3.2617,-3.2422,-3.2207,-3.1816,-3.1523,-3.1523,-3.1348,-3.1211,-3.1211,-3.1016,-3.0976,-3.1191,-3.1016,-3.0976,-3.1191,-3.0586,-3.0098,-2.9902,-3.0533,-3.1315,-3.2252,-3.2704,-3.3553,-3.4665,-3.4115,-3.4105,-3.4666,-3.497,-3.5251,-3.557,-3.527,-3.5156,0.0,0.0,0.0,0.0,0.0,0.0,0.0,-0.0,-0.0,-0.0,-0.0,-0.074,-0.3204,-0.6806,-0.9851,-1.1507,-1.1933,-1.2307,-1.2437,-1.2704,-1.3299,-1.4189,-1.4326,-1.4299,-1.4299,-1.4299,-1.4299,-1.4299,-1.4299,-1.4285,-1.4258,-1.4136,-1.4048,-1.3987,-1.3783,-1.3641,-1.3587,-1.3464,-1.339,-1.3356,-1.3329,-1.3254,-1.3132,-1.3098,-1.2942,-1.2828,-1.6518,-1.807,-1.8142,-2.1269,-2.2191,-2.155,-2.1496,-2.147,-2.147,-2.147,-2.2187,-2.3076,-2.3076,-2.3076,-2.3076,-2.3076,-2.2215,-2.1109,-2.1475,-2.2591,-2.3698,-2.4301,-2.6365,-2.8426,-2.8783,-3.0149,-3.1523,-3.2051,-3.2422,-3.2812,-3.332,-3.3418,-3.332,-3.2988,-3.291,-3.2812,-3.248,-3.2422,-3.2363,-3.2187,-3.1875,-3.1621,-3.1523,-3.123,-3.0976,-3.0898,-3.0898,-3.0898,-3.0898,-3.0547,-3.0332,-3.0332,-3.1125,-3.1785,-3.2053,-3.3469,-3.4366,-3.4685,-3.4931,-3.5223,-3.5669,-3.5669,-3.5957,-3.6358,-3.6358,-3.6163,0.9882,0.5167,-0.0,-0.0,-0.0,-0.0,0.0,-0.0,-0.0,-0.0,-0.0,-0.0161,-0.0489,-0.1007,-0.2584,-0.6809,-0.76,-0.787,-0.7772,-0.7967,-0.9437,-1.3855,-1.4242,-1.4299,-1.4299,-1.4299,-1.4299,-1.4299,-1.4299,-1.4238,-1.4102,-1.4082,-1.3953,-1.3688,-1.377,-1.3688,-1.3431,-1.341,-1.3336,-1.32,-1.3071,-1.3003,-1.2983,-1.284,-1.2691,-1.2649,-1.5867,-1.7086,-1.7298,-2.0426,-2.1643,-2.1523,-2.1256,-2.1162,-2.1162,-2.1162,-2.1262,-2.1362,-2.1362,-2.1362,-2.1362,-2.1362,-2.1235,-2.1362,-2.2841,-2.345,-2.4178,-2.7091,-2.817,-2.8783,-3.0274,-3.0801,-3.1172,-3.1973,-3.2207,-3.2461,-3.3242,-3.3418,-3.3418,-3.3359,-3.3359,-3.334,-3.3281,-3.3281,-3.3027,-3.2285,-3.2129,-3.1953,-3.1562,-3.1484,-3.1309,-3.0937,-3.0898,-3.0898,-3.0898,-3.084,-3.082,-3.082,-3.1329,-3.165,-3.1653,-3.3435,-3.4412,-3.4462,-3.5635,-3.6251,-3.6301,-3.6301,-3.6351,-3.6358,-3.6358,-3.6332,1.0593,0.8481,0.5695,0.4313,0.4003,0.4117,0.3882,0.396,0.3411,0.0642,-0.0,-0.0,-0.0,-0.0,-0.0531,-0.2488,-0.2872,-0.2896,-0.2909,-0.5275,-0.8923,-1.3732,-1.1911,-1.1261,-1.3971,-1.4326,-1.4319,-1.4299,-1.4217,-1.4136,-1.4075,-1.3912,-1.3797,-1.3756,-1.3641,-1.3526,-1.3403,-1.3315,-1.3193,-1.3051,-1.2901,-1.2779,-1.2691,-1.2542,-1.2892,-1.3714,-1.5979,-1.7431,-1.8407,-2.0628,-2.0915,-1.9836,-1.9596,-1.9546,-1.9674,-2.0716,-2.1109,-2.1109,-2.1109,-2.1109,-2.1109,-2.1109,-2.1727,-2.2716,-2.345,-2.4901,-2.6729,-2.8051,-2.9157,-3.002,-3.0762,-3.1074,-3.1406,-3.2031,-3.1589,-3.152,-3.3029,-3.2619,-3.2218,-3.3165,-3.3418,-3.3418,-3.3418,-3.3418,-3.3301,-3.2949,-3.2695,-3.2461,-3.2285,-3.1816,-3.1367,-3.0937,-3.0898,-3.0898,-3.0898,-3.0898,-3.0898,-3.0898,-3.1102,-3.1849,-3.3161,-3.3937,-3.4933,-3.6056,-3.6533,-3.6672,-3.6358,-3.6358,-3.6358,-3.6358,-3.6358,-3.6358,1.0622,1.0611,1.0232,0.8489,0.8533,0.8975,0.8837,0.8916,0.8011,0.4681,0.2908,0.192,0.1944,0.1961,0.1613,0.0179,-0.0,-0.0,-0.0,-0.2915,-0.6374,-1.0011,-0.8453,-0.8546,-1.1908,-1.3591,-1.434,-1.4272,-1.4163,-1.4068,-1.398,-1.377,-1.3661,-1.3668,-1.3464,-1.3329,-1.3281,-1.3085,-1.2935,-1.2834,-1.2637,-1.2488,-1.2372,-1.2189,-1.2647,-1.3721,-1.5384,-1.6556,-1.7566,-1.935,-1.9205,-1.7731,-1.7731,-1.8116,-1.864,-1.9941,-2.0716,-2.1109,-2.1601,-2.1853,-2.1853,-2.2327,-2.3311,-2.4301,-2.4794,-2.6608,-2.8545,-2.892,-3.002,-3.0898,-3.0898,-3.1113,-3.1365,-3.1405,-3.1114,-3.1076,-3.2378,-3.2091,-3.1835,-3.3146,-3.3418,-3.3418,-3.3418,-3.3418,-3.3418,-3.3418,-3.3164,-3.293,-3.2812,-3.2148,-3.1543,-3.1113,-3.1055,-3.1016,-3.0898,-3.0898,-3.0898,-3.0898,-3.1225,-3.2087,-3.3791,-3.4499,-3.5465,-3.6843,-3.7076,-3.7045,-3.6584,-3.6433,-3.6358,-3.6358,-3.6358,-3.6358,1.0419,1.0871,1.1296,1.159,1.2748,1.3728,1.4031,1.3748,1.3606,1.3907,1.0219,0.6878,0.6951,0.6968,0.536,0.0716,-0.0,-0.0,-0.0,-0.0182,-0.0182,-0.036,-0.4453,-0.723,-0.7309,-1.1539,-1.434,-1.4373,-1.4359,-1.4222,-1.3749,-1.3722,-1.3573,-1.3083,-1.307,-1.3146,-1.2976,-1.2671,-1.2522,-1.2515,-1.2223,-1.2081,-1.2067,-1.1775,-1.1633,-1.1736,-1.3054,-1.362,-1.3854,-1.5361,-1.6053,-1.5913,-1.5913,-1.6947,-1.8512,-1.8512,-1.9674,-2.1362,-2.2952,-2.3574,-2.3807,-2.5375,-2.5863,-2.6227,-2.7811,-2.8307,-2.8783,-3.0392,-3.0898,-3.0898,-3.0898,-3.0898,-3.0741,-2.9788,-3.0888,-3.1892,-3.1011,-3.2218,-3.3292,-3.3418,-3.3418,-3.3418,-3.3418,-3.3418,-3.3418,-3.3418,-3.3418,-3.3262,-3.2851,-3.2422,-3.1973,-3.1543,-3.1504,-3.1328,-3.0918,-3.0898,-3.0898,-3.0898,-3.1778,-3.2385,-3.2475,-3.4713,-3.6009,-3.6063,-3.6801,-3.7161,-3.7161,-3.6634,-3.6358,-3.6358,-3.6358,-3.6358,1.198,1.1978,1.1728,1.2481,1.3102,1.3638,1.3823,1.4098,1.4082,1.4,1.2423,1.1086,1.0725,1.1238,1.1102,0.964,0.422,-0.0,-0.0,-0.0,-0.0,-0.0,-0.1423,-0.2463,-0.2435,-0.3816,-0.6073,-0.9239,-0.9525,-0.9427,-0.9291,-0.9216,-0.8948,-0.8802,-1.1344,-1.2688,-1.2691,-1.2474,-1.2311,-1.221,-1.2006,-1.1755,-1.1463,-1.147,-1.1362,-1.1165,-1.2751,-1.3403,-1.3541,-1.5163,-1.5265,-1.4232,-1.5394,-1.6302,-1.7076,-1.9357,-2.1267,-2.2827,-2.345,-2.4301,-2.5253,-2.5863,-2.6712,-2.7692,-2.8289,-2.9157,-3.0157,-3.0762,-3.0898,-3.0645,-2.953,-2.9361,-2.9331,-2.823,-2.8541,-2.9379,-3.0534,-3.1304,-3.1963,-3.3165,-3.3418,-3.3418,-3.3418,-3.3418,-3.3418,-3.3418,-3.3418,-3.3262,-3.2851,-3.2676,-3.2422,-3.1992,-3.1953,-3.1777,-3.1348,-3.1309,-3.1642,-3.2322,-3.2705,-3.372,-3.5671,-3.6579,-3.7308,-3.7938,-3.8191,-3.8115,-3.7739,-3.7186,-3.688,-3.6963,-3.6528,-3.6358,1.4476,1.4634,1.4635,1.5385,1.517,1.4799,1.5123,1.4625,1.4156,1.3747,1.3425,1.2979,1.2697,1.3098,1.376,1.4117,0.8982,0.3991,0.0533,-0.0,-0.0,-0.0,-0.0,-0.0,-0.0,-0.0,-0.1185,-0.4278,-0.4611,-0.4565,-0.4645,-0.4461,-0.4903,-0.6407,-0.8744,-1.0849,-1.2233,-1.2162,-1.1945,-1.1742,-1.164,-1.1443,-1.1165,-1.1212,-1.1131,-1.0948,-1.2082,-1.239,-1.2413,-1.3578,-1.3709,-1.3456,-1.4493,-1.6162,-1.7942,-2.0219,-2.2864,-2.5269,-2.5269,-2.5984,-2.6953,-2.7572,-2.8426,-2.9275,-2.9275,-3.002,-3.0762,-3.0157,-3.0135,-2.9718,-2.7966,-2.7835,-2.804,-2.7294,-2.7755,-2.8879,-3.0424,-3.1304,-3.2091,-3.3165,-3.3418,-3.3418,-3.3418,-3.3418,-3.3418,-3.3418,-3.3418,-3.332,-3.3047,-3.3008,-3.2851,-3.2441,-3.2383,-3.2207,-3.1797,-3.2058,-3.2621,-3.3215,-3.4155,-3.5485,-3.7477,-3.8007,-3.854,-3.917,-3.8969,-3.8693,-3.8316,-3.7563,-3.7182,-3.7146,-3.688,-3.6584,1.7731,1.8549,1.9193,2.014,1.8736,1.7298,1.7836,1.6056,1.434,1.3995,1.359,1.3219,1.2901,1.2991,1.3056,1.3418,1.3851,1.0801,0.1704,0.0343,0.0346,-0.0,-0.0,-0.0,-0.0,-0.0,-0.0,-0.0,-0.0,-0.0,-0.0,-0.0,-0.1788,-0.5645,-0.5773,-0.7706,-1.1775,-1.161,-1.145,-1.1151,-1.1158,-1.1158,-1.1138,-1.1009,-1.0948,-1.0928,-1.0785,-1.0717,-1.0717,-1.085,-1.1762,-1.3325,-1.3578,-1.6647,-2.0975,-2.1339,-2.4316,-2.8408,-2.8545,-2.8545,-2.8783,-3.0392,-3.0898,-3.0898,-3.0898,-3.0898,-3.0392,-2.8902,-2.8577,-2.8288,-2.6432,-2.6405,-2.6964,-2.6964,-2.8645,-3.032,-3.0699,-3.2218,-3.3418,-3.3418,-3.3418,-3.3418,-3.3418,-3.3418,-3.3418,-3.3418,-3.3418,-3.3418,-3.3418,-3.3418,-3.3262,-3.2871,-3.2832,-3.2656,-3.2226,-3.3146,-3.377,-3.3865,-3.6086,-3.7583,-3.7583,-3.8921,-3.9697,-3.9697,-3.917,-3.8919,-3.8919,-3.7814,-3.7262,-3.7287,-3.7265,-3.6989,1.9593,1.9887,1.9661,2.0281,1.9894,1.9433,1.9856,1.9166,1.7933,1.5999,1.4951,1.3823,1.1976,1.1901,1.1495,0.9764,1.0003,0.9314,0.5741,0.5273,0.4062,0.0352,-0.0,-0.0,-0.0,-0.0,-0.0,-0.0,-0.0,-0.0,-0.0,-0.0,-0.1737,-0.5432,-0.5569,-0.7387,-1.1358,-1.1308,-1.1185,-1.1002,-1.1111,-1.105,-1.0833,-1.0914,-1.0887,-1.0778,-1.0738,-1.0717,-1.085,-1.215,-1.2931,-1.3709,-1.7535,-1.9827,-2.1464,-2.5189,-2.7297,-2.8545,-2.9785,-3.0274,-3.0274,-3.0762,-3.0898,-3.0898,-3.0898,-3.002,-2.892,-2.8545,-2.7642,-2.6344,-2.4687,-2.5673,-2.671,-2.556,-2.8067,-3.0645,-3.0753,-3.2218,-3.3418,-3.3418,-3.3418,-3.3418,-3.3418,-3.3418,-3.3418,-3.3418,-3.3418,-3.3418,-3.3418,-3.3418,-3.3379,-3.3281,-3.3262,-3.3086,-3.2676,-3.3615,-3.4572,-3.5238,-3.6656,-3.8007,-3.9129,-3.9465,-3.9697,-3.9697,-3.9546,-3.9496,-3.9471,-3.8768,-3.8442,-3.8442,-3.804,-3.7741,2.2559,2.2769,2.2727,2.3272,2.2386,2.1394,2.1295,2.0149,1.8504,1.6715,1.5189,1.3686,1.2233,1.1523,1.0933,0.996,1.0583,1.1032,1.0304,1.0284,0.9131,0.6338,0.4222,0.2094,0.0171,0.1693,0.2001,0.0163,-0.0,-0.0,-0.0,-0.0,-0.1706,-0.5286,-0.5446,-0.7204,-1.1087,-1.1034,-1.0995,-1.0846,-1.0928,-1.088,-1.0724,-1.0812,-1.0799,-1.0717,-1.0717,-1.1108,-1.1894,-1.2931,-1.4605,-1.7022,-1.9827,-2.2338,-2.4561,-2.7417,-2.892,-2.9648,-3.0528,-3.0898,-3.0898,-3.0898,-3.0898,-3.0762,-3.002,-2.9157,-2.8051,-2.6729,-2.5733,-2.475,-2.317,-2.4389,-2.6166,-2.6037,-2.8381,-3.1029,-3.1835,-3.2765,-3.3418,-3.3418,-3.3418,-3.3418,-3.3418,-3.3418,-3.3418,-3.3418,-3.3418,-3.3418,-3.3418,-3.3594,-3.3633,-3.3437,-3.3594,-3.3535,-3.3105,-3.4669,-3.5903,-3.6563,-3.7996,-3.916,-4.0049,-3.9823,-3.9697,-3.9697,-3.9697,-3.9697,-3.9697,-3.9145,-3.8868,-3.8868,-3.8542,-3.8216,2.5344,2.5972,2.6453,2.6747,2.5059,2.3064,2.2567,2.0461,1.8158,1.7017,1.5091,1.3434,1.3126,1.1724,1.1015,1.1924,1.2904,1.3759,1.4052,1.414,1.4159,1.3901,1.018,0.6079,0.2213,0.4493,0.4908,0.1946,0.0652,-0.0,-0.0,-0.0,-0.1675,-0.5229,-0.5925,-0.7649,-1.0786,-1.0921,-1.0853,-1.0717,-1.0724,-1.0724,-1.0717,-1.0724,-1.0724,-1.0717,-1.0982,-1.1894,-1.3325,-1.4092,-1.6894,-2.1088,-2.1714,-2.4561,-2.8426,-2.8664,-2.953,-3.0528,-3.0528,-3.0392,-3.0274,-3.0528,-3.0528,-3.0274,-2.8545,-2.7931,-2.7211,-2.4425,-2.3658,-2.3247,-2.1923,-2.3493,-2.5751,-2.7344,-2.9456,-3.1561,-3.3019,-3.3418,-3.3437,-3.3496,-3.3457,-3.3418,-3.3418,-3.3418,-3.3418,-3.3418,-3.3418,-3.3418,-3.3418,-3.375,-3.3848,-3.3457,-3.375,-3.3828,-3.3457,-3.587,-3.7345,-3.7278,-3.9272,-4.0475,-4.04,-3.9948,-3.9697,-3.9697,-3.9697,-3.9697,-3.9697,-3.922,-3.8969,-3.8969,-3.8969,-3.8718,2.5705,2.6132,2.6453,2.6747,2.5911,2.4944,2.4605,2.3233,2.1346,1.8997,1.6668,1.4615,1.2798,1.1381,1.0724,1.1447,1.2038,1.2852,1.348,1.372,1.3675,1.3756,1.2892,1.1938,1.1214,0.788,0.7106,1.0035,0.3884,-0.0,-0.0,-0.0,-0.1594,-0.5273,-0.8193,-1.0048,-1.0765,-1.0758,-1.0744,-1.0717,-1.0738,-1.0738,-1.0717,-1.0738,-1.0738,-1.0717,-1.2281,-1.3062,-1.3578,-1.7919,-2.0206,-2.1464,-2.5554,-2.7674,-2.8545,-2.9903,-2.9785,-2.8783,-2.8783,-2.7931,-2.7073,-2.8426,-2.8783,-2.8545,-2.6953,-2.5497,-2.4301,-2.3822,-2.2634,-2.1611,-2.1612,-2.4223,-2.7,-2.7553,-3.0373,-3.3019,-3.3292,-3.3418,-3.3535,-3.3887,-3.3672,-3.3418,-3.3418,-3.3418,-3.3418,-3.3418,-3.3418,-3.3418,-3.3418,-3.3496,-3.3496,-3.3437,-3.3496,-3.3496,-3.3437,-3.587,-3.7188,-3.6786,-3.9056,-4.03,-3.9848,-3.9747,-3.9697,-3.9697,-3.9697,-3.9697,-3.9697,-3.9597,-3.9546,-3.9546,-3.9546,-3.9496,2.5798,2.6172,2.6386,2.6373,2.5705,2.4783,2.3714,2.2565,2.112,1.9203,1.7197,1.5247,1.3485,1.2117,1.1165,1.0871,1.1314,1.1938,1.261,1.2969,1.3166,1.3186,1.3254,1.3043,1.2949,1.0768,1.0114,1.1861,0.8523,0.458,0.03,-0.0,-0.0841,-0.2603,-0.7922,-1.0745,-1.0765,-1.0765,-1.0765,-1.0765,-1.0645,-1.0079,-0.8834,-1.0066,-1.1129,-1.215,-1.2931,-1.4362,-1.6172,-1.8721,-2.075,-2.2644,-2.5846,-2.7194,-2.7314,-2.9039,-2.8545,-2.7194,-2.7194,-2.6712,-2.5984,-2.5879,-2.647,-2.6832,-2.5269,-2.4301,-2.3577,-2.2835,-2.2071,-2.1889,-2.3074,-2.5442,-2.7838,-2.8983,-3.1598,-3.375,-3.375,-3.375,-3.3828,-3.4023,-3.3711,-3.3418,-3.3418,-3.3418,-3.3418,-3.3418,-3.3418,-3.3418,-3.3418,-3.3613,-3.3672,-3.3437,-3.3828,-3.3906,-3.3457,-3.6104,-3.7775,-3.7412,-3.9937,-4.1128,-4.0576,-4.0275,-3.9998,-3.9697,-3.9697,-3.9697,-3.9697,-3.9697,-3.9697,-3.9697,-3.9697,-3.9697,2.5705,2.6119,2.6319,2.6026,2.5251,2.4102,2.2378,2.1216,2.0107,1.8771,1.7179,1.5569,1.4148,1.2821,1.1518,1.0468,1.067,1.1206,1.187,1.2271,1.2501,1.2535,1.2644,1.263,1.24,1.2421,1.2086,1.143,1.0413,0.699,0.0288,-0.0,-0.0,-0.0,-0.5413,-0.8773,-0.957,-0.957,-0.957,-0.957,-1.0391,-0.9419,-0.7218,-1.0054,-1.2188,-1.3325,-1.4101,-1.5913,-1.8512,-1.9267,-2.1168,-2.3822,-2.5375,-2.5984,-2.6106,-2.7434,-2.6832,-2.5497,-2.5497,-2.5301,-2.4873,-2.3554,-2.4285,-2.5242,-2.3664,-2.3413,-2.3278,-2.2019,-2.2065,-2.2953,-2.4686,-2.6711,-2.8768,-3.1047,-3.2872,-3.4121,-3.4316,-3.4277,-3.4238,-3.4336,-3.4004,-3.3672,-3.3574,-3.3555,-3.3555,-3.3555,-3.3555,-3.3594,-3.3691,-3.4082,-3.418,-3.375,-3.4219,-3.4258,-3.3496,-3.6295,-3.8179,-3.8067,-4.0636,-4.1856,-4.1204,-4.0752,-4.0249,-3.9697,-3.9697,-3.9697,-3.9697,-3.9697,-3.9697,-3.9697,-3.9697,-3.9697,2.5398,2.5959,2.6319,2.6026,2.509,2.3848,2.2325,2.0895,1.9613,1.8677,1.7029,1.5365,1.4117,1.2593,1.124,1.0433,1.0324,1.0663,1.1538,1.1694,1.1769,1.1898,1.1925,1.1898,1.2102,1.19,1.1368,1.083,0.4756,0.0826,-0.0,-0.0,-0.0,-0.0,-0.0672,-0.2548,-0.59,-0.5904,-0.5904,-0.5904,-0.9163,-0.9419,-0.7218,-1.1776,-1.3638,-1.3456,-1.6689,-1.8244,-1.8756,-2.1797,-2.3325,-2.3822,-2.5375,-2.5984,-2.5984,-2.6227,-2.5253,-2.3822,-2.3822,-2.303,-2.2011,-2.1896,-2.2893,-2.3881,-2.2268,-2.197,-2.22,-2.1937,-2.3116,-2.4491,-2.4949,-2.7619,-3.0774,-3.3277,-3.3914,-3.4297,-3.5098,-3.4941,-3.4766,-3.5195,-3.4902,-3.4453,-3.4082,-3.4023,-3.4023,-3.4023,-3.4023,-3.416,-3.4531,-3.498,-3.5098,-3.4629,-3.4316,-3.3945,-3.3457,-3.6295,-3.8022,-3.7456,-4.0419,-4.1681,-4.0626,-4.0551,-4.0249,-3.9697,-3.9697,-3.9697,-3.9697,-3.9697,-3.9697,-3.9697,-3.9697,-3.9697,2.4462,2.5157,2.5531,2.5237,2.4142,2.2792,2.1496,2.0067,1.8811,1.809,1.7407,1.6435,1.486,1.3434,1.2018,1.0768,0.999,0.9693,1.0324,1.0561,1.0799,1.1124,1.1253,1.1348,1.155,1.158,1.1296,1.073,0.8071,0.4507,0.0265,-0.0,-0.0,-0.0,-0.0,-0.0672,-0.2148,-0.646,-0.8633,-0.8633,-0.7804,-0.8851,-1.1497,-1.3384,-1.5071,-1.656,-1.7859,-1.9152,-2.0195,-2.1587,-2.209,-2.2215,-2.3931,-2.3915,-2.3186,-2.4163,-2.3559,-2.209,-2.209,-2.1933,-2.155,-2.155,-2.2298,-2.2939,-2.2119,-2.2017,-2.2245,-2.2245,-2.29,-2.4109,-2.6339,-2.9508,-3.2524,-3.3797,-3.4258,-3.4629,-3.5254,-3.5254,-3.5176,-3.5351,-3.5019,-3.457,-3.4141,-3.4082,-3.4082,-3.4082,-3.4082,-3.4219,-3.4648,-3.5098,-3.5117,-3.4394,-3.4394,-3.4744,-3.5677,-3.7227,-3.8625,-3.9802,-4.1638,-4.2158,-4.1053,-4.1003,-4.0601,-3.9722,-3.9697,-3.9697,-3.9697,-3.9697,-3.9697,-3.9697,-3.9697,-3.9697,2.3166,2.4048,2.4623,2.4329,2.3193,2.1884,2.0788,1.9412,1.8183,1.7582,1.7382,1.6834,1.5172,1.4145,1.2931,1.1043,1.0062,0.9574,0.949,0.9761,1.0053,1.0412,1.0575,1.0571,1.0034,1.0725,1.0232,0.7772,0.9546,0.7647,0.0515,-0.1839,-0.1998,-0.0,-0.2007,-0.3216,-0.323,-0.7143,-1.0136,-1.2178,-0.9401,-1.0565,-1.526,-1.5352,-1.6613,-1.8512,-1.9024,-1.9941,-2.1109,-2.1109,-2.1109,-2.1235,-2.2341,-2.209,-2.1235,-2.2466,-2.209,-2.1122,-2.1203,-2.143,-2.1697,-2.1777,-2.2151,-2.2512,-2.2311,-2.2392,-2.2552,-2.2552,-2.3499,-2.5113,-2.8163,-3.1176,-3.3555,-3.4121,-3.4473,-3.4863,-3.5449,-3.5586,-3.5586,-3.5586,-3.5312,-3.4902,-3.4355,-3.4258,-3.4219,-3.4082,-3.418,-3.4414,-3.4844,-3.5293,-3.5332,-3.4707,-3.4805,-3.5551,-3.7023,-3.7724,-3.914,-4.1211,-4.2445,-4.2484,-4.1379,-4.1329,-4.0827,-3.9722,-3.9697,-3.9697,-3.9697,-3.9697,-3.9697,-3.9697,-3.9697,-3.9697,2.1496,2.2659,2.3714,2.342,2.2445,2.1323,2.0441,1.9092,1.7849,1.7275,1.6914,1.6299,1.4862,1.4768,1.4096,1.115,1.1025,1.0876,0.9592,0.9517,0.9666,0.9815,0.9978,0.9296,0.7022,0.8949,0.7478,0.0643,0.6713,0.7745,0.0769,-0.6054,-0.6766,-0.0264,-0.6867,-1.0558,-1.0564,-0.713,-0.8989,-1.582,-1.464,-1.526,-1.7521,-1.8173,-1.8512,-1.864,-2.0322,-2.1109,-2.1109,-2.1109,-2.1109,-2.1109,-2.1109,-2.1109,-2.1109,-2.1109,-2.1109,-2.1149,-2.1443,-2.1737,-2.2031,-2.2311,-2.2619,-2.2859,-2.2859,-2.2859,-2.2859,-2.2859,-2.5383,-2.8558,-3.0384,-3.2091,-3.3633,-3.4492,-3.4687,-3.4941,-3.582,-3.6016,-3.6016,-3.6016,-3.6016,-3.5723,-3.4844,-3.4687,-3.4551,-3.4141,-3.4434,-3.4863,-3.5332,-3.5742,-3.6016,-3.5996,-3.5625,-3.579,-3.6603,-3.767,-3.914,-4.1211,-4.2445,-4.2484,-4.1379,-4.1329,-4.0827,-3.9722,-3.9697,-3.9697,-3.9697,-3.9697,-3.9697,-3.9697,-3.9697,-3.9697,1.7387,1.8013,1.8476,1.858,1.7828,1.7167,1.7518,1.6735,1.6143,1.6711,1.6767,1.6234,1.4724,1.3746,1.2588,1.0647,0.9719,0.9133,0.8879,0.8897,0.9036,0.917,0.5802,0.3162,0.2287,0.0759,-0.101,-0.316,-0.1252,-0.0871,-0.3111,-0.949,-1.012,-0.362,-0.5754,-0.9377,-1.4259,-1.2429,-1.3252,-1.7043,-1.5874,-1.6343,-1.8173,-1.8396,-1.9152,-2.0322,-2.2076,-2.2215,-2.1235,-2.3544,-2.3792,-2.2952,-2.4039,-2.3792,-2.2841,-2.2841,-2.209,-2.1149,-2.1443,-2.175,-2.2031,-2.2325,-2.2619,-2.2859,-2.2859,-2.2859,-2.2859,-2.2859,-2.5517,-2.8295,-2.8821,-3.1395,-3.3945,-3.4199,-3.4726,-3.5156,-3.5117,-3.5586,-3.5937,-3.5644,-3.582,-3.5742,-3.4844,-3.4707,-3.4648,-3.4531,-3.4375,-3.4648,-3.5684,-3.5684,-3.5586,-3.5586,-3.6475,-3.7796,-3.9577,-3.9477,-4.0514,-4.3364,-4.3587,-4.3037,-4.1932,-4.153,-4.1003,-4.0275,-3.9898,-3.9697,-3.9697,-3.9697,-3.9697,-3.9697,-3.9697,-3.9697,1.3202,1.4799,1.5767,1.5792,1.5251,1.4814,1.5233,1.4685,1.4299,1.4968,1.4935,1.4616,1.3554,1.3138,1.2284,1.048,0.9697,0.9227,0.8604,0.7545,0.6454,0.5412,0.2205,-0.088,-0.3403,-0.4019,-0.5005,-0.6616,-0.7915,-0.8355,-0.7978,-1.2544,-1.317,-0.8854,-0.9385,-1.1857,-1.6347,-1.5284,-1.5864,-1.7973,-1.7249,-1.7731,-1.9419,-1.9419,-2.0436,-2.209,-2.3201,-2.3325,0.0,-2.513,-2.5375,-2.4655,-2.5619,-2.5024,-2.3574,-2.3574,-2.2591,-2.1162,-2.1577,-2.183,-2.2058,-2.2458,-2.2712,-2.2859,-2.2859,-2.2859,-2.2859,-2.2859,-2.5517,-2.8163,-2.8163,-3.0988,-3.3867,-3.4023,-3.4492,-3.4863,-3.4726,-3.5137,-3.5449,-3.5176,-3.5488,-3.5547,-3.4824,-3.4844,-3.4902,-3.4726,-3.4629,-3.4863,-3.5684,-3.5703,-3.5566,-3.541,-3.6901,-3.8594,-4.0494,-4.05,-4.1589,-4.4361,-4.3915,-4.3087,-4.2208,-4.1831,-4.1304,-4.0526,-4.0174,-3.9898,-3.9697,-3.9697,-3.9697,-3.9697,-3.9697,-3.9697,0.0,1.2566,1.4565,1.4585,1.4174,1.3708,1.3588,1.2936,0.0,1.2404,1.2102,1.1853,1.1863,1.2569,1.2353,0.9929,1.0103,0.9928,0.7954,0.5005,0.1922,-0.095,-0.1328,-0.3656,-0.9361,-0.6452,-0.5846,-0.9897,-1.2856,-1.4188,-1.3138,-1.509,-1.5883,-1.5145,-1.6596,-1.728,-1.7136,-1.6497,-1.6947,-1.864,-1.864,-1.9546,-2.1109,-2.1136,-2.2006,-2.3604,-2.3604,-2.4579,-2.6017,-2.6106,-2.6227,-2.6227,-2.6349,-2.5253,-2.3822,-2.3822,-2.2591,-2.1189,-2.1764,-2.1964,-2.2084,-2.2672,-2.2859,-2.2859,-2.2859,-2.2859,-2.2859,-2.2859,-2.5383,-2.8032,-2.8163,-3.0678,-3.3428,-3.3945,-3.4082,-3.4219,-3.4531,-3.4668,-3.4687,-3.4668,-3.5059,-3.5234,-3.4785,-3.5078,-3.5234,-3.4766,-3.5078,-3.5351,-3.5391,-3.5703,-3.5801,-3.543,-3.6881,-3.8466,-3.9668,-4.0801,-4.2393,-4.4402,-4.3639,-4.2836,-4.2233,-4.2183,-4.1656,-4.0601,-4.0501,-4.0199,-3.9697,-3.9697,-3.9697,-3.9697,-3.9697,-3.9697,0.9022,0.0,1.0062,1.0311,1.027,1.0105,0.0,0.9797,0.9935,1.1657,1.1943,1.1923,1.1895,0.9327,0.6901,0.5608,0.5039,0.397,0.1964,-0.306,-0.6809,-0.7293,-0.9188,-1.0723,-1.1454,-1.1897,-1.2612,-1.3444,-1.4172,-1.453,-1.4272,-1.5817,-1.6785,-1.6583,-1.8397,-1.9038,-1.8034,-1.7873,-1.8768,-2.0462,-2.0462,-2.0716,-2.1122,-2.1349,-2.2454,-2.4059,-2.3948,-2.4937,-2.6521,-2.7453,-2.7811,-2.7931,-2.9294,-2.7949,-2.5497,-2.5497,-2.3559,-2.1162,-2.1523,-2.1804,-2.2084,-2.2672,-2.2859,-2.2859,-2.2859,-2.2859,-2.2859,-2.2859,-2.4452,-2.6439,-2.79,-2.9961,-3.2134,-3.3231,-3.4082,-3.4394,-3.3848,-3.4238,-3.4609,-3.4277,-3.4863,-3.5234,-3.4785,-3.5078,-3.5234,-3.4766,-3.4785,-3.498,-3.5351,-3.5176,-3.5117,-3.5371,-3.7719,-3.9471,-4.024,-4.1661,-4.2903,-4.3926,-4.4141,-4.379,-4.2811,-4.2384,-4.1831,-4.1153,-4.0325,-3.9823,-3.9697,-3.9697,-3.9697,-3.9697,-3.9697,-3.9697,0.8925,0.7797,0.6695,0.6872,0.6936,0.6931,0.6828,0.6736,0.6947,0.8052,0.8301,0.8315,0.8244,0.7284,0.5275,0.1417,-0.0,-0.1032,-0.2206,-0.6389,-0.9495,-0.9673,-1.1558,-1.2751,-1.2318,-1.3873,-1.4832,-1.4619,-1.5311,-1.5666,-1.5666,-1.7208,-1.8102,-1.8227,-1.9376,-1.9797,-1.9198,-1.9474,-2.0195,-2.1109,-2.1109,-2.1176,-2.1323,-2.1483,-2.2552,-2.4052,-2.4052,-2.5328,-2.7505,-2.814,-2.8902,-2.953,-2.9648,-2.8188,-2.5863,-2.513,-2.3311,-2.1176,-2.1603,-2.2031,-2.2445,-2.2766,-2.2859,-2.2859,-2.2859,-2.2859,-2.2859,-2.2859,-2.4723,-2.6972,-2.79,-3.0301,-3.252,-3.3223,-3.3769,-3.3984,-3.3516,-3.3945,-3.4336,-3.4121,-3.4785,-3.5312,-3.5059,-3.5391,-3.5605,-3.5332,-3.5312,-3.5391,-3.5644,-3.5293,-3.5039,-3.5078,-3.7678,-3.9388,-3.9411,-4.1103,-4.2829,-4.4077,-4.3251,-4.2512,-4.1923,-4.0901,-4.0033,-3.9157,-3.8907,-3.8687,-3.8687,-3.9362,-3.9697,-3.9697,-3.9697,-3.9697,0.8906,0.6373,0.3811,0.379,0.3799,0.3796,0.3825,0.3761,0.3699,0.3428,0.3416,0.3218,0.2821,0.461,0.3833,-0.2902,-0.4763,-0.5293,-0.5486,-0.751,-0.9273,-0.9734,-1.1526,-1.2751,-1.2986,-1.4504,-1.5555,-1.5332,-1.6621,-1.7325,-1.7325,-1.8648,-1.9479,-1.9733,-1.9773,-1.9947,-2.0227,-2.0775,-2.1069,-2.1109,-2.1149,-2.1309,-2.155,-2.1603,-2.2493,-2.4127,-2.3828,-2.5373,-2.814,-2.7829,-2.8664,-3.002,-2.8545,-2.7073,-2.5497,-2.4054,-2.262,-2.1256,-2.1844,-2.2378,-2.2806,-2.2846,-2.2859,-2.2859,-2.2859,-2.3133,-2.3256,-2.3256,-2.5517,-2.79,-2.8427,-3.0789,-3.3019,-3.3292,-3.3418,-3.3418,-3.3418,-3.3769,-3.4082,-3.4082,-3.4785,-3.5391,-3.5391,-3.5742,-3.5996,-3.5937,-3.5976,-3.5996,-3.5937,-3.5547,-3.5137,-3.4746,-3.6981,-3.8354,-3.7998,-3.9794,-4.1803,-4.3604,-4.1561,-4.0316,-4.0245,-3.8866,-3.7686,-3.6767,-3.7067,-3.7334,-3.7477,-3.8792,-3.9465,-3.9697,-3.9697,-3.9697,0.8931,0.4919,0.0651,0.0738,0.0642,0.0651,0.0735,0.0727,0.0722,0.0607,0.0605,-0.0203,-0.268,-0.2893,-0.3966,-0.8126,-0.8699,-0.883,-0.9208,-0.9479,-0.968,-0.9646,-1.276,-1.4587,-1.4232,-1.7126,-1.8944,-1.8674,-1.8881,-1.901,-1.901,-1.9243,-1.9386,-1.9439,-1.9666,-1.9947,-2.0227,-2.0575,-2.0869,-2.1109,-2.1363,-2.151,-2.1563,-2.1804,-2.2944,-2.4441,-2.2664,-2.3896,-2.6677,-2.5028,-2.5269,-2.6712,-2.647,-2.5391,-2.3931,-2.3698,-2.2763,-2.1563,-2.2151,-2.2418,-2.2525,-2.2779,-2.2859,-2.2859,-2.2859,-2.3924,-2.5113,-2.5113,-2.5517,-2.6573,-2.9587,-3.0771,-3.1561,-3.3019,-3.3418,-3.3418,-3.3418,-3.3769,-3.4082,-3.4082,-3.4785,-3.5391,-3.5391,-3.5742,-3.5898,-3.5547,-3.5801,-3.5898,-3.5527,-3.5098,-3.4785,-3.4707,-3.5704,-3.6406,-3.6869,-3.8431,-3.947,-3.9802,-3.9522,-3.901,-3.8602,-3.7938,-3.7211,-3.6745,-3.6297,-3.6576,-3.7477,-3.769,-3.8477,-3.9697,-3.9697,-3.9697,0.8909,0.453,-0.0,-0.0,-0.2615,-0.527,-0.53,-0.3784,-0.233,-0.2184,-0.2159,-0.2664,-0.4243,-0.4628,-0.5854,-0.9298,-0.9701,-0.9552,-0.9731,-0.9737,-0.9713,-0.972,-1.2882,-1.5054,-1.4983,-1.7998,-1.9907,-1.9626,-1.9599,-1.9599,-1.9599,-1.9599,-1.9679,-1.9826,-1.996,-2.0174,-2.0468,-2.0615,-2.0815,-2.1109,-2.1416,-2.163,-2.1804,-2.2084,-2.2522,-2.3131,-2.2223,-2.2993,-2.489,-2.4007,-2.4532,-2.5863,-2.5024,-2.4285,-2.3732,-2.3035,-2.2401,-2.2058,-2.2325,-2.2525,-2.2686,-2.2819,-2.2859,-2.2859,-2.2859,-2.406,-2.5651,-2.6706,-2.7619,-2.8804,-3.0384,-3.1433,-3.2365,-3.3165,-3.3418,-3.3418,-3.3418,-3.3945,-3.4414,-3.4414,-3.5137,-3.5723,-3.5723,-3.5898,-3.5957,-3.5762,-3.5898,-3.5957,-3.5762,-3.5351,-3.5078,-3.5078,-3.5779,-3.6289,-3.6519,-3.701,-3.7443,-3.7962,-3.7508,-3.6881,-3.6081,-3.5289,-3.481,-3.4601,-3.4944,-3.5255,-3.5424,-3.7099,-3.8059,-3.8582,-3.9362,-3.9697,0.5279,0.1557,-0.1677,-0.1062,-0.4272,-0.7933,-0.9467,-0.7727,-0.5634,-0.5414,-0.5124,-0.5059,-0.5374,-0.5769,-0.6822,-0.9367,-0.9734,-0.9734,-0.9652,-0.9741,-0.9842,-0.9917,-1.2996,-1.5195,-1.5479,-1.836,-2.0134,-1.992,-1.9907,-1.9907,-1.9907,-1.9907,-2.0,-2.0227,-2.0227,-2.0374,-2.0668,-2.0681,-2.0815,-2.1109,-2.1416,-2.171,-2.1991,-2.2218,-2.2231,-2.2084,-2.2017,-2.2448,-2.3068,-2.3068,-2.3803,-2.4888,-2.3554,-2.3257,-2.3449,-2.2408,-2.2124,-2.2325,-2.2392,-2.2565,-2.2766,-2.2846,-2.2859,-2.2996,-2.3393,-2.4723,-2.6573,-2.8295,-2.9995,-3.1433,-3.1433,-3.2365,-3.3418,-3.3418,-3.3418,-3.3457,-3.3555,-3.416,-3.4726,-3.4844,-3.5488,-3.6016,-3.6016,-3.6016,-3.6016,-3.6016,-3.6016,-3.6016,-3.6016,-3.5664,-3.5391,-3.5391,-3.582,-3.614,-3.6243,-3.581,-3.5913,-3.6732,-3.6036,-3.5163,-3.4191,-3.334,-3.2891,-3.2793,-3.3639,-3.3927,-3.3917,-3.6499,-3.7707,-3.7643,-3.9223,-3.9823,-0.5473,-0.7084,-0.6834,-0.4355,-0.2211,-0.2343,-0.8458,-0.9618,-0.9384,-0.9356,-0.8507,-0.7832,-0.8152,-0.8935,-0.9513,-0.9781,-1.0046,-1.0276,-1.0392,-1.0419,-1.0385,-1.0263,-1.34,-1.5468,-1.5286,-1.8251,-2.0227,-2.0201,-2.0201,-2.0201,-2.0201,-2.0201,-2.0214,-2.0227,-2.0227,-2.0374,-2.0668,-2.0681,-2.0815,-2.1109,-2.1416,-2.171,-2.1991,-2.2004,-2.2151,-2.2378,-2.2098,-2.1934,-2.1767,-2.1767,-2.1767,-2.1896,-2.1767,-2.1957,-2.2082,-2.1977,-2.2004,-2.2058,-2.2325,-2.2432,-2.2498,-2.2779,-2.2859,-2.327,-2.4858,-2.6573,-2.8427,-3.0125,-3.1835,-3.3165,-3.3165,-3.3292,-3.3418,-3.3418,-3.3418,-3.3535,-3.3945,-3.4375,-3.4824,-3.5254,-3.5703,-3.6016,-3.6016,-3.6016,-3.6016,-3.6016,-3.6016,-3.6016,-3.6016,-3.5664,-3.5391,-3.5391,-3.5073,-3.4956,-3.5387,-3.4995,-3.5112,-3.5995,-3.5211,-3.4564,-3.4082,-3.3633,-3.3184,-3.2793,-3.2878,-3.3356,-3.44,-3.5989,-3.7221,-3.8058,-3.966,-4.0174,-0.7409,-0.8166,-0.8014,-0.6801,-0.5775,-0.5725,-0.8641,-0.9353,-0.9567,-0.9546,-0.9306,-0.9,-0.9017,-0.9517,-1.0158,-1.1386,-1.0966,-1.0812,-1.2017,-1.1214,-1.0967,-1.1954,-1.4254,-1.6146,-1.7207,-1.9362,-2.0708,-2.0521,-2.0508,-2.0508,-2.0508,-2.0508,-2.0588,-2.0775,-2.0775,-2.0828,-2.0949,-2.0949,-2.1002,-2.1122,-2.159,-2.1884,-2.1991,-2.2365,-2.2485,-2.2405,-2.2298,-2.2084,-2.1817,-2.1817,-2.1817,-2.1844,-2.2017,-2.2164,-2.2258,-2.2258,-2.2365,-2.2512,-2.2445,-2.2539,-2.2712,-2.2819,-2.2859,-2.327,-2.4979,-2.6706,-2.8558,-3.0254,-3.2091,-3.3418,-3.3418,-3.3418,-3.3418,-3.3418,-3.3633,-3.3867,-3.4043,-3.4629,-3.5176,-3.5351,-3.5742,-3.6016,-3.6016,-3.6016,-3.6113,-3.6387,-3.6426,-3.6426,-3.6426,-3.6289,-3.6074,-3.5801,-3.5391,-3.5078,-3.4961,-3.5059,-3.5273,-3.5605,-3.4805,-3.4355,-3.4453,-3.3789,-3.334,-3.3184,-3.3184,-3.3218,-3.3376,-3.4882,-3.6136,-3.7244,-3.8513,-3.948,-0.7805,-0.8174,-0.8282,-0.8105,-0.8099,-0.8342,-0.88,-0.9142,-0.9483,-0.9634,-0.9696,-0.9591,-0.9544,-0.9693,-1.0229,-1.161,-1.1097,-1.0946,-1.2232,-1.1818,-1.198,-1.3018,-1.5306,-1.7205,-1.8372,-2.0068,-2.1029,-2.0828,-2.0815,-2.0815,-2.0815,-2.0815,-2.0909,-2.1096,-2.1109,-2.1109,-2.1109,-2.1109,-2.1109,-2.1122,-2.1617,-2.1897,-2.2004,-2.2498,-2.2659,-2.2565,-2.2565,-2.2392,-2.2124,-2.2124,-2.2124,-2.2151,-2.2445,-2.2565,-2.2552,-2.2458,-2.2485,-2.2552,-2.2352,-2.2418,-2.2605,-2.2699,-2.2779,-2.327,-2.4979,-2.6706,-2.8558,-3.0254,-3.2091,-3.3418,-3.3418,-3.3418,-3.3457,-3.3594,-3.3848,-3.4141,-3.4434,-3.4961,-3.543,-3.5566,-3.582,-3.6016,-3.6016,-3.6016,-3.6172,-3.6601,-3.668,-3.668,-3.668,-3.6777,-3.6699,-3.6269,-3.5976,-3.5605,-3.5156,-3.541,-3.5586,-3.5586,-3.4902,-3.4551,-3.4687,-3.3867,-3.3418,-3.3418,-3.3418,-3.3281,-3.2988,-3.4534,-3.5832,-3.6969,-3.8101,-3.9358,-0.726,-0.7972,-0.8006,-0.8241,-0.8377,-0.8541,-0.88,-0.9185,-0.9648,-1.0029,-0.9814,-0.9666,-0.9829,-0.9842,-0.9876,-1.0025,-1.0426,-1.0717,-1.0717,-1.215,-1.3325,-1.3325,-1.6431,-1.8512,-1.85,-2.0068,-2.1109,-2.1109,-2.1109,-2.1109,-2.1109,-2.1109,-2.1109,-2.1109,-2.1109,-2.1109,-2.1109,-2.1109,-2.1109,-2.1109,-2.1416,-2.171,-2.1991,-2.2285,-2.2579,-2.2859,-2.2859,-2.2699,-2.2418,-2.2418,-2.2418,-2.2458,-2.2752,-2.2859,-2.2819,-2.2525,-2.2231,-2.1991,-2.1977,-2.1977,-2.2031,-2.2325,-2.2619,-2.3256,-2.4979,-2.6839,-2.8558,-3.0384,-3.2091,-3.3418,-3.3437,-3.3437,-3.3535,-3.3965,-3.4082,-3.4316,-3.5195,-3.5391,-3.5527,-3.5937,-3.6016,-3.6016,-3.6016,-3.6016,-3.6172,-3.6601,-3.668,-3.668,-3.668,-3.7051,-3.7148,-3.6719,-3.668,-3.6504,-3.6055,-3.6035,-3.6016,-3.6016,-3.5625,-3.5176,-3.4726,-3.3887,-3.3418,-3.3418,-3.3418,-3.3418,-3.3418,-3.4964,-3.6282,-3.7367,-3.901,-4.0061,-0.7772,-0.814,-0.8248,-0.8384,-0.8408,-0.8504,-0.8981,-0.9406,-0.9666,-1.0304,-1.0161,-0.9964,-1.0127,-1.0148,-1.0531,-1.1815,-1.117,-1.0981,-1.2397,-1.2931,-1.3709,-1.5005,-1.7076,-1.9024,-2.0195,-2.0843,-2.1109,-2.1109,-2.1109,-2.1109,-2.1109,-2.1109,-2.1109,-2.1109,-2.1109,-2.1109,-2.1109,-2.1109,-2.1109,-2.1109,-2.1416,-2.171,-2.1991,-2.2285,-2.2579,-2.2859,-2.2859,-2.2806,-2.2726,-2.2726,-2.2726,-2.2739,-2.2832,-2.2859,-2.2806,-2.2298,-2.2191,-2.2231,-2.1817,-2.1817,-2.2031,-2.2325,-2.2472,-2.3119,-2.6377,-2.7768,-2.8821,-3.1835,-3.3019,-3.3496,-3.3809,-3.3887,-3.3906,-3.4043,-3.4551,-3.5078,-3.5332,-3.5625,-3.5879,-3.5996,-3.6016,-3.6016,-3.6016,-3.6016,-3.6269,-3.6992,-3.7109,-3.7226,-3.7519,-3.7402,-3.7246,-3.7129,-3.7109,-3.6934,-3.6523,-3.6484,-3.6348,-3.6035,-3.5625,-3.5176,-3.4726,-3.418,-3.373,-3.3437,-3.3418,-3.3418,-3.3418,-3.3902,-3.4902,-3.6324,-3.6362,-3.7675,-0.7979,-0.8079,-0.824,-0.8295,-0.8472,-0.8468,-0.8303,-0.9063,-0.9968,-1.0507,-1.0351,-1.0188,-1.0337,-1.0317,-1.0672,-1.1741,-1.1128,-1.1264,-1.3046,-1.384,-1.5005,-1.6689,-1.8512,-1.9941,-2.0982,-2.1109,-2.1109,-2.1109,-2.1109,-2.1109,-2.1109,-2.1109,-2.1109,-2.1109,-2.1109,-2.1109,-2.1109,-2.1109,-2.1109,-2.1109,-2.1296,-2.1523,-2.1817,-2.2111,-2.2405,-2.2699,-2.2806,-2.2726,-2.2539,-2.2766,-2.2792,-2.2699,-2.2819,-2.2792,-2.2645,-2.2285,-2.2124,-2.2031,-2.167,-2.167,-2.1857,-2.2151,-2.2846,-2.3918,-2.6346,-2.8163,-2.9639,-3.1912,-3.3142,-3.3789,-3.4219,-3.4453,-3.459,-3.459,-3.5,-3.543,-3.5605,-3.584,-3.6016,-3.6016,-3.6016,-3.6016,-3.6016,-3.6016,-3.6309,-3.7168,-3.7441,-3.7695,-3.8125,-3.7812,-3.7539,-3.7539,-3.7402,-3.7129,-3.6699,-3.6504,-3.6289,-3.6035,-3.5781,-3.5449,-3.5,-3.4551,-3.4121,-3.3691,-3.3691,-3.3594,-3.3418,-3.3418,-3.4258,-3.5785,-3.5411,-3.6622,-0.7899,-0.7801,-0.7583,-0.768,-0.8359,-0.8708,-0.739,-0.8739,-1.0195,-1.0571,-1.0514,-1.0358,-1.0487,-1.0405,-1.0365,-1.0493,-1.0761,-1.1505,-1.3062,-1.4874,-1.6689,-1.8244,-2.0068,-2.1109,-2.1109,-2.1109,-2.1109,-2.1109,-2.1109,-2.1109,-2.1109,-2.1109,-2.1109,-2.1109,-2.1109,-2.1109,-2.1109,-2.1109,-2.1109,-2.1109,-2.1109,-2.1256,-2.1523,-2.1817,-2.2111,-2.2392,-2.2659,-2.2485,-2.2031,-2.2565,-2.2619,-2.2405,-2.2672,-2.2619,-2.2378,-2.2352,-2.2004,-2.155,-2.1523,-2.151,-2.1692,-2.2146,-2.3459,-2.5186,-2.5798,-2.8279,-3.0861,-3.1538,-3.286,-3.418,-3.4648,-3.5078,-3.541,-3.5449,-3.5449,-3.5547,-3.5937,-3.6016,-3.6016,-3.6016,-3.6016,-3.6016,-3.6016,-3.6016,-3.6309,-3.7168,-3.7695,-3.8105,-3.8476,-3.8164,-3.791,-3.7871,-3.7519,-3.7129,-3.6699,-3.6309,-3.6055,-3.6016,-3.6016,-3.5859,-3.5469,-3.4961,-3.4492,-3.4082,-3.4023,-3.3828,-3.3418,-3.3418,-3.4133,-3.556,-3.556,-3.6182,-0.74,-0.6469,-0.4824,-0.4914,-0.724,-0.9632,-0.9858,-1.0193,-1.0578,-1.0575,-1.0588,-1.0636,-1.0663,-1.0643,-1.0636,-1.0663,-1.1871,-1.2931,-1.3193,-1.5913,-1.8116,-1.8512,-2.0068,-2.1109,-2.1109,-2.1109,-2.1109,-2.1109,-2.1109,-2.1109,-2.1109,-2.1109,-2.1109,-2.1109,-2.1109,-2.1109,-2.1109,-2.1109,-2.1109,-2.1109,-2.1109,-2.1149,-2.1216,-2.151,-2.1804,-2.2084,-2.2151,-2.2098,-2.1991,-2.2124,-2.2138,-2.2084,-2.2151,-2.2138,-2.2044,-2.1817,-2.1657,-2.1523,-2.1283,-2.1203,-2.1538,-2.3465,-2.4331,-2.539,-2.8601,-3.0254,-3.112,-3.3005,-3.3805,-3.4258,-3.5039,-3.5312,-3.5488,-3.5801,-3.5879,-3.5918,-3.5996,-3.6016,-3.6016,-3.6016,-3.6016,-3.6016,-3.6016,-3.6016,-3.6309,-3.7168,-3.7949,-3.834,-3.8086,-3.7988,-3.7793,-3.7461,-3.7344,-3.7129,-3.6699,-3.6582,-3.6387,-3.6035,-3.6016,-3.5976,-3.5879,-3.5117,-3.4492,-3.4082,-3.373,-3.3516,-3.3418,-3.3418,-3.3544,-3.3902,-3.3902,-3.4675,-0.6941,-0.7001,-0.5284,-0.2741,-0.6252,-0.9921,-0.8483,-0.943,-1.0611,-1.0629,-1.0663,-1.0717,-1.0717,-1.0717,-1.0982,-1.1762,-1.2676,-1.384,-1.5524,-1.7345,-1.8768,-1.9674,-2.0589,-2.1109,-2.1109,-2.1109,-2.1109,-2.1109,-2.1109,-2.1109,-2.1109,-2.1109,-2.1109,-2.1109,-2.1109,-2.1109,-2.1109,-2.1109,-2.1109,-2.1109,-2.1109,-2.1109,-2.1122,-2.1416,-2.1563,-2.1577,-2.1871,-2.183,-2.159,-2.1871,-2.1897,-2.179,-2.1937,-2.1897,-2.1764,-2.1603,-2.147,-2.1323,-2.1162,-2.1203,-2.1646,-2.3866,-2.5282,-2.6665,-2.9801,-3.1433,-3.235,-3.3921,-3.4375,-3.457,-3.5469,-3.5703,-3.5742,-3.5976,-3.6016,-3.6016,-3.6016,-3.6016,-3.6016,-3.6016,-3.6016,-3.6094,-3.6289,-3.666,-3.709,-3.7539,-3.8164,-3.8418,-3.7969,-3.793,-3.7773,-3.7344,-3.7109,-3.6914,-3.668,-3.6484,-3.6269,-3.6035,-3.6016,-3.6016,-3.6016,-3.5176,-3.459,-3.4375,-3.4141,-3.3828,-3.3418,-3.3418,-3.3418,-3.3418,-3.3418,-3.3902,-0.5395,-0.6577,-0.5908,-0.2598,-0.6264,-0.9977,-0.6978,-0.859,-1.0744,-1.0724,-1.0717,-1.0717,-1.0717,-1.0982,-1.163,-1.3062,-1.384,-1.5135,-1.8116,-1.8768,-1.9419,-2.0982,-2.1109,-2.1109,-2.1109,-2.1109,-2.1109,-2.1109,-2.1109,-2.1109,-2.1109,-2.1109,-2.1109,-2.1109,-2.1109,-2.1109,-2.1109,-2.1109,-2.1109,-2.1109,-2.1109,-2.1109,-2.1122,-2.1363,-2.1336,-2.1136,-2.163,-2.1563,-2.1149,-2.163,-2.1697,-2.1496,-2.1737,-2.1683,-2.147,-2.147,-2.1323,-2.1109,-2.1475,-2.1806,-2.2479,-2.4683,-2.6681,-2.8588,-3.0663,-3.2237,-3.3594,-3.4375,-3.4648,-3.4883,-3.5703,-3.5957,-3.6016,-3.6016,-3.6016,-3.6016,-3.6016,-3.6016,-3.6016,-3.6016,-3.6016,-3.6172,-3.6699,-3.7363,-3.7812,-3.7812,-3.8242,-3.8359,-3.7773,-3.7773,-3.7617,-3.7129,-3.6758,-3.6562,-3.6562,-3.623,-3.6016,-3.6016,-3.6016,-3.6016,-3.6016,-3.5254,-3.4785,-3.4707,-3.4551,-3.4121,-3.3418,-3.334,-3.3359,-3.3418,-3.334,-3.3359,-0.0827,-0.1101,-0.2363,-0.7878,-1.0006,-1.0531,-1.006,-1.0345,-1.0744,-1.0724,-1.0717,-1.0717,-1.0717,-1.1894,-1.3062,-1.3325,-1.5784,-1.7988,-1.8384,-1.9801,-2.0843,-2.1109,-2.1109,-2.1109,-2.1109,-2.1109,-2.1109,-2.1109,-2.1109,-2.1109,-2.1109,-2.1109,-2.1109,-2.1109,-2.1109,-2.1109,-2.1109,-2.1109,-2.1109,-2.1109,-2.1109,-2.1109,-2.1109,-2.1149,-2.1149,-2.1109,-2.1189,-2.1176,-2.1122,-2.1189,-2.1203,-2.1176,-2.1216,-2.1203,-2.1162,-2.1162,-2.1149,-2.1362,-2.2716,-2.3532,-2.4477,-2.7838,-2.9475,-3.0393,-3.2505,-3.3165,-3.3516,-3.4023,-3.4414,-3.4824,-3.5332,-3.5742,-3.6016,-3.6016,-3.6016,-3.6016,-3.6016,-3.6016,-3.6016,-3.6016,-3.6016,-3.6269,-3.707,-3.7305,-3.7383,-3.7383,-3.8066,-3.8144,-3.6992,-3.7148,-3.707,-3.6269,-3.6152,-3.6113,-3.6113,-3.6055,-3.6016,-3.6016,-3.6016,-3.6016,-3.6016,-3.5566,-3.5117,-3.4707,-3.3965,-3.3535,-3.3418,-3.3066,-3.3066,-3.3418,-3.3047,-3.3066,-0.0,-0.2453,-0.5773,-0.9296,-1.0243,-1.035,-1.0471,-1.0558,-1.0731,-1.0724,-1.1505,-1.2157,-1.2157,-1.3578,-1.5135,-1.6043,-1.7474,-1.8896,-1.9801,-2.0589,-2.1109,-2.1109,-2.1109,-2.1109,-2.1109,-2.1109,-2.1109,-2.1109,-2.1109,-2.1109,-2.1109,-2.1109,-2.1109,-2.1109,-2.1109,-2.1109,-2.1109,-2.1109,-2.1109,-2.1109,-2.1109,-2.1109,-2.1109,-2.1109,-2.1109,-2.1109,-2.1109,-2.1109,-2.1109,-2.1109,-2.1109,-2.1109,-2.1109,-2.1109,-2.1109,-2.1109,-2.1727,-2.262,-2.3658,-2.481,-2.6278,-2.9171,-3.032,-3.0938,-3.2835,-3.3418,-3.3516,-3.3945,-3.4375,-3.4805,-3.5273,-3.5703,-3.6016,-3.6016,-3.6016,-3.6016,-3.6016,-3.6016,-3.6016,-3.6016,-3.6406,-3.6855,-3.7226,-3.7695,-3.8008,-3.8008,-3.834,-3.8203,-3.7148,-3.7187,-3.6973,-3.6113,-3.6016,-3.6016,-3.6016,-3.6016,-3.6016,-3.6016,-3.6016,-3.6016,-3.6016,-3.5371,-3.4902,-3.4707,-3.4101,-3.3672,-3.3418,-3.3242,-3.3242,-3.3418,-3.3242,-3.3242,-0.1708,-0.5435,-0.901,-0.9526,-0.9848,-1.0116,-1.0303,-1.0568,-1.067,-1.0711,-1.2413,-1.397,-1.397,-1.5394,-1.6947,-1.8244,-1.8896,-1.9546,-2.0982,-2.1109,-2.1109,-2.1109,-2.1109,-2.1109,-2.1109,-2.1109,-2.1109,-2.1109,-2.1109,-2.1109,-2.1109,-2.1109,-2.1109,-2.1109,-2.1109,-2.1109,-2.1109,-2.1109,-2.1109,-2.1109,-2.1109,-2.1109,-2.1109,-2.1109,-2.1109,-2.1109,-2.1109,-2.1109,-2.1109,-2.1109,-2.1109,-2.1109,-2.1109,-2.1109,-2.1109,-2.1601,-2.2634,-2.3848,-2.5078,-2.6591,-2.8289,-3.0356,-3.1246,-3.1689,-3.3019,-3.3418,-3.3496,-3.3809,-3.4219,-3.4629,-3.4961,-3.5371,-3.5684,-3.5684,-3.5684,-3.5742,-3.5976,-3.6016,-3.6055,-3.6152,-3.6621,-3.707,-3.7402,-3.791,-3.8281,-3.8398,-3.8496,-3.8223,-3.7266,-3.7226,-3.6973,-3.6113,-3.6016,-3.6016,-3.6016,-3.6016,-3.6016,-3.6016,-3.6016,-3.6016,-3.6016,-3.5293,-3.4824,-3.4707,-3.4297,-3.3867,-3.3418,-3.332,-3.332,-3.3418,-3.332,-3.3262,-0.6231,-0.8275,-0.8899,-0.9164,-0.9557,-0.9951,-1.0229,-1.0405,-1.0548,-1.069,-1.3456,-1.5784,-1.5784,-1.7205,-1.8372,-1.8512,-1.9941,-2.0982,-2.1109,-2.1109,-2.1109,-2.1109,-2.1109,-2.1109,-2.1109,-2.1109,-2.1109,-2.1109,-2.1109,-2.1109,-2.1109,-2.1109,-2.1109,-2.1109,-2.1109,-2.1109,-2.1109,-2.1109,-2.1109,-2.1109,-2.1109,-2.1109,-2.1109,-2.1109,-2.1109,-2.1109,-2.1109,-2.1109,-2.1109,-2.1109,-2.1109,-2.1109,-2.1109,-2.1109,-2.1235,-2.2841,-2.3768,-2.4653,-2.7764,-2.9403,-3.0555,-3.2133,-3.2941,-3.3292,-3.3418,-3.3418,-3.3437,-3.3457,-3.3769,-3.4121,-3.4141,-3.4453,-3.4766,-3.4766,-3.4766,-3.5,-3.584,-3.6016,-3.6152,-3.6562,-3.6348,-3.6465,-3.7676,-3.7598,-3.75,-3.7891,-3.8301,-3.8125,-3.6875,-3.7051,-3.6973,-3.6113,-3.6016,-3.6016,-3.6016,-3.6016,-3.6016,-3.6016,-3.6016,-3.6016,-3.6016,-3.5586,-3.5156,-3.4707,-3.4297,-3.3867,-3.3418,-3.3027,-3.3027,-3.3418,-3.3008,-3.2832,-0.5364,-0.6911,-0.8567,-0.8954,-0.93,-0.9605,-0.9802,-1.0114,-1.0371,-1.0426,-1.3319,-1.5701,-1.5701,-1.814,-2.0195,-2.0195,-2.0716,-2.1109,-2.1109,-2.1109,-2.1109,-2.1109,-2.1109,-2.1109,-2.1109,-2.1109,-2.1109,-2.1109,-2.1109,-2.1109,-2.1109,-2.1109,-2.1109,-2.1109,-2.1109,-2.1109,-2.1109,-2.1109,-2.1109,-2.1109,-2.1109,-2.1109,-2.1109,-2.1109,-2.1109,-2.1109,-2.1109,-2.1109,-2.1109,-2.1109,-2.1109,-2.1109,-2.1109,-2.1727,-2.2841,-2.3325,-2.5246,-2.7552,-2.9046,-3.0507,-3.2066,-3.2855,-3.3301,-3.3418,-3.3418,-3.3418,-3.3418,-3.3418,-3.373,-3.4082,-3.4082,-3.4609,-3.5215,-3.5488,-3.5547,-3.5644,-3.5957,-3.6016,-3.6074,-3.623,-3.6348,-3.6582,-3.7031,-3.7441,-3.7656,-3.7539,-3.8125,-3.8203,-3.7207,-3.7207,-3.707,-3.6504,-3.6191,-3.6016,-3.6016,-3.6016,-3.6016,-3.6016,-3.6016,-3.6016,-3.6016,-3.5605,-3.5176,-3.4707,-3.4297,-3.3867,-3.3418,-3.3262,-3.3281,-3.3418,-3.3262,-3.3047,-0.5824,-0.6793,-0.8384,-0.8784,-0.9062,-0.93,-0.9551,-0.9876,-1.0141,-1.0188,-1.3121,-1.5686,-1.5489,-1.853,-2.1082,-2.0975,-2.1042,-2.1109,-2.1109,-2.1109,-2.1109,-2.1109,-2.1109,-2.1109,-2.1109,-2.1109,-2.1109,-2.1109,-2.1109,-2.1109,-2.1109,-2.1109,-2.1109,-2.1109,-2.1109,-2.1109,-2.1109,-2.1109,-2.1109,-2.1109,-2.1109,-2.1109,-2.1109,-2.1109,-2.1109,-2.1109,-2.1109,-2.1109,-2.1109,-2.1109,-2.1109,-2.1109,-2.1727,-2.2591,-2.3698,-2.4778,-2.6844,-2.9197,-3.023,-3.1522,-3.2871,-3.3281,-3.3418,-3.3418,-3.3418,-3.3418,-3.3418,-3.3418,-3.3633,-3.3848,-3.3848,-3.4394,-3.5059,-3.5469,-3.5684,-3.5801,-3.5801,-3.5918,-3.6016,-3.6016,-3.625,-3.6504,-3.6641,-3.7129,-3.7461,-3.7324,-3.791,-3.8105,-3.7383,-3.7305,-3.7148,-3.6719,-3.6289,-3.6016,-3.6016,-3.6016,-3.6016,-3.6016,-3.6016,-3.6016,-3.6016,-3.5742,-3.5391,-3.4941,-3.4512,-3.4062,-3.3633,-3.3496,-3.3418,-3.3418,-3.3281,-3.291,0.0,0.0,0.0,-0.8628,-0.8811,-0.9042,-0.9483,-0.9693,-0.9842,-1.0005,-1.3009,-1.5479,-1.5276,-1.8399,-2.0863,-2.0708,-2.0909,-2.1109,-2.1109,-2.1109,-2.1109,-2.1109,-2.1109,-2.1109,-2.1109,-2.1109,-2.1109,-2.1109,-2.1109,-2.1109,-2.1109,-2.1109,-2.1109,-2.1109,-2.1109,-2.1109,-2.1109,-2.1109,-2.1109,-2.1109,-2.1109,-2.1109,-2.1109,-2.1109,-2.1109,-2.1109,-2.1109,-2.1109,-2.1109,-2.1109,-2.1109,-2.1362,-2.2952,-2.3698,-2.4178,-2.7211,-2.8679,-2.9441,-3.1507,-3.2441,-3.2871,-3.3281,-3.3418,-3.3418,-3.3418,-3.3418,-3.3418,-3.3418,-3.3418,-3.3437,-3.3457,-3.3789,-3.4219,-3.4629,-3.5078,-3.541,-3.541,-3.5723,-3.6016,-3.6016,-3.6016,-3.6152,-3.6582,-3.666,-3.6816,-3.7226,-3.7637,-3.7754,-3.7344,-3.7285,-3.7129,-3.6719,-3.6289,-3.6016,-3.6016,-3.6016,-3.6016,-3.6016,-3.6016,-3.6016,-3.6016,-3.6016,-3.582,-3.541,-3.4941,-3.4492,-3.4082,-3.3633,-3.3418,-3.3418,-3.2988,-3.2344,-0.7952,0.0,0.0,0.0,0.0,0.0,-0.8906,-0.9076,-0.9286,-0.9652,-1.1583,-1.3156,-1.3146,-1.5246,-1.7428,-1.8483,-2.0013,-2.1109,-2.1109,-2.1109,-2.1109,-2.1109,-2.1109,-2.1109,-2.1109,-2.1109,-2.1109,-2.1109,-2.1109,-2.1109,-2.1109,-2.1109,-2.1109,-2.1109,-2.1109,-2.1109,-2.1109,-2.1109,-2.1109,-2.1109,-2.1109,-2.1109,-2.1109,-2.1109,-2.1109,-2.1109,-2.1109,-2.1109,-2.1109,-2.1109,-2.1853,-2.2952,-2.345,-2.5024,-2.7211,-2.8051,-2.9416,-3.0945,-3.1891,-3.2441,-3.2871,-3.3281,-3.3418,-3.3418,-3.3418,-3.3418,-3.3418,-3.3418,-3.3418,-3.3574,-3.418,-3.4687,-3.5137,-3.5547,-3.5742,-3.584,-3.584,-3.5937,-3.6016,-3.6016,-3.6016,-3.6055,-3.6172,-3.6465,-3.6719,-3.6816,-3.7207,-3.7422,-3.7305,-3.7031,-3.6797,-3.668,-3.6289,-3.6016,-3.6016,-3.6016,-3.6016,-3.6016,-3.6016,-3.6016,-3.6016,-3.6016,-3.582,-3.541,-3.4941,-3.4492,-3.4082,-3.3633,-3.3418,-3.3418,-3.2988,-3.25,-0.8045,-0.8085,-0.8187,-0.8397,0.0,0.0,-0.8757,-0.8825,-0.8933,-0.9259,-1.0802,-1.2147,-1.2209,-1.3939,-1.5883,-1.7591,-1.9088,-2.0194,-2.0969,-2.1109,-2.1109,-2.1109,-2.1109,-2.1109,-2.1109,-2.1109,-2.1109,-2.1109,-2.1109,-2.1109,-2.1109,-2.1109,-2.1109,-2.1109,-2.1109,-2.1109,-2.1109,-2.1109,-2.1109,-2.1109,-2.1109,-2.1109,-2.1109,-2.1109,-2.1109,-2.1109,-2.1109,-2.1109,-2.1109,-2.1109,-2.2104,-2.3698,-2.4301,-2.6106,-2.8545,-2.9157,-3.0287,-3.1582,-3.2012,-3.2441,-3.2871,-3.3281,-3.3418,-3.3418,-3.3418,-3.3418,-3.3418,-3.3418,-3.3555,-3.3887,-3.4766,-3.5195,-3.5508,-3.5918,-3.6016,-3.6016,-3.6016,-3.6016,-3.6016,-3.6016,-3.6016,-3.6016,-3.6016,-3.623,-3.6406,-3.6406,-3.6758,-3.7031,-3.7031,-3.6816,-3.668,-3.668,-3.6289,-3.6016,-3.6016,-3.6016,-3.6016,-3.6016,-3.6016,-3.6016,-3.6016,-3.6016,-3.582,-3.541,-3.4941,-3.4414,-3.3809,-3.3535,-3.3242,-3.2891,-3.2832,-3.2383,-0.8058,-0.8167,-0.8336,-0.8594,-0.8574,0.0,-0.8825,-0.8784,-0.873,-0.8906,-1.037,-1.1659,-1.1745,-1.326,-1.5276,-1.7196,-1.7742,-1.8686,-2.0803,-2.1109,-2.1109,-2.1109,-2.1109,-2.1109,-2.1109,-2.1109,-2.1109,-2.1109,-2.1082,-2.1042,-2.1015,-2.1015,-2.1015,-2.1015,-2.1015,-2.1015,-2.1015,-2.1042,-2.1069,-2.1069,-2.1096,-2.1109,-2.1109,-2.1109,-2.1109,-2.1109,-2.1109,-2.1109,-2.1109,-2.1109,-2.2215,-2.4054,-2.5497,-2.7073,-2.8902,-3.0392,-3.1133,-3.1504,-3.1953,-3.2344,-3.2734,-3.3203,-3.3359,-3.3359,-3.3418,-3.3418,-3.3437,-3.3476,-3.3848,-3.4394,-3.5195,-3.543,-3.5566,-3.5937,-3.6016,-3.6016,-3.6016,-3.6016,-3.6016,-3.6016,-3.6016,-3.6016,-3.6016,-3.6016,-3.6035,-3.6094,-3.6387,-3.6621,-3.666,-3.6621,-3.6601,-3.6601,-3.625,-3.6016,-3.6016,-3.6016,-3.6016,-3.6016,-3.6016,-3.5996,-3.5957,-3.5957,-3.5742,-3.5332,-3.4863,-3.4238,-3.3418,-3.3418,-3.3047,-3.2324,-3.2695,-3.2226,-0.8194,-0.8248,-0.8282,-0.8343,-0.8418,0.0,-0.856,-0.8547,-0.8608,-0.8879,-0.9203,-0.9553,-0.9831,-1.0391,-1.1708,-1.4565,-1.5671,-1.7224,-2.065,-2.1109,-2.1109,-2.1109,-2.1109,-2.1109,-2.1109,-2.1109,-2.1109,-2.1109,-2.0895,-2.0655,-2.0414,-2.0401,-2.0401,-2.0401,-2.0401,-2.0401,-2.0401,-2.0641,-2.0762,-2.0762,-2.1002,-2.1109,-2.1109,-2.1109,-2.1109,-2.1109,-2.1109,-2.1109,-2.1109,-2.1109,-2.2812,-2.5619,-2.5863,-2.7811,-3.0392,-3.0762,-3.0937,-3.1074,-3.1504,-3.1699,-3.1894,-3.2656,-3.291,-3.2988,-3.332,-3.3418,-3.3496,-3.3848,-3.4512,-3.5176,-3.5351,-3.5644,-3.5918,-3.5996,-3.6016,-3.6016,-3.6016,-3.6016,-3.6016,-3.6016,-3.6016,-3.6016,-3.6016,-3.6016,-3.6133,-3.6484,-3.6309,-3.6269,-3.6621,-3.6367,-3.6152,-3.6152,-3.6074,-3.6016,-3.6016,-3.6016,-3.6016,-3.6016,-3.6016,-3.5859,-3.5527,-3.5508,-3.5293,-3.4844,-3.4414,-3.3945,-3.3418,-3.3418,-3.334,-3.3184,-3.3262,-3.2988,-0.8133,-0.8214,-0.8303,-0.8452,-0.8486,0.0,0.0,-0.8587,-0.8547,-0.8777,-0.8825,-0.8913,-0.9211,-0.9334,-1.0259,-1.2967,-1.375,-1.4951,-1.7929,-1.912,-1.9801,-1.9801,-1.9801,-1.9801,-1.9801,-2.0589,-2.1109,-2.1109,-2.0842,-2.0615,-2.0468,-2.0307,-2.0227,-2.0227,-2.0227,-2.0227,-2.0227,-2.0535,-2.0681,-2.0681,-2.0975,-2.1109,-2.1109,-2.1109,-2.1109,-2.1109,-2.1109,-2.1109,-2.1109,-2.1109,-2.2577,-2.4778,-2.4778,-2.6849,-2.9667,-2.9893,-3.0715,-3.1582,-3.2012,-3.2285,-3.2539,-3.2969,-3.3105,-3.3144,-3.3359,-3.3418,-3.3516,-3.3945,-3.4551,-3.5098,-3.5332,-3.5703,-3.6016,-3.6016,-3.6016,-3.6016,-3.6016,-3.6016,-3.6016,-3.6016,-3.6016,-3.6016,-3.6016,-3.6016,-3.6094,-3.6309,-3.6152,-3.6094,-3.6309,-3.6152,-3.6016,-3.6016,-3.6016,-3.6016,-3.6016,-3.6016,-3.5587,-3.459,-3.4402,-3.4195,-3.3989,-3.3782,-3.3481,-3.303,-3.2617,-3.2316,-3.2091,-3.3019,-3.332,-3.3105,-3.332,-3.3086,-0.8153,-0.8262,-0.8411,-0.8648,-0.8642,-0.8628,0.0,0.0,0.0,-0.8737,-0.8798,-0.8906,-0.9117,-0.9178,-0.9874,-1.1862,-1.2252,-1.3036,-1.5084,-1.6527,-1.7607,-1.7908,-1.8256,-1.8395,-1.85,-2.0017,-2.1002,-2.0949,-2.0668,-2.0481,-2.0428,-2.0201,-2.0067,-2.0067,-2.0067,-2.0094,-2.0147,-2.0441,-2.0615,-2.0681,-2.0975,-2.1109,-2.1109,-2.1109,-2.1109,-2.1109,-2.1109,-2.1109,-2.1109,-2.1109,-2.1853,-2.3201,-2.345,-2.5513,-2.8462,-2.8787,-3.0279,-3.209,-3.2441,-3.2832,-3.3184,-3.3281,-3.3359,-3.3418,-3.3418,-3.3476,-3.3486,-3.3579,-3.4095,-3.4673,-3.4853,-3.5355,-3.5918,-3.5996,-3.6016,-3.6016,-3.6016,-3.6016,-3.6016,-3.6016,-3.5957,-3.5918,-3.6016,-3.6016,-3.6016,-3.6016,-3.6016,-3.6016,-3.6016,-3.6016,-3.6016,-3.6016,-3.5724,-3.5412,-3.5335,-3.5043,-3.4147,-3.2521,-3.2218,-3.2004,-3.1797,-3.1559,-3.1203,-3.0751,-3.0822,-3.0771,-3.0771,-3.2218,-3.2845,-3.293,-3.3262,-3.2883,-0.856,-0.8648,-0.8669,-0.8703,-0.8798,-0.8859,-0.8757,0.0,-0.9042,-0.8933,0.0,-0.9273,-0.9171,0.0,0.0,-1.1142,-1.1996,-1.2937,-1.455,-1.4081,-1.415,-1.5843,-1.7202,-1.8132,-1.8465,-1.9839,-2.0615,-2.0347,-2.0067,-1.9786,-1.9533,-1.9479,-1.9466,-1.9466,-1.9466,-1.9586,-1.984,-2.0134,-2.0414,-2.0681,-2.0975,-2.1109,-2.1109,-2.1109,-2.1109,-2.1109,-2.1109,-2.1109,-2.1109,-2.1109,-2.1235,-2.1475,-2.2966,-2.5513,-2.8426,-2.8462,-2.9849,-3.1601,-3.1641,-3.1953,-3.2383,-3.2734,-3.3125,-3.3418,-3.3418,-3.3691,-3.3747,-3.2171,-3.3162,-3.439,-3.3299,-3.4296,-3.5566,-3.5937,-3.6016,-3.6016,-3.6016,-3.6016,-3.6016,-3.6016,-3.5723,-3.5586,-3.5957,-3.6016,-3.6016,-3.6016,-3.6016,-3.6016,-3.6016,-3.6016,-3.6016,-3.6016,-3.4452,-3.344,-3.3093,-3.1513,-3.0392,-2.9917,-2.9867,-2.9563,-2.9245,-2.8876,-2.8675,-2.8493,-3.0012,-3.0771,-3.0771,-3.1029,-3.1817,-3.3359,-3.3398,-3.2535,-0.854,-0.8581,-0.8621,-0.8798,-0.8825,-0.8832,-0.894,-0.9001,-0.9035,-0.9055,0.0,0.0,0.0,0.0,0.0,0.0,-1.062,-1.1025,-1.1719,-1.2018,-1.2681,-1.3968,-1.5431,-1.719,-1.9311,-2.0112,-2.0294,-2.0,-1.972,-1.9492,-1.9372,-1.9199,-1.9185,-1.9359,-1.9372,-1.9426,-1.9546,-2.0,-2.0294,-2.0428,-2.0882,-2.1109,-2.1109,-2.1109,-2.1109,-2.1109,-2.1109,-2.1109,-2.1109,-2.1109,-2.1109,-2.1109,-2.1853,-2.3559,-2.5774,-2.6966,-2.8656,-3.0607,-3.1513,-3.2324,-3.2786,-3.1917,-3.1686,-3.1707,-3.066,-3.0669,-3.0707,-3.0044,-3.1568,-3.3322,-3.2657,-3.4158,-3.5801,-3.5976,-3.6016,-3.6016,-3.6016,-3.6016,-3.5937,-3.5703,-3.5508,-3.5449,-3.5625,-3.5664,-3.5742,-3.5976,-3.6016,-3.6016,-3.6016,-3.6016,-3.5587,-3.4452,-3.3743,-3.2574,-3.1202,-3.0338,-2.9339,-2.7878,-2.7536,-2.7285,-2.6941,-2.6784,-2.6573,-2.6573,-2.7354,-2.7751,-2.7751,-2.8804,-2.9605,-3.0401,-3.0406,-3.0006,-0.8574,-0.8608,-0.8669,-0.8933,-0.8913,-0.8879,-0.9055,-0.911,-0.915,-0.9259,-0.9374,0.0,0.0,0.0,-0.9585,-0.9652,0.0,-0.97,-0.9808,-1.0994,-1.2013,-1.264,-1.4778,-1.7213,-2.0103,-2.0281,-2.0107,-1.9826,-1.9452,-1.9212,-1.9132,-1.8998,-1.9025,-1.9239,-1.9332,-1.9439,-1.9599,-2.0027,-2.0307,-2.0481,-2.0909,-2.1109,-2.1109,-2.1109,-2.1109,-2.1109,-2.1109,-2.1109,-2.1109,-2.1109,-2.1109,-2.1109,-2.1109,-2.1853,-2.3106,-2.5061,-2.7109,-2.9066,-3.0211,-3.1121,-3.1686,-3.0477,-3.0125,-2.9865,-2.8558,-2.8345,-2.8442,-2.8003,-2.9631,-3.1472,-3.1683,-3.3358,-3.516,-3.586,-3.6016,-3.6016,-3.6016,-3.6016,-3.5898,-3.5469,-3.5293,-3.5195,-3.5195,-3.5312,-3.5527,-3.5957,-3.5587,-3.5158,-3.5158,-3.4727,-3.3882,-3.2595,-3.1931,-3.0869,-2.9109,-2.844,-2.7401,-2.5696,-2.5324,-2.5106,-2.4858,-2.4858,-2.4858,-2.4858,-2.5248,-2.5517,-2.5517,-2.6839,-2.7503,-2.7503,-2.7802,-2.7833,-0.8804,-0.8927,-0.896,-0.911,-0.9144,-0.9103,-0.8974,-0.9279,-0.9591,-0.9591,-0.9944,-1.0202,-1.0053,-1.0025,-0.9978,-0.9836,-0.9815,0.0,0.0,-1.0994,-1.1963,-1.2339,-1.5691,-1.875,-2.0531,-2.0401,-2.0107,-1.9826,-1.9265,-1.8811,-1.8531,-1.8771,-1.8931,-1.8945,-1.9212,-1.9639,-2.0201,-2.0227,-2.0521,-2.1082,-2.1096,-2.1109,-2.1109,-2.1109,-2.1109,-2.1109,-2.1109,-2.1109,-2.1109,-2.1109,-2.1109,-2.1109,-2.1109,-2.1109,-2.1362,-2.3091,-2.503,-2.6686,-2.681,-2.7294,-2.796,-2.8196,-2.8295,-2.8295,-2.8163,-2.818,-2.7865,-2.6466,-2.7374,-2.889,-2.9738,-3.1323,-3.3248,-3.5491,-3.6016,-3.6016,-3.6016,-3.6016,-3.5898,-3.5469,-3.5019,-3.4726,-3.4726,-3.5098,-3.5527,-3.5957,-3.4452,-3.3309,-3.3309,-3.1597,-3.0451,-3.0451,-2.8444,-2.6989,-2.6673,-2.4735,-2.3359,-2.305,-2.301,-2.301,-2.2996,-2.2996,-2.2996,-2.2996,-2.4588,-2.5517,-2.5517,-2.5517,-2.5651,-2.5636,-2.7114,-2.6823,-0.875,-0.8859,-0.8974,-0.9117,-0.9083,-0.9049,-0.9198,-0.9347,-0.951,-0.9707,-0.9951,-1.0141,-1.0195,-1.0202,-1.0181,-1.0134,-1.0893,-1.1555,0.0,-1.3433,-1.5362,-1.6588,-1.715,-1.7973,-1.9681,-1.972,-1.9466,-1.8971,-1.8571,-1.8303,-1.8196,-1.8477,-1.8731,-1.8918,-1.9212,-1.9466,-1.9653,-2.004,-2.0334,-2.0535,-2.0922,-2.1109,-2.1109,-2.1109,-2.1109,-2.1109,-2.1109,-2.1109,-2.1109,-2.1109,-2.1109,-2.1109,-2.1109,-2.1109,-2.1375,-2.3199,-2.4462,-2.5451,-2.7068,-2.747,-2.7243,-2.665,-2.6439,-2.6172,-2.4993,-2.4882,-2.4853,-2.4624,-2.5944,-2.7726,-2.8191,-3.0567,-3.2851,-3.242,-3.4158,-3.5587,-3.4452,-3.5158,-3.5898,-3.5469,-3.5019,-3.4707,-3.4707,-3.3747,-3.3211,-3.3341,-3.3258,-3.2645,-3.1253,-3.0584,-2.9884,-2.8629,-2.7818,-2.6688,-2.4904,-2.3719,-2.2979,-2.2873,-2.2859,-2.2859,-2.2859,-2.2859,-2.2859,-2.2859,-2.3529,-2.3788,-2.3788,-2.3788,-2.3788,-2.3788,-2.3947,-2.3851,-0.875,-0.8899,-0.9049,-0.9198,-0.9205,-0.9225,-0.9422,-0.9503,-0.9625,-0.9924,-1.01,-1.0256,-1.0405,-1.0941,-1.1283,-1.1173,-1.2424,-1.3478,0.0,-1.5322,-1.7008,-1.8546,-1.8262,-1.8462,-1.9548,-1.9586,-1.9239,-1.8544,-1.821,-1.7956,-1.7742,-1.821,-1.8584,-1.8771,-1.9265,-1.9519,-1.9519,-2.0094,-2.0334,-2.0241,-2.0722,-2.0949,-2.0949,-2.0949,-2.1015,-2.1109,-2.1109,-2.1109,-2.1109,-2.1109,-2.1109,-2.1109,-2.1109,-2.1176,-2.141,-2.2737,-2.3379,-2.397,-2.5555,-2.5859,-2.5321,-2.4818,-2.4588,-2.4317,-2.3256,-2.3006,-2.3247,-2.3661,-2.4873,-2.6055,-2.7078,-2.9138,-3.0831,-3.0252,-3.2105,-3.356,-3.242,-3.3044,-3.3724,-3.3465,-3.3077,-3.2781,-3.2648,-3.1693,-3.1208,-3.2178,-3.1635,-3.0667,-2.9167,-2.8522,-2.7629,-2.6634,-2.62,-2.5371,-2.3628,-2.3086,-2.2859,-2.2859,-2.2859,-2.2859,-2.2859,-2.2859,-2.2966,-2.318,-2.2966,-2.2966,-2.318,-2.2966,-2.2806,-2.2699,-2.2255,-2.2271]},{"header":{"parameterUnit":"m.s-1","parameterCategory":1,"la1":30.6,"la2":29.2853,"lo1":-89.7004,"lo2":-87.6739,"dy":0.0162,"dx":0.0183,"nx":112,"ny":82,"refTime":"2023-04-13T12:00:00:Z","depth":0,"parameterNumber":3,"parameterNumberName":"V-component_of_WINDS"},"data":[0.0,0.0,0.0,0.0,0.0,0.0,0.0,0.0,0.0,0.0,0.0,0.0,0.0,0.0,0.0,0.0,0.0,0.0,0.0,0.0,0.0,0.0,0.0,0.0,0.0,0.0,0.0,0.0,0.0,0.0,0.0,0.0,0.0,0.0,0.0,0.0,0.0,0.0,0.0,0.0,0.0,0.0,0.0,0.0,0.0,0.0,0.0,0.0,0.0,0.0,0.0,0.0,0.0,0.0,0.0,0.0,0.0,0.0,0.0,0.0,0.0,0.0,0.0,0.0,0.0,0.0,0.0,0.0,0.0,0.0,0.0,0.0,0.0,0.0,0.0,0.0,0.0,0.0,0.0,0.0,0.0,0.0,0.0,0.0,0.0,0.0,0.0,0.0,0.0,0.0,-4.1113,-4.1223,-4.4023,-4.6865,-4.9336,-4.7257,-4.5467,-4.4957,0.0,0.0,0.0,0.0,0.0,0.0,0.0,0.0,0.0,0.0,0.0,0.0,0.0,0.0,0.0,0.0,0.0,0.0,0.0,0.0,0.0,0.0,0.0,0.0,0.0,0.0,0.0,0.0,0.0,0.0,0.0,0.0,0.0,0.0,0.0,0.0,0.0,0.0,0.0,0.0,0.0,0.0,0.0,0.0,0.0,0.0,0.0,0.0,0.0,0.0,0.0,0.0,0.0,0.0,0.0,0.0,0.0,0.0,0.0,0.0,0.0,0.0,0.0,0.0,0.0,0.0,0.0,0.0,0.0,0.0,0.0,0.0,0.0,0.0,0.0,0.0,0.0,0.0,0.0,0.0,0.0,0.0,0.0,0.0,0.0,0.0,0.0,0.0,0.0,0.0,0.0,0.0,0.0,0.0,0.0,0.0,0.0,0.0,0.0,0.0,0.0,0.0,0.0,0.0,-4.2931,-4.4429,-4.5907,-4.7339,-4.8758,-4.7695,-4.5754,-4.3205,0.0,0.0,0.0,0.0,0.0,0.0,0.0,0.0,0.0,0.0,0.0,0.0,0.0,0.0,0.0,0.0,0.0,0.0,0.0,0.0,0.0,0.0,0.0,0.0,0.0,0.0,0.0,0.0,0.0,0.0,0.0,0.0,0.0,0.0,0.0,0.0,0.0,0.0,0.0,0.0,0.0,0.0,0.0,0.0,0.0,0.0,0.0,0.0,0.0,0.0,0.0,0.0,0.0,0.0,0.0,0.0,0.0,0.0,0.0,0.0,0.0,0.0,0.0,0.0,0.0,0.0,0.0,0.0,0.0,0.0,0.0,0.0,0.0,0.0,0.0,0.0,0.0,0.0,0.0,0.0,0.0,0.0,0.0,0.0,0.0,0.0,0.0,0.0,0.0,0.0,0.0,0.0,0.0,0.0,0.0,0.0,0.0,0.0,0.0,0.0,0.0,0.0,0.0,-4.2872,-4.3972,-4.661,-4.7316,-4.8226,-4.9968,-4.7937,-4.5989,-4.4788,-4.1861,0.0,0.0,0.0,0.0,0.0,0.0,0.0,0.0,0.0,0.0,0.0,0.0,0.0,0.0,0.0,0.0,0.0,0.0,0.0,0.0,0.0,0.0,0.0,0.0,0.0,0.0,0.0,0.0,0.0,0.0,0.0,0.0,0.0,0.0,0.0,0.0,0.0,0.0,0.0,0.0,0.0,0.0,0.0,0.0,0.0,0.0,0.0,0.0,0.0,0.0,0.0,0.0,0.0,0.0,0.0,0.0,0.0,0.0,0.0,0.0,0.0,0.0,0.0,0.0,0.0,0.0,0.0,0.0,0.0,0.0,0.0,0.0,0.0,0.0,0.0,0.0,0.0,0.0,0.0,0.0,0.0,0.0,0.0,0.0,0.0,0.0,0.0,0.0,0.0,0.0,0.0,0.0,0.0,0.0,0.0,0.0,0.0,0.0,0.0,0.0,0.0,0.0,-4.3958,-4.4556,-4.7728,-4.8106,-4.8828,-5.0598,-4.7817,-4.5886,-4.5659,-4.1906,0.0,0.0,0.0,0.0,0.0,0.0,0.0,0.0,0.0,0.0,0.0,0.0,0.0,0.0,0.0,0.0,0.0,0.0,0.0,0.0,0.0,0.0,0.0,0.0,0.0,0.0,0.0,0.0,0.0,0.0,0.0,0.0,0.0,0.0,0.0,0.0,0.0,0.0,0.0,0.0,0.0,0.0,0.0,0.0,0.0,0.0,0.0,0.0,0.0,0.0,0.0,0.0,0.0,0.0,0.0,0.0,0.0,0.0,0.0,0.0,0.0,0.0,0.0,0.0,0.0,0.0,0.0,0.0,0.0,0.0,0.0,0.0,0.0,0.0,0.0,0.0,0.0,0.0,0.0,0.0,0.0,0.0,0.0,0.0,0.0,0.0,0.0,0.0,0.0,0.0,0.0,0.0,0.0,0.0,0.0,0.0,0.0,0.0,0.0,0.0,0.0,0.0,-4.3419,-4.4407,-4.71,-4.7909,-4.8596,-4.9344,-4.7164,-4.491,-4.3194,-4.0719,0.0,0.0,0.0,0.0,0.0,0.0,0.0,0.0,0.0,0.0,0.0,0.0,0.0,0.0,0.0,0.0,0.0,0.0,0.0,0.0,0.0,0.0,0.0,0.0,0.0,0.0,0.0,0.0,0.0,0.0,0.0,0.0,0.0,0.0,0.0,0.0,0.0,0.0,0.0,0.0,0.0,0.0,0.0,0.0,0.0,0.0,0.0,0.0,0.0,0.0,0.0,0.0,0.0,0.0,0.0,0.0,0.0,0.0,0.0,0.0,0.0,0.0,0.0,0.0,0.0,0.0,0.0,0.0,0.0,0.0,0.0,0.0,0.0,0.0,0.0,0.0,0.0,0.0,0.0,0.0,0.0,0.0,0.0,0.0,0.0,0.0,0.0,0.0,0.0,0.0,0.0,0.0,0.0,0.0,0.0,0.0,0.0,0.0,0.0,0.0,0.0,0.0,-4.3718,-4.4676,-4.6501,-4.7638,-4.8386,-4.8626,-4.7822,-4.6312,-4.4048,0.0,0.0,0.0,0.0,0.0,0.0,0.0,0.0,0.0,0.0,0.0,0.0,0.0,0.0,0.0,0.0,0.0,0.0,0.0,0.0,0.0,0.0,0.0,0.0,0.0,0.0,0.0,0.0,0.0,0.0,0.0,0.0,0.0,0.0,0.0,0.0,0.0,0.0,0.0,0.0,0.0,0.0,0.0,0.0,0.0,0.0,0.0,0.0,0.0,0.0,0.0,0.0,0.0,0.0,0.0,0.0,0.0,0.0,0.0,0.0,0.0,0.0,0.0,0.0,0.0,0.0,0.0,0.0,0.0,0.0,0.0,0.0,0.0,0.0,0.0,0.0,0.0,0.0,0.0,0.0,0.0,0.0,0.0,0.0,0.0,0.0,0.0,0.0,0.0,0.0,0.0,0.0,0.0,0.0,0.0,0.0,0.0,0.0,0.0,0.0,0.0,0.0,-4.2491,-4.3479,-4.4526,-4.5843,-4.7189,-4.7967,-4.7967,-4.7108,-4.5873,-4.4384,0.0,0.0,0.0,0.0,0.0,0.0,0.0,0.0,0.0,0.0,0.0,0.0,0.0,0.0,0.0,0.0,0.0,0.0,0.0,0.0,0.0,0.0,0.0,0.0,0.0,0.0,0.0,0.0,0.0,0.0,0.0,0.0,0.0,0.0,0.0,0.0,0.0,0.0,0.0,0.0,0.0,0.0,0.0,0.0,0.0,0.0,0.0,0.0,0.0,0.0,0.0,0.0,0.0,0.0,0.0,0.0,0.0,0.0,0.0,0.0,0.0,0.0,0.0,0.0,0.0,0.0,0.0,0.0,0.0,0.0,0.0,0.0,0.0,0.0,0.0,0.0,0.0,0.0,0.0,0.0,0.0,0.0,0.0,0.0,0.0,0.0,0.0,0.0,0.0,0.0,0.0,0.0,0.0,0.0,0.0,0.0,0.0,0.0,0.0,0.0,0.0,0.0,-4.1205,-4.2521,-4.3838,-4.5155,-4.6501,-4.7309,-4.7309,-4.4467,-4.2996,0.0,0.0,0.0,0.0,0.0,0.0,0.0,0.0,0.0,0.0,0.0,0.0,0.0,0.0,0.0,0.0,0.0,0.0,0.0,0.0,0.0,0.0,0.0,0.0,0.0,0.0,0.0,0.0,0.0,0.0,0.0,0.0,0.0,0.0,0.0,0.0,0.0,0.0,0.0,0.0,0.0,0.0,0.0,0.0,0.0,0.0,0.0,0.0,0.0,0.0,0.0,0.0,0.0,0.0,0.0,0.0,0.0,0.0,0.0,0.0,0.0,0.0,0.0,0.0,0.0,0.0,0.0,0.0,0.0,0.0,0.0,0.0,0.0,0.0,0.0,0.0,0.0,0.0,0.0,0.0,0.0,0.0,0.0,0.0,0.0,0.0,0.0,0.0,0.0,0.0,0.0,0.0,0.0,0.0,0.0,0.0,0.0,0.0,0.0,0.0,0.0,0.0,0.0,-4.1205,-4.2132,-4.3329,-4.5095,-4.6082,-4.68,-4.7279,-4.6066,-4.5154,-4.4773,0.0,0.0,0.0,0.0,0.0,0.0,0.0,0.0,0.0,0.0,0.0,0.0,0.0,0.0,0.0,0.0,0.0,0.0,0.0,0.0,0.0,0.0,0.0,0.0,0.0,0.0,0.0,0.0,0.0,0.0,0.0,0.0,0.0,0.0,0.0,0.0,0.0,0.0,0.0,0.0,0.0,0.0,0.0,0.0,0.0,0.0,0.0,0.0,0.0,0.0,0.0,0.0,0.0,0.0,0.0,0.0,0.0,0.0,0.0,0.0,0.0,0.0,0.0,0.0,0.0,0.0,0.0,0.0,0.0,0.0,0.0,0.0,0.0,0.0,0.0,0.0,0.0,0.0,0.0,0.0,0.0,0.0,0.0,0.0,0.0,0.0,0.0,0.0,0.0,0.0,0.0,0.0,0.0,0.0,0.0,0.0,0.0,0.0,0.0,0.0,0.0,0.0,-4.1205,-4.2192,-4.3389,-4.5125,-4.6142,-4.7031,-4.7789,-4.6665,-4.565,-4.5172,0.0,0.0,0.0,0.0,0.0,0.0,0.0,0.0,0.0,0.0,0.0,0.0,0.0,0.0,0.0,0.0,0.0,0.0,0.0,0.0,0.0,0.0,0.0,0.0,0.0,0.0,0.0,0.0,0.0,0.0,0.0,0.0,0.0,0.0,0.0,0.0,0.0,0.0,0.0,0.0,0.0,0.0,0.0,0.0,0.0,0.0,0.0,0.0,0.0,0.0,0.0,0.0,0.0,0.0,0.0,0.0,0.0,0.0,0.0,0.0,0.0,0.0,0.0,0.0,0.0,0.0,0.0,0.0,0.0,0.0,0.0,0.0,0.0,0.0,0.0,0.0,0.0,0.0,0.0,0.0,0.0,0.0,0.0,0.0,0.0,0.0,0.0,0.0,0.0,0.0,0.0,0.0,0.0,0.0,0.0,0.0,0.0,0.0,0.0,0.0,0.0,0.0,-4.1355,-4.2556,-4.3848,-4.5453,-4.6689,-4.7782,-4.8891,-4.6936,-4.5494,-4.5042,0.0,0.0,0.0,0.0,0.0,0.0,0.0,0.0,0.0,0.0,0.0,0.0,0.0,0.0,0.0,0.0,0.0,0.0,0.0,0.0,0.0,0.0,0.0,0.0,0.0,0.0,0.0,0.0,0.0,0.0,0.0,0.0,0.0,0.0,0.0,0.0,0.0,0.0,0.0,0.0,0.0,0.0,0.0,0.0,0.0,0.0,0.0,0.0,0.0,0.0,0.0,0.0,0.0,0.0,0.0,0.0,0.0,0.0,0.0,0.0,-4.628,-4.4838,0.0,0.0,0.0,0.0,0.0,0.0,0.0,0.0,0.0,0.0,0.0,0.0,0.0,0.0,0.0,0.0,0.0,0.0,0.0,0.0,0.0,0.0,0.0,0.0,0.0,0.0,0.0,0.0,0.0,0.0,0.0,0.0,0.0,0.0,0.0,0.0,0.0,0.0,0.0,0.0,-4.2222,-4.2725,-4.4099,-4.736,-4.7896,-4.8573,-4.9914,-4.9138,-4.768,-4.5801,-4.4489,0.0,0.0,0.0,0.0,0.0,0.0,0.0,0.0,0.0,0.0,0.0,0.0,0.0,0.0,0.0,0.0,0.0,0.0,0.0,0.0,0.0,0.0,0.0,0.0,0.0,0.0,0.0,0.0,0.0,0.0,0.0,0.0,0.0,0.0,0.0,0.0,0.0,0.0,0.0,0.0,0.0,0.0,0.0,0.0,0.0,0.0,0.0,0.0,0.0,0.0,0.0,0.0,0.0,0.0,0.0,0.0,0.0,0.0,0.0,-4.9875,-4.8381,0.0,0.0,0.0,0.0,0.0,0.0,0.0,0.0,0.0,0.0,0.0,0.0,0.0,0.0,0.0,0.0,0.0,0.0,0.0,0.0,0.0,0.0,0.0,0.0,0.0,0.0,0.0,0.0,0.0,0.0,0.0,0.0,0.0,0.0,0.0,0.0,0.0,0.0,0.0,0.0,-4.3183,-4.4008,-4.5421,-4.7988,-4.8893,-4.9823,-5.1015,-5.0027,-4.8499,-4.6266,-4.5403,0.0,0.0,0.0,0.0,0.0,0.0,0.0,0.0,0.0,0.0,0.0,0.0,0.0,0.0,0.0,0.0,0.0,0.0,0.0,0.0,0.0,0.0,0.0,0.0,0.0,0.0,0.0,0.0,0.0,0.0,0.0,0.0,0.0,0.0,0.0,0.0,0.0,0.0,0.0,0.0,0.0,0.0,0.0,0.0,0.0,0.0,0.0,0.0,0.0,0.0,0.0,0.0,0.0,-5.3001,-5.3354,-5.3333,-5.5944,-5.6757,-5.5982,-5.4345,-5.3039,-5.2014,-5.123,0.0,0.0,0.0,0.0,0.0,0.0,0.0,0.0,0.0,0.0,0.0,0.0,0.0,0.0,0.0,0.0,0.0,0.0,0.0,0.0,0.0,0.0,-4.9653,-4.9896,-5.0791,-5.122,-4.9988,0.0,0.0,0.0,0.0,0.0,0.0,0.0,0.0,0.0,0.0,0.0,-4.3973,-4.552,-4.7071,-4.8666,-4.996,-5.1099,-5.2065,-5.0896,-4.9256,-4.7147,-4.6652,-4.4446,0.0,0.0,0.0,0.0,0.0,0.0,0.0,0.0,0.0,0.0,0.0,0.0,0.0,0.0,0.0,0.0,0.0,0.0,0.0,0.0,0.0,0.0,0.0,0.0,0.0,0.0,0.0,0.0,0.0,0.0,0.0,0.0,-4.9373,-4.9296,0.0,0.0,0.0,0.0,0.0,0.0,0.0,0.0,0.0,0.0,0.0,0.0,0.0,-5.1294,-5.2795,-5.5136,-5.6296,-5.6405,-5.9748,-6.092,-6.0298,-6.1372,-6.1825,-6.1752,-6.2215,0.0,-5.523,-5.435,0.0,0.0,0.0,0.0,0.0,0.0,0.0,0.0,0.0,0.0,0.0,0.0,0.0,0.0,0.0,0.0,0.0,0.0,0.0,0.0,0.0,0.0,-5.2708,-5.2034,-5.2539,-5.3315,-5.3753,-5.2369,-5.0608,-4.9018,-4.7767,-4.6591,0.0,0.0,0.0,0.0,0.0,0.0,-4.4227,-4.6223,-4.8332,-5.0558,-5.1597,-5.2371,-5.3213,-5.3111,-5.1964,-4.9618,-4.8331,-4.6976,-4.5324,-4.2448,0.0,0.0,0.0,0.0,0.0,0.0,0.0,0.0,0.0,0.0,0.0,0.0,0.0,0.0,0.0,0.0,0.0,0.0,0.0,0.0,0.0,0.0,0.0,0.0,0.0,0.0,0.0,0.0,0.0,-4.8279,-4.9342,-4.8106,-4.8704,-4.8528,0.0,0.0,0.0,0.0,0.0,0.0,0.0,0.0,0.0,-5.4854,-5.5869,-5.7122,-5.8818,-6.034,-6.1295,-6.177,-6.2961,-6.3833,-6.4383,-6.4714,-6.5118,-6.5595,-6.5962,-6.4501,-6.1646,-5.8981,-5.6563,-5.4317,0.0,0.0,0.0,0.0,-5.0558,-5.0363,-5.1662,-5.1261,-5.0304,-5.0608,0.0,0.0,0.0,0.0,0.0,0.0,0.0,-5.0744,-5.1352,-5.2807,-5.4228,-5.4735,-5.5412,-5.5953,-5.5852,-5.4735,-5.3044,-5.071,-4.939,-4.8274,-4.7158,-4.5648,0.0,0.0,0.0,-4.4848,-4.5644,-4.768,-4.9584,-5.1051,-5.2266,-5.3112,-5.3484,-5.3518,-5.2639,-5.0615,-5.0026,-4.8531,-4.5837,-4.449,-4.3277,0.0,0.0,0.0,0.0,0.0,0.0,0.0,0.0,0.0,0.0,0.0,0.0,0.0,0.0,0.0,0.0,0.0,0.0,0.0,0.0,0.0,0.0,0.0,0.0,0.0,0.0,0.0,0.0,-4.8925,-4.9833,-4.8004,-4.9641,-4.9927,0.0,0.0,0.0,0.0,0.0,0.0,-5.462,-5.5133,-5.6786,-5.9917,-6.1272,-6.2786,-6.4475,-6.4835,-6.5411,-6.6219,-6.5595,-6.5962,-6.7136,-6.732,-6.765,-6.8017,-6.8017,-6.754,-6.6512,-6.2842,-6.0103,-5.8006,-5.5741,-5.4288,-5.3396,-5.372,-5.3155,-5.2536,-5.45,-5.3679,-5.186,-5.2232,-5.1589,-5.0304,-4.8477,0.0,0.0,0.0,0.0,-5.1386,-5.3281,-5.4465,-5.5446,-5.6528,-5.734,-5.7746,-5.7205,-5.6359,-5.4938,-5.23,-5.1048,-4.9898,-4.8443,-4.7124,0.0,-4.5771,-4.6041,-4.6481,-4.7022,-4.9018,-5.0676,-5.142,-5.2706,-5.3518,-5.3518,-5.3518,-5.2943,-5.1655,-5.153,-5.0158,-4.7237,-4.6523,-4.5069,-4.2548,0.0,0.0,0.0,0.0,0.0,0.0,0.0,0.0,0.0,0.0,0.0,0.0,0.0,0.0,0.0,0.0,0.0,0.0,0.0,0.0,0.0,0.0,0.0,0.0,0.0,0.0,0.0,0.0,0.0,-5.1373,-5.4306,0.0,0.0,0.0,0.0,-5.2936,-5.4399,-5.6345,-5.8804,-6.0346,-6.2328,-6.4846,-6.5778,-6.699,-6.8587,-6.7871,-6.7907,-6.8715,-6.8678,-6.8715,-6.8825,-6.9559,-6.9522,-6.8862,-6.8862,-6.8385,-6.743,-6.4934,-6.2915,-6.1178,-5.9564,-5.795,-5.6667,-5.7391,-5.6711,-5.5504,-5.648,-5.532,-5.3619,-5.504,-5.3991,-5.2029,-5.1217,-5.0507,0.0,0.0,-5.2198,-5.3518,-5.4329,-5.5615,-5.6697,-5.6799,-5.734,-5.7881,-5.7848,-5.6697,-5.5243,-5.3687,-5.2198,-5.071,-4.9221,0.0,-4.7327,-4.5906,-4.6887,-4.7834,-4.7868,-4.9796,-5.1454,-5.2164,-5.301,-5.3518,-5.3518,-5.3518,-5.3484,-5.3382,-5.2672,-5.2132,-5.1931,-4.8319,-4.65,-4.6973,-4.2609,0.0,0.0,0.0,0.0,0.0,0.0,0.0,0.0,0.0,0.0,0.0,0.0,0.0,0.0,0.0,0.0,0.0,0.0,0.0,0.0,0.0,0.0,0.0,0.0,0.0,0.0,0.0,0.0,-5.5137,-5.7724,0.0,-5.6651,-5.742,-5.8179,-5.8584,-6.0639,-6.2915,-6.5301,-6.6476,-6.7944,-6.9889,-7.022,-7.066,-7.1211,-7.044,-6.9889,-6.9669,-6.9669,-6.9905,-7.0249,-7.0146,-7.0458,-7.0953,-6.952,-6.8752,-6.8385,-6.699,-6.5154,-6.3099,-6.1961,-6.0529,-5.9171,-5.9428,-5.8223,-5.6644,-5.7954,-5.6252,-5.3518,-5.3518,-5.2638,-5.1555,-5.1285,-5.1352,-5.1555,-5.1826,-5.301,-5.4363,-5.5108,-5.6055,-5.6934,-5.7408,-5.7712,-5.7881,-5.7881,-5.6731,-5.5547,-5.504,-5.3315,-5.1589,-5.0608,-4.9424,-4.8274,-4.7293,-4.7564,-4.8071,-4.8545,-5.0135,-5.1488,-5.2232,-5.301,-5.3518,-5.3518,-5.3518,-5.3281,-5.2773,-5.2469,-5.186,-5.0913,-4.8928,-4.6835,-4.4709,-4.249,-4.1115,0.0,0.0,0.0,0.0,0.0,0.0,0.0,0.0,0.0,0.0,0.0,0.0,0.0,0.0,0.0,0.0,0.0,0.0,0.0,0.0,0.0,0.0,0.0,0.0,0.0,-5.5544,-5.8213,-5.8219,-6.1228,-6.2695,-6.1006,-6.2548,-6.3906,-6.442,-6.6476,-6.8568,-7.044,-7.1284,-7.2092,-7.2899,-7.3091,-7.3112,-7.2816,-7.2183,-7.1635,-7.1079,-7.1079,-7.133,-7.1678,-7.1578,-7.174,-7.2014,-7.0834,-6.9702,-6.8757,-6.8498,-6.6883,-6.4457,-6.387,-6.2475,-6.086,-6.1117,-5.9707,-5.7718,-5.7919,-5.6188,-5.3754,-5.2976,-5.2367,-5.2027,-5.2252,-5.2686,-5.3195,-5.369,-5.4384,-5.5177,-5.586,-5.6231,-5.663,-5.734,-5.7509,-5.7577,-5.7848,-5.6731,-5.5716,-5.5716,-5.4093,-5.2401,-5.1386,-5.0608,-4.9796,-4.8815,-4.8849,-4.9289,-5.0033,-5.098,-5.186,-5.2638,-5.3179,-5.3518,-5.3518,-5.3179,-5.2604,-5.19,-5.1564,-5.0727,-4.926,-4.8362,-4.6568,-4.3817,-4.1907,-4.0395,-3.908,0.0,0.0,0.0,0.0,0.0,0.0,0.0,0.0,0.0,0.0,0.0,0.0,0.0,0.0,0.0,0.0,0.0,0.0,0.0,0.0,0.0,0.0,0.0,-5.6217,-5.8189,-6.0008,-6.0845,-6.5053,-6.7006,-6.464,-6.7944,-7.0257,-7.0312,-7.1782,-7.2994,-7.3765,-7.4574,-7.4647,-7.3839,-7.4381,-7.4211,-7.3479,-7.3199,-7.301,-7.2973,-7.301,-7.3053,-7.3053,-7.3878,-7.3388,-7.1958,-7.2675,-7.1313,-6.8623,-6.9453,-6.7988,-6.5301,-6.5301,-6.3796,-6.1704,-6.2425,-6.1172,-5.8783,-5.644,-5.5175,-5.4465,-5.3754,-5.3518,-5.3685,-5.4356,-5.4606,-5.493,-5.6447,-5.63,-5.5888,-5.6616,-5.6268,-5.5886,-5.6667,-5.6765,-5.7002,-5.7712,-5.6731,-5.5716,-5.5716,-5.4532,-5.3044,-5.1522,-5.1826,-5.1792,-5.0338,-5.0744,0.0,-5.2198,-5.23,-5.2604,-5.345,-5.3518,-5.3518,-5.3551,-5.2557,-5.163,-5.0909,-5.0146,-4.9006,-4.7484,-4.6635,-4.5786,-4.4837,-4.1286,-3.8512,-3.6567,0.0,0.0,0.0,0.0,0.0,0.0,0.0,0.0,0.0,0.0,0.0,0.0,0.0,0.0,0.0,0.0,0.0,0.0,0.0,0.0,0.0,-5.7555,-5.9907,-5.9651,-6.3427,-6.6819,-6.8462,-7.1029,-7.2479,-7.2002,-7.2936,-7.3754,-7.4285,-7.5251,-7.6096,-7.6755,-7.698,-7.7017,-7.6841,-7.5822,-7.5116,-7.4899,-7.4243,-7.3614,-7.301,-7.3614,-7.3825,-7.3649,-7.4127,-7.4241,-7.4106,-7.2765,-7.1463,-7.0225,-6.9256,-6.742,-6.5301,-6.5301,-6.3796,-6.1545,-6.1272,-5.9581,-5.7219,-5.4906,-5.4329,-5.4465,-5.3754,-5.3881,-5.4328,-5.4544,-5.4999,-5.5472,-5.5914,-5.6258,-5.6575,-5.6821,-5.6697,-5.657,-5.6776,-5.6815,-5.6867,-5.707,-5.6359,-5.5716,-5.5716,-5.4532,-5.3179,-5.2164,-5.2164,-5.1995,-5.1048,-5.1082,-5.1488,-5.2198,-5.23,-5.2807,-5.416,-5.3822,-5.3721,-5.4262,-5.3045,-5.1631,-5.0421,-4.9584,-4.8782,-4.7791,-4.6946,-4.523,-4.2723,-4.1657,-4.0233,0.0,0.0,0.0,0.0,0.0,0.0,0.0,0.0,0.0,0.0,0.0,0.0,0.0,0.0,0.0,0.0,0.0,0.0,0.0,0.0,0.0,0.0,-6.2059,-6.5076,-6.6062,-6.8667,-7.1218,-7.3416,-7.5058,-7.6082,-7.6191,-7.651,-7.6856,-7.723,-7.7729,-7.8102,-7.8481,-7.8481,-7.8142,-7.7463,-7.6738,-7.6032,-7.5352,-7.5133,-7.4752,-7.4257,-7.479,-7.4936,-7.479,-7.4974,-7.4783,-7.4375,-7.3193,-7.1769,-7.0188,-6.9024,-6.7283,-6.5301,0.0,0.0,0.0,0.0,-5.893,-5.6641,-5.4991,-5.4493,-5.4493,-5.4083,-5.4419,-5.5084,-5.5472,-5.5872,-5.6259,-5.658,-5.649,-5.6361,-5.6396,-5.5889,-5.5547,-5.6198,-5.6336,-5.6528,-5.7137,-5.6697,-5.6089,-5.5784,-5.4769,0.0,-5.2942,-5.2807,-5.2536,-5.1792,-5.1961,-5.2334,-5.2739,-5.2807,-5.3145,-5.4025,-5.3754,-5.3687,-5.4093,-5.2908,0.0,0.0,0.0,-4.8092,-4.6411,-4.504,0.0,0.0,0.0,-3.993,-3.8317,-3.9354,0.0,0.0,-3.8967,-4.0928,0.0,0.0,0.0,0.0,0.0,0.0,0.0,0.0,0.0,0.0,0.0,0.0,0.0,0.0,0.0,0.0,-6.7226,-7.1314,-7.3716,-7.368,-7.4211,-7.6425,-7.7593,-7.8195,-7.8149,-7.8783,-7.9244,-7.929,-7.929,-7.9335,-7.9425,-7.9349,0.0,0.0,0.0,-7.6957,-7.5389,-7.5871,-7.6092,-7.6015,-7.6015,-7.6015,-7.6015,-7.5899,-7.5053,-7.364,-7.3686,-7.2052,-6.9272,-6.8765,-6.7147,-6.5007,-6.4824,-6.3745,-6.2091,-6.0557,-5.8642,-5.6657,-5.5951,0.0,0.0,-5.4695,-5.5203,-5.5948,-5.6668,-5.6964,-5.7116,-5.7726,-5.6927,-5.5836,-5.5724,-5.4668,-5.3957,-5.5381,-5.5719,-5.6089,-5.7476,-5.7273,-5.6596,-5.5953,-5.5243,-5.4532,-5.3856,-5.3619,-5.3281,-5.2536,-5.3044,-5.3518,-5.3518,-5.3518,-5.3551,-5.3619,-5.3551,0.0,-5.3619,-5.2594,-5.1371,-5.0052,-4.9057,-4.727,-4.4413,-4.2705,-4.1099,-3.9649,-3.9691,-3.8847,-3.7105,-3.7134,-3.6664,-3.6003,-4.0442,-4.2576,0.0,0.0,0.0,0.0,0.0,0.0,0.0,0.0,0.0,0.0,0.0,0.0,0.0,0.0,0.0,-6.7889,-7.143,-7.4639,-7.7169,-7.8031,-7.8415,-7.8408,-7.917,-7.9499,-7.9018,-7.9085,-7.9425,-7.9888,-7.9929,-8.0163,-8.0716,-8.0064,-7.9527,-7.922,-7.8628,-7.7854,-7.6855,-7.6985,-7.6707,-7.6015,-7.6015,0.0,-7.5976,-7.5284,-7.4784,-7.4399,-7.3082,-7.1341,-6.9315,-6.8515,-6.6262,-6.3172,-6.1851,-6.0418,-5.8891,-5.7939,-5.6868,-5.5936,-5.5764,-5.5601,-5.5495,-5.5495,-5.6004,-5.6668,-5.6861,-5.7302,0.0,-5.7252,-5.6912,-5.651,-5.5893,-5.5059,-5.4598,-5.5529,-5.5689,-5.5953,-5.6833,-5.69,-5.6765,-5.663,-5.5987,-5.5446,-5.531,-5.4296,-5.345,-5.3281,-5.3416,-5.3518,-5.3518,-5.3518,-5.3721,-5.4329,-5.3856,-5.3754,-5.4329,-5.3079,-5.1832,-5.0991,-4.8962,-4.7172,-4.5859,-4.4897,-4.3314,-4.11,-4.1511,-4.0891,-3.8914,-3.8929,-3.8793,-3.8643,-3.7515,-3.8115,0.0,0.0,0.0,0.0,0.0,0.0,0.0,0.0,0.0,0.0,0.0,-6.2106,-6.3669,0.0,-6.9871,-7.2765,-7.5322,-7.7545,-7.9199,-8.0123,-8.0453,-8.0068,-8.0378,-8.0463,-8.0201,-8.0163,-8.0277,-8.0573,-8.0608,-8.075,-8.1093,-8.0285,-7.9823,-7.9823,-7.8554,-7.7707,-7.7284,-7.6861,-7.6438,-7.6015,-7.6015,-7.5784,-7.5322,-7.4899,-7.4245,-7.3332,-7.1587,-7.0001,-6.8596,-6.6363,-6.3688,-6.0933,-6.0126,-5.9347,-5.8614,-5.8214,-5.7289,-5.6313,-5.6313,-5.6313,-5.6313,-5.6313,-5.6825,-5.7449,-5.7449,-5.7449,-5.7351,-5.7015,-5.6313,-5.5645,-5.5262,-5.4884,-5.4795,-5.5482,-5.5961,-5.6461,-5.7171,-5.734,-5.7239,-5.6867,-5.6494,-5.6156,-5.5784,-5.5108,-5.46,-5.46,-5.4296,-5.4059,-5.4059,-5.3721,-5.3653,-5.4025,-5.3721,-5.3653,-5.4025,-5.2976,-5.2131,-5.1792,-4.9826,-4.7991,-4.6276,-4.5429,-4.3727,-4.1129,-4.1384,-4.1189,-4.041,-4.0406,-4.0731,-4.1281,-4.0041,-4.0088,0.0,0.0,0.0,0.0,0.0,0.0,0.0,-5.8867,-6.0195,-6.2187,-6.5039,-6.7808,-6.9887,-7.2337,-7.4823,-7.6996,-7.867,-7.9957,-8.0806,-8.1358,-8.1658,-8.1508,-8.1246,-8.1093,-8.1093,-8.1093,-8.1093,-8.1093,-8.1093,-8.1016,-8.0862,-8.0169,-7.9669,-7.9323,-7.8169,-7.7361,-7.7053,-7.6361,-7.5938,-7.5745,-7.5592,-7.5168,-7.4476,-7.4284,-7.3399,-7.1832,-6.9469,-6.8032,-6.7122,-6.3567,-6.097,-5.9208,-5.9061,-5.8988,-5.8988,-5.8988,-5.8178,-5.7116,-5.7116,-5.7116,-5.7116,-5.7116,-5.7498,-5.7997,-5.7821,-5.7351,-5.6861,-5.6563,-5.5588,-5.4606,-5.4419,-5.439,-5.46,-5.5513,-5.6156,-5.6833,-5.7712,-5.7881,-5.7712,-5.7137,-5.7002,-5.6833,-5.6258,-5.6156,-5.6055,-5.575,-5.5209,-5.4769,-5.46,-5.4093,-5.3653,-5.3518,-5.3518,-5.3518,-5.3518,-5.2909,-5.2536,-5.2536,-5.0792,-4.8944,-4.7077,-4.5646,-4.3789,-4.152,-4.1262,-4.1424,-4.1763,-4.1763,-4.2287,-4.3329,-4.3329,-4.3289,-5.5335,-5.4914,-5.5937,-5.8906,-5.9297,-6.0508,0.0,-6.6875,-6.6797,-7.0039,-7.2226,-7.3828,-7.4686,-7.6946,-7.8942,-7.9827,-8.0776,-8.1731,-8.2604,-8.2742,-8.2823,-8.2794,-8.1816,-8.1093,-8.1093,-8.1093,-8.1093,-8.1093,-8.1093,-8.0746,-7.9977,-7.9862,-7.9131,-7.763,-7.8092,-7.763,-7.6169,-7.6053,-7.563,-7.4861,-7.413,-7.3745,-7.363,-7.2822,-7.1975,-7.0832,-6.6733,-6.4898,-6.4558,-6.1048,-5.9465,-5.9134,-5.84,-5.8143,-5.8143,-5.8143,-5.8024,-5.7904,-5.7904,-5.7904,-5.7904,-5.7904,-5.795,-5.7904,-5.7252,-5.6964,-5.6616,-5.5238,-5.4695,-5.4419,-5.3783,-5.3619,-5.3991,-5.5378,-5.5784,-5.6224,-5.7577,-5.7881,-5.7881,-5.778,-5.778,-5.7746,-5.7645,-5.7645,-5.7205,-5.5919,-5.5649,-5.5344,-5.4668,-5.4532,-5.4228,-5.3585,-5.3518,-5.3518,-5.3518,-5.3416,-5.3382,-5.3382,-5.1125,-4.9681,-4.9447,-4.6443,-4.4644,-4.4308,-4.3421,-4.3011,-4.3071,-4.3071,-4.313,-4.3329,-4.3329,-4.3299,-5.8581,-5.849,-5.914,-6.1685,-6.3193,-6.4987,-6.8366,-6.9731,-7.1012,-7.3552,-7.5859,-7.7656,-7.8594,-8.0039,-8.117,-8.1446,-8.2254,-8.2918,-8.3308,-8.327,-8.3155,-8.3171,-8.2149,-8.1412,-8.1308,-8.1246,-8.1208,-8.1093,-8.0631,-8.0169,-7.9823,-7.89,-7.8246,-7.8015,-7.7361,-7.6707,-7.6015,-7.5515,-7.4822,-7.4014,-7.3168,-7.2476,-7.1975,-7.1129,-6.9557,-6.7408,-6.53,-6.3389,-6.1646,-5.9907,-5.9062,-5.8857,-5.8566,-5.8418,-5.8375,-5.8097,-5.7997,-5.7997,-5.7997,-5.7997,-5.7997,-5.7997,-5.7726,-5.7302,-5.6964,-5.6259,-5.5414,-5.4757,-5.4264,-5.3881,-5.3551,-5.3822,-5.4397,-5.548,-5.6405,-5.7158,-5.7789,-5.8246,-5.8424,-5.8027,-5.7881,-5.7881,-5.7881,-5.7881,-5.7679,-5.707,-5.663,-5.6224,-5.5919,-5.5108,-5.4329,-5.3585,-5.3518,-5.3518,-5.3518,-5.3518,-5.3518,-5.3518,-5.2539,-5.1217,-4.9628,-4.8243,-4.6358,-4.3935,-4.3539,-4.3319,-4.3329,-4.3329,-4.3329,-4.3329,-4.3329,-4.3329,-6.0242,-6.0958,-6.1973,-6.4482,-6.7076,-6.9343,-7.07,-7.2619,-7.4649,-7.6536,-7.8383,-7.9977,-8.0992,-8.1695,-8.2132,-8.2226,-8.2734,-8.3242,-8.3554,-8.3465,-8.3311,-8.3031,-8.2144,-8.131,-8.0886,-8.1214,-8.1323,-8.0939,-8.0323,-7.9785,-7.9285,-7.8092,-7.7476,-7.7515,-7.6361,-7.5592,-7.5322,-7.4207,-7.336,-7.2783,-7.1668,-7.0821,-7.0167,-6.9129,-6.7418,-6.5253,-6.4078,-6.2331,-6.0265,-5.9552,-5.9107,-5.8913,-5.8913,-5.8796,-5.8673,-5.8326,-5.8097,-5.7997,-5.7774,-5.7679,-5.7679,-5.7413,-5.6978,-5.6563,-5.6349,-5.5472,-5.4544,-5.4391,-5.3881,-5.3518,-5.3518,-5.389,-5.4601,-5.5792,-5.6713,-5.7534,-5.8112,-5.8494,-5.8633,-5.7993,-5.7881,-5.7881,-5.7881,-5.7881,-5.7881,-5.7881,-5.7442,-5.7036,-5.6833,-5.5683,-5.4634,-5.389,-5.3788,-5.3721,-5.3518,-5.3518,-5.3518,-5.3518,-5.301,-5.1851,-4.9863,-4.9042,-4.7278,-4.4298,-4.3796,-4.3567,-4.3599,-4.3419,-4.3329,-4.3329,-4.3329,-4.3329,-5.9088,-6.0873,-6.3257,-6.7449,-7.0497,-7.3176,-7.5703,-7.6985,-7.816,-7.9892,-8.0329,-8.0645,-8.1501,-8.1695,-8.1777,-8.1989,-8.2031,-8.2422,-8.3437,-8.3593,-8.3281,-8.2421,-8.1558,-8.0614,-7.9548,-8.0821,-8.1323,-8.0484,-8.0407,-7.9638,-7.7977,-7.7823,-7.6976,-7.5159,-7.5082,-7.4553,-7.3591,-7.186,-7.1014,-7.0975,-6.9321,-6.8513,-6.8436,-6.6782,-6.5974,-6.5718,-6.2758,-6.1438,-6.1225,-5.9938,-5.9392,-5.9389,-5.9389,-5.9102,-5.8713,-5.8713,-5.8375,-5.7904,-5.7166,-5.6912,-5.6773,-5.6004,-5.578,-5.561,-5.4878,-5.4668,-5.4419,-5.3717,-5.3518,-5.3518,-5.3518,-5.3518,-5.4058,-5.6318,-5.6302,-5.6369,-5.8632,-5.8424,-5.7954,-5.7881,-5.7881,-5.7881,-5.7881,-5.7881,-5.7881,-5.7881,-5.7881,-5.7611,-5.69,-5.6156,-5.5378,-5.4634,-5.4566,-5.4262,-5.3551,-5.3518,-5.3518,-5.3518,-5.1858,-5.0834,-5.073,-4.8219,-4.6717,-4.6576,-4.5042,-4.4287,-4.4287,-4.3658,-4.3329,-4.3329,-4.3329,-4.3329,-6.0226,-6.3092,-6.6513,-7.0783,-7.337,-7.5417,-7.7408,-7.8946,-7.9862,-7.94,-7.8436,-7.765,-7.7543,-7.751,-7.7766,-7.8512,-8.0514,-8.2383,-8.3437,-8.3594,-8.3281,-8.2383,-8.1511,-8.0626,-7.9689,-7.9439,-7.9377,-7.9543,-7.8998,-7.8184,-7.7059,-7.6438,-7.5605,-7.4364,-7.3702,-7.2888,-7.1975,-7.0744,-6.9821,-6.9244,-6.809,-6.6667,-6.5013,-6.5051,-6.4436,-6.332,-6.1983,-6.1086,-6.0455,-5.9706,-5.9559,-5.9855,-5.9526,-5.9284,-5.9065,-5.8275,-5.7647,-5.7216,-5.6964,-5.6563,-5.6059,-5.578,-5.5379,-5.4939,-5.4634,-5.4264,-5.3849,-5.3551,-5.3518,-5.3618,-5.4106,-5.4643,-5.5455,-5.7246,-5.7876,-5.8288,-5.897,-5.8875,-5.8564,-5.8027,-5.7881,-5.7881,-5.7881,-5.7881,-5.7881,-5.7881,-5.7881,-5.7611,-5.69,-5.6596,-5.6156,-5.5412,-5.5344,-5.504,-5.4296,-5.4228,-5.3717,-5.2487,-5.1834,-5.0945,-4.955,-4.8542,-4.7538,-4.6433,-4.592,-4.5424,-4.4975,-4.4317,-4.3758,-4.3278,-4.3339,-4.3329,-6.2085,-6.5334,-6.8852,-7.3165,-7.5403,-7.7029,-7.8717,-7.9883,-8.0285,-7.8968,-7.7121,-7.5533,-7.4868,-7.4284,-7.4243,-7.525,-7.7332,-7.947,-8.1482,-8.1797,-8.1797,-8.1836,-8.1054,-8.0195,-7.9336,-7.8086,-7.7608,-7.836,-7.8184,-7.7404,-7.5952,-7.565,-7.48,-7.3236,-7.2521,-7.1525,-7.0271,-6.8975,-6.7744,-6.659,-6.6013,-6.4897,-6.332,-6.3589,-6.3128,-6.2089,-6.144,-6.0901,-6.0338,-6.0006,-5.9977,-6.0074,-5.9792,-5.9282,-5.8686,-5.7899,-5.6949,-5.6095,-5.6095,-5.5724,-5.5262,-5.4999,-5.4606,-5.42,-5.42,-5.3881,-5.3551,-5.3849,-5.4086,-5.4449,-5.4887,-5.5828,-5.686,-5.7871,-5.8517,-5.8885,-5.9071,-5.8875,-5.8494,-5.8027,-5.7881,-5.7881,-5.7881,-5.7881,-5.7881,-5.7881,-5.7881,-5.7712,-5.7239,-5.7171,-5.69,-5.619,-5.6089,-5.5784,-5.5074,-5.4424,-5.3494,-5.2389,-5.1359,-5.0211,-4.8841,-4.8429,-4.7806,-4.6681,-4.6441,-4.6112,-4.5663,-4.4766,-4.4116,-4.3686,-4.3758,-4.3599,-6.4481,-6.7457,-7.0399,-7.4513,-7.6569,-7.8027,-7.9628,-7.9807,-7.93,-7.8369,-7.6101,-7.4024,-7.3168,-7.1842,-7.1314,-7.24,-7.2954,-7.4494,-7.8106,-7.8632,-7.9257,-8.0781,-8.0234,-7.9414,-7.8594,-7.6992,-7.6328,-7.6992,-7.7812,-7.7226,-7.4726,-7.5312,-7.4471,-7.1731,-7.1368,-7.036,-6.8527,-6.6692,-6.4936,-6.3243,-6.3281,-6.3281,-6.3166,-6.2435,-6.2089,-6.1973,-6.1166,-6.0781,-6.0781,-6.0757,-6.0508,-6.0103,-6.0006,-5.9025,-5.7629,-5.7454,-5.6259,-5.4572,-5.4544,-5.4544,-5.4419,-5.3717,-5.3518,-5.3518,-5.3518,-5.3518,-5.3717,-5.4356,-5.5189,-5.5819,-5.5729,-5.695,-5.8155,-5.8155,-5.8086,-5.8245,-5.8972,-5.8424,-5.7881,-5.7881,-5.7881,-5.7881,-5.7881,-5.7881,-5.7881,-5.7881,-5.7881,-5.7881,-5.7881,-5.7881,-5.7611,-5.6934,-5.6867,-5.6562,-5.5818,-5.4089,-5.3008,-5.2902,-5.0358,-4.8759,-4.8759,-4.7849,-4.7309,-4.7309,-4.6681,-4.6381,-4.6381,-4.5065,-4.4407,-4.4436,-4.4608,-4.4278,-6.6143,-6.9353,-7.2741,-7.5689,-7.6236,-7.6516,-7.8182,-7.759,-7.6159,-7.4472,-7.1101,-6.7944,-6.623,-6.6641,-6.7782,-6.9473,-7.3502,-7.7253,-7.9598,-8.0452,-8.0874,-8.078,-8.0586,-7.9922,-7.8633,-7.8086,-7.7109,-7.539,-7.5469,-7.5312,-7.4648,-7.3594,-7.2362,-7.1003,-6.8837,-6.7448,-6.6973,-6.496,-6.3435,-6.2397,-6.3012,-6.2666,-6.1435,-6.1897,-6.1743,-6.1127,-6.0896,-6.0781,-6.0757,-6.0391,-6.0189,-5.9977,-5.8727,-5.7993,-5.7408,-5.5917,-5.5049,-5.4544,-5.4011,-5.3783,-5.3783,-5.3551,-5.3518,-5.3518,-5.3518,-5.3881,-5.4391,-5.4544,-5.5139,-5.5857,-5.6438,-5.7326,-5.8272,-5.8785,-5.8844,-5.8868,-5.9076,-5.8424,-5.7881,-5.7881,-5.7881,-5.7881,-5.7881,-5.7881,-5.7881,-5.7881,-5.7881,-5.7881,-5.7881,-5.7881,-5.7814,-5.7645,-5.7611,-5.7306,-5.6596,-5.4855,-5.3236,-5.1997,-4.9993,-4.8429,-4.7679,-4.7452,-4.7309,-4.7309,-4.713,-4.707,-4.704,-4.6202,-4.5813,-4.5813,-4.5334,-4.5177,-6.7914,-7.0599,-7.3193,-7.4947,-7.4971,-7.461,-7.4882,-7.3904,-7.2198,-6.9623,-6.645,-6.3703,-6.2207,-6.2938,-6.447,-6.6643,-7.0815,-7.4934,-7.827,-7.9454,-8.0145,-8.0532,-8.0553,-7.9972,-7.8515,-7.7599,-7.6419,-7.4726,-7.4961,-7.4492,-7.2969,-7.2305,-7.1073,-6.9095,-6.7319,-6.5778,-6.4523,-6.3383,-6.2358,-6.1512,-6.1973,-6.1704,-6.0819,-6.132,-6.1243,-6.0781,-6.0781,-6.0671,-6.0482,-6.0189,-5.9684,-5.8878,-5.7993,-5.7073,-5.6152,-5.4989,-5.4391,-5.4042,-5.3685,-5.3518,-5.3518,-5.3518,-5.3518,-5.3551,-5.3881,-5.4264,-5.4757,-5.5414,-5.6141,-5.6922,-5.771,-5.8519,-5.9116,-5.9173,-5.917,-5.8976,-5.8633,-5.8209,-5.7881,-5.7881,-5.7881,-5.7881,-5.7881,-5.7881,-5.7881,-5.7881,-5.7881,-5.7881,-5.7881,-5.8186,-5.8254,-5.7915,-5.8186,-5.8084,-5.734,-5.5213,-5.348,-5.2461,-4.9968,-4.8359,-4.7728,-4.7459,-4.7309,-4.7309,-4.7309,-4.7309,-4.7309,-4.6651,-4.6322,-4.6322,-4.5933,-4.5747,-6.9633,-7.1358,-7.2679,-7.3487,-7.3295,-7.2596,-7.1032,-6.9634,-6.7766,-6.4633,-6.226,-6.0599,-5.9827,-6.0316,-6.168,-6.4334,-6.717,-7.0784,-7.5818,-7.7232,-7.83,-7.9854,-8.0019,-7.9455,-7.8015,-7.6196,-7.4878,-7.431,-7.4724,-7.375,-7.0859,-7.1094,-6.9784,-6.6435,-6.6063,-6.4627,-6.1959,-6.1935,-6.155,-6.0781,-6.0819,-6.0819,-6.0781,-6.0819,-6.0819,-6.0781,-6.0734,-6.0482,-6.0103,-5.9847,-5.8915,-5.7547,-5.7313,-5.6152,-5.4606,-5.4482,-5.4106,-5.3685,-5.3685,-5.3717,-5.3783,-5.3685,-5.3685,-5.3783,-5.4544,-5.4818,-5.5179,-5.651,-5.7469,-5.8268,-5.9029,-5.9641,-5.9937,-5.9313,-5.908,-5.8737,-5.8065,-5.7881,-5.7915,-5.8017,-5.7949,-5.7881,-5.7881,-5.7881,-5.7881,-5.7881,-5.7881,-5.7881,-5.7881,-5.8457,-5.8626,-5.7949,-5.8457,-5.8592,-5.7949,-5.5234,-5.3582,-5.3486,-5.0266,-4.8237,-4.8147,-4.7608,-4.7309,-4.7309,-4.7309,-4.7309,-4.7309,-4.6741,-4.6441,-4.6441,-4.6441,-4.6142,-7.0624,-7.1798,-7.2679,-7.3487,-7.2169,-7.044,-6.9483,-6.6529,-6.3336,-6.1181,-5.9101,-5.7548,-5.7139,-5.8552,-6.0819,-6.4103,-6.741,-7.1074,-7.5485,-7.6831,-7.7553,-7.8015,-7.8083,-7.7563,-7.6171,-7.4977,-7.3799,-7.2551,-7.1144,-7.0469,-7.0703,-6.8867,-6.6426,-6.3453,-6.33,-6.2557,-6.105,-6.1012,-6.0935,-6.0781,-6.0896,-6.0896,-6.0781,-6.0896,-6.0896,-6.0781,-6.0365,-6.0161,-6.0006,-5.8611,-5.7862,-5.7408,-5.575,-5.4904,-5.4544,-5.3946,-5.4011,-5.4419,-5.4419,-5.4818,-5.5203,-5.4606,-5.4419,-5.4544,-5.5262,-5.5948,-5.6563,-5.6809,-5.746,-5.8187,-5.8977,-5.8842,-5.8568,-5.9087,-5.8657,-5.8065,-5.7954,-5.7881,-5.8084,-5.8693,-5.8321,-5.7881,-5.7881,-5.7881,-5.7881,-5.7881,-5.7881,-5.7881,-5.7881,-5.8017,-5.8017,-5.7915,-5.8017,-5.8017,-5.7915,-5.5234,-5.3358,-5.2781,-4.9989,-4.8027,-4.7489,-4.7369,-4.7309,-4.7309,-4.7309,-4.7309,-4.7309,-4.7189,-4.713,-4.713,-4.713,-4.707,-7.0881,-7.1908,-7.2496,-7.2459,-7.0624,-6.8091,-6.5154,-6.1998,-5.8823,-5.5771,-5.4541,-5.4063,-5.4086,-5.5809,-5.8117,-6.0873,-6.4166,-6.7705,-7.1514,-7.3553,-7.4668,-7.4784,-7.5168,-7.4928,-7.3437,-7.2051,-7.0844,-6.9939,-6.818,-6.7618,-6.8671,-6.6289,-6.4213,-6.2758,-6.2271,-6.1728,-6.105,-6.105,-6.105,-6.105,-6.1151,-6.1048,-6.0925,-6.0971,-6.0786,-6.0391,-6.0189,-5.9823,-5.9319,-5.8483,-5.7794,-5.712,-5.5745,-5.5144,-5.5084,-5.4328,-5.4544,-5.5144,-5.5144,-5.5379,-5.5724,-5.5816,-5.5495,-5.532,-5.6095,-5.6903,-5.7629,-5.7969,-5.864,-5.9333,-5.9721,-5.9219,-5.8694,-5.9096,-5.8806,-5.8457,-5.8457,-5.8457,-5.8592,-5.893,-5.8389,-5.7881,-5.7881,-5.7881,-5.7881,-5.7881,-5.7881,-5.7881,-5.7881,-5.822,-5.8321,-5.7915,-5.8592,-5.8727,-5.7949,-5.5595,-5.3949,-5.3678,-5.0887,-4.9015,-4.8356,-4.7997,-4.7668,-4.7309,-4.7309,-4.7309,-4.7309,-4.7309,-4.7309,-4.7309,-4.7309,-4.7309,-7.0624,-7.1762,-7.2312,-7.1505,-6.9376,-6.6219,-6.1484,-5.829,-5.5244,-5.1573,-5.0972,-5.1323,-5.1895,-5.3404,-5.5377,-5.7889,-6.0512,-6.3551,-6.7321,-6.959,-7.0898,-7.1091,-7.1706,-7.1629,-7.0321,-6.869,-6.7679,-6.7397,-6.5743,-6.5134,-6.6015,-6.4101,-6.2851,-6.2539,-6.1873,-6.1447,-6.1288,-6.1288,-6.1288,-6.1288,-6.1273,-6.1193,-6.098,-6.0894,-6.0583,-6.0103,-5.9885,-5.9389,-5.8713,-5.8429,-5.7767,-5.6809,-5.6004,-5.5724,-5.5667,-5.5024,-5.532,-5.5948,-5.5948,-5.6166,-5.6527,-5.7216,-5.6867,-5.6364,-5.7129,-5.7949,-5.8718,-5.9285,-5.981,-6.0186,-6.0341,-5.9643,-5.8983,-5.9011,-5.8999,-5.9099,-5.9438,-5.937,-5.9302,-5.9471,-5.8896,-5.8321,-5.8152,-5.8118,-5.8118,-5.8118,-5.8118,-5.8186,-5.8355,-5.9032,-5.9201,-5.8457,-5.9268,-5.9336,-5.8017,-5.5889,-5.4525,-5.4365,-5.1778,-4.9883,-4.9105,-4.8566,-4.7967,-4.7309,-4.7309,-4.7309,-4.7309,-4.7309,-4.7309,-4.7309,-4.7309,-4.7309,-6.9779,-7.1321,-7.2312,-7.1505,-6.8935,-6.5521,-6.1337,-5.7409,-5.3885,-5.1316,-5.0528,-5.065,-5.1782,-5.2455,-5.4039,-5.7697,-5.855,-6.0473,-6.5436,-6.632,-6.6744,-6.7475,-6.7628,-6.7475,-6.6922,-6.5808,-6.5307,-6.5596,-6.4003,-6.3119,-6.3359,-6.3125,-6.2578,-6.164,-6.1559,-6.1431,-6.1279,-6.1318,-6.1318,-6.1318,-6.1311,-6.1193,-6.098,-6.0585,-6.0273,-6.0074,-5.9176,-5.8756,-5.8595,-5.7533,-5.7015,-5.6809,-5.6004,-5.5724,-5.5724,-5.561,-5.6059,-5.6809,-5.6809,-5.7724,-5.8871,-5.8956,-5.8492,-5.8011,-5.8775,-5.9553,-6.0176,-6.0272,-5.983,-5.9492,-6.0232,-5.9228,-5.8183,-5.8817,-5.9038,-5.9404,-6.0791,-6.052,-6.0216,-6.096,-6.0452,-5.9674,-5.9032,-5.893,-5.893,-5.893,-5.893,-5.9167,-5.981,-6.0588,-6.0791,-5.9979,-5.9438,-5.8795,-5.7949,-5.5889,-5.4301,-5.3743,-5.1502,-4.9673,-4.8416,-4.8327,-4.7967,-4.7309,-4.7309,-4.7309,-4.7309,-4.7309,-4.7309,-4.7309,-4.7309,-4.7309,-6.721,-6.9119,-7.0146,-6.9339,-6.6329,-6.2622,-5.9061,-5.5133,-5.1683,-4.9701,-4.9157,-4.912,-4.9375,-4.9701,-5.0544,-5.2341,-5.3251,-5.4972,-5.855,-5.9896,-6.1243,-6.3089,-6.382,-6.4359,-6.468,-6.4039,-6.3257,-6.2444,-6.1307,-6.0653,-6.0702,-6.168,-6.2031,-6.164,-6.1601,-6.1598,-6.1525,-6.1458,-6.1427,-6.1427,-6.1341,-6.1041,-6.0559,-6.037,-5.989,-5.9212,-5.8874,-5.8508,-5.8238,-5.7737,-5.7546,-5.7498,-5.6721,-5.6685,-5.7029,-5.658,-5.6876,-5.7546,-5.7546,-5.8275,-5.9208,-5.9208,-5.964,-6.0149,-5.9956,-6.0493,-6.1117,-6.1117,-6.1249,-6.1204,-6.0576,-5.9184,-5.8075,-5.8835,-5.9336,-5.9979,-6.1061,-6.1061,-6.0926,-6.1231,-6.0655,-5.9877,-5.9133,-5.9032,-5.9032,-5.9032,-5.9032,-5.9268,-6.0013,-6.0791,-6.0825,-5.9573,-5.9573,-5.9279,-5.8219,-5.5978,-5.4401,-5.3789,-5.188,-5.0242,-4.8925,-4.8865,-4.8386,-4.7339,-4.7309,-4.7309,-4.7309,-4.7309,-4.7309,-4.7309,-4.7309,-4.7309,-6.3649,-6.6072,-6.765,-6.6843,-6.3723,-6.0126,-5.7116,-5.3335,-4.9958,-4.8306,-4.7755,-4.7537,-4.7396,-4.7754,-4.8258,-4.8805,-5.0013,-5.1659,-5.3818,-5.5357,-5.7011,-5.905,-5.9973,-6.0727,-6.161,-6.1612,-6.1142,-6.0046,-5.9433,-5.9077,-5.906,-6.0206,-6.1022,-6.1328,-6.1295,-6.1361,-6.1634,-6.15,-6.1395,-6.1222,-6.1078,-6.0689,-6.0085,-5.99,-5.94,-5.8713,-5.8549,-5.8326,-5.7997,-5.7997,-5.7997,-5.795,-5.7449,-5.7546,-5.795,-5.7401,-5.7546,-5.8033,-5.8253,-5.8877,-5.9612,-5.9832,-6.086,-6.1851,-6.13,-6.152,-6.1961,-6.1961,-6.2026,-6.177,-6.0397,-5.8943,-5.8118,-5.9099,-5.9708,-6.0385,-6.14,-6.1637,-6.1637,-6.1637,-6.1163,-6.0452,-5.9505,-5.9336,-5.9268,-5.9032,-5.9201,-5.9607,-6.0351,-6.1129,-6.1197,-6.0114,-6.0283,-5.9755,-5.8115,-5.5928,-5.4369,-5.3951,-5.2183,-5.0631,-4.9314,-4.9254,-4.8656,-4.7339,-4.7309,-4.7309,-4.7309,-4.7309,-4.7309,-4.7309,-4.7309,-4.7309,-5.9061,-6.2254,-6.5154,-6.4347,-6.1667,-5.8584,-5.6161,-5.2454,-4.904,-4.7462,-4.6471,-4.6027,-4.6429,-4.7197,-4.7972,-4.8781,-5.025,-5.172,-5.3046,-5.3972,-5.4818,-5.5665,-5.5874,-5.6308,-5.7188,-5.8143,-5.8784,-5.8903,-5.8916,-5.8828,-5.8706,-5.883,-5.9381,-6.039,-6.0274,-6.065,-6.1482,-6.1384,-6.106,-6.0626,-6.0399,-6.0085,-5.9627,-5.8982,-5.8713,-5.8673,-5.8194,-5.7997,-5.7997,-5.7997,-5.7997,-5.7997,-5.7997,-5.7997,-5.7997,-5.7997,-5.7997,-5.8107,-5.8914,-5.9722,-6.0529,-6.13,-6.2144,-6.2805,-6.2805,-6.2805,-6.2805,-6.2805,-6.1659,-6.0211,-5.9311,-5.8494,-5.8254,-5.9742,-6.008,-6.052,-6.2042,-6.2381,-6.2381,-6.2381,-6.2381,-6.1873,-6.0351,-6.008,-5.9844,-5.9133,-5.9641,-6.0385,-6.1197,-6.1907,-6.2381,-6.2347,-6.1704,-6.0158,-5.7456,-5.5586,-5.4369,-5.3951,-5.2183,-5.0631,-4.9314,-4.9254,-4.8656,-4.7339,-4.7309,-4.7309,-4.7309,-4.7309,-4.7309,-4.7309,-4.7309,-4.7309,-5.5995,-5.801,-5.9502,-5.9838,-5.7862,-5.5287,-5.3124,-5.0379,-4.79,-4.6544,-4.6067,-4.5843,-4.5653,-4.6038,-4.6571,-4.7053,-4.7771,-4.8682,-4.9721,-5.1106,-5.2589,-5.4072,-5.6382,-5.7921,-5.8197,-5.7964,-5.7843,-5.7882,-5.7369,-5.7024,-5.6985,-5.6711,-5.7396,-5.9186,-5.9763,-6.0053,-5.9969,-6.0414,-6.0399,-5.9928,-5.9764,-5.9434,-5.8982,-5.8791,-5.8508,-5.8194,-5.751,-5.7498,-5.795,-5.684,-5.6737,-5.7166,-5.6632,-5.6737,-5.7252,-5.7252,-5.7546,-5.8107,-5.8914,-5.9758,-6.0529,-6.1337,-6.2144,-6.2805,-6.2805,-6.2805,-6.2805,-6.2805,-6.1604,-6.0335,-6.0086,-5.9357,-5.8795,-5.9235,-6.0148,-6.0892,-6.0825,-6.1637,-6.2245,-6.1738,-6.2042,-6.1907,-6.0351,-6.0114,-6.0013,-5.981,-5.9539,-6.0013,-6.1806,-6.1806,-6.1637,-6.1637,-6.0705,-5.9614,-5.84,-5.6905,-5.5254,-5.355,-5.2407,-5.1289,-4.9972,-4.9494,-4.8865,-4.7997,-4.7549,-4.7309,-4.7309,-4.7309,-4.7309,-4.7309,-4.7309,-4.7309,-5.2949,-5.4754,-5.5905,-5.6466,-5.4995,-5.2967,-5.1424,-4.9182,-4.7137,-4.6067,-4.5626,-4.5319,-4.5036,-4.5444,-4.5844,-4.5849,-4.6619,-4.7471,-4.8183,-4.9743,-5.1629,-5.3751,-5.6128,-5.761,-5.7712,-5.7477,-5.7203,-5.6961,-5.6321,-5.5902,-5.5879,-5.5434,-5.5931,-5.7526,-5.8431,-5.8936,-5.8947,-5.9635,-5.9726,-5.9248,-5.9178,-5.8913,-5.8461,-5.8461,-5.8113,-5.7546,-5.7065,-5.7015,0.0,-5.6114,-5.6004,-5.6367,-5.5893,-5.6204,-5.6912,-5.6912,-5.7351,-5.8143,-5.9281,-5.9979,-6.0603,-6.1704,-6.2401,-6.2805,-6.2805,-6.2805,-6.2805,-6.2805,-6.1604,-6.0397,-6.0397,-5.9527,-5.866,-5.893,-5.9742,-6.0385,-6.0148,-6.0858,-6.14,-6.0926,-6.1467,-6.1569,-6.0317,-6.0351,-6.0452,-6.0148,-5.9979,-6.0385,-6.1806,-6.1839,-6.1603,-6.1332,-6.0218,-5.9147,-5.8101,-5.6518,-5.494,-5.3338,-5.2336,-5.1349,-5.0301,-4.9853,-4.9224,-4.8297,-4.7878,-4.7549,-4.7309,-4.7309,-4.7309,-4.7309,-4.7309,-4.7309,0.0,-5.2341,-5.3887,-5.3962,-5.2899,-5.1609,-5.0711,-4.8702,0.0,-4.5892,-4.5164,-4.4624,-4.4662,-4.5321,-4.5704,-4.5252,-4.6533,-4.7728,-4.8176,-4.9709,-5.18,-5.4406,-5.5335,-5.5779,-5.5941,-5.6626,-5.6809,-5.6126,-5.5684,-5.5359,-5.5256,-5.4877,-5.4938,-5.5551,-5.6479,-5.7417,-5.8316,-5.8986,-5.9102,-5.8673,-5.8673,-5.8418,-5.7997,-5.807,-5.7704,-5.6984,-5.6984,-5.6528,-5.5794,-5.5667,-5.561,-5.561,-5.5552,-5.6059,-5.6809,-5.6809,-5.7351,-5.8217,-5.9795,-6.0346,-6.0676,-6.2291,-6.2805,-6.2805,-6.2805,-6.2805,-6.2805,-6.2805,-6.1659,-6.0458,-6.0397,-5.9247,-5.8191,-5.8795,-5.9032,-5.9268,-5.981,-6.0047,-6.008,-6.0047,-6.0723,-6.1028,-6.025,-6.0757,-6.1028,-6.0216,-6.0757,-6.1231,-6.1298,-6.1839,-6.2009,-6.1366,-6.0184,-5.8671,-5.6915,-5.5139,-5.3776,-5.3151,-5.2007,-5.105,-5.0331,-5.0272,-4.9643,-4.8386,-4.8267,-4.7908,-4.7309,-4.7309,-4.7309,-4.7309,-4.7309,-4.7309,-4.9894,0.0,-5.0013,-5.068,-5.1047,-5.0801,0.0,-4.8154,-4.7248,-4.5483,-4.4964,-4.4889,-4.5179,-4.5339,-4.5495,-4.5673,-4.6014,-4.655,-4.7342,-5.0024,-5.2608,-5.4475,-5.5653,-5.5815,-5.4473,-5.5377,-5.5739,-5.4941,-5.4799,-5.4705,-5.4692,-5.4265,-5.4055,-5.424,-5.5384,-5.6487,-5.7635,-5.8461,-5.8632,-5.8186,-5.8186,-5.8097,-5.8033,-5.8657,-5.8495,-5.7726,-5.7815,-5.7352,-5.6551,-5.5364,-5.4878,-5.4818,-5.4235,-5.4852,-5.5948,-5.5948,-5.6876,-5.8143,-5.9134,-5.9905,-6.0676,-6.2291,-6.2805,-6.2805,-6.2805,-6.2805,-6.2805,-6.2805,-6.2076,-6.1171,-6.0519,-6.0093,-5.9493,-5.8439,-5.9032,-5.9573,-5.8626,-5.9302,-5.9945,-5.937,-6.0385,-6.1028,-6.025,-6.0757,-6.1028,-6.0216,-6.025,-6.0588,-6.1231,-6.0926,-6.0825,-6.1264,-5.8922,-5.7431,-5.7469,-5.6301,-5.4667,-5.2582,-5.2606,-5.2187,-5.102,-5.0511,-4.9853,-4.9045,-4.8057,-4.7459,-4.7309,-4.7309,-4.7309,-4.7309,-4.7309,-4.7309,-4.9356,-4.923,-4.9195,-4.9683,-5.0147,-5.0109,-4.8585,-4.7927,-4.7187,-4.5663,-4.534,-4.5417,-4.5589,-4.5989,-4.6302,-4.6384,-4.6758,-4.7293,-4.8113,-5.022,-5.2508,-5.4857,-5.5568,-5.5788,-5.5565,-5.564,-5.5352,-5.456,-5.4288,-5.4187,-5.4187,-5.3758,-5.3711,-5.4081,-5.4717,-5.5521,-5.6557,-5.7783,-5.8238,-5.7997,-5.7997,-5.818,-5.8584,-5.9024,-5.875,-5.8067,-5.8067,-5.7223,-5.5774,-5.493,-5.4356,-5.4106,-5.4042,-5.473,-5.578,-5.6114,-5.6978,-5.818,-5.9355,-6.0529,-6.1667,-6.2548,-6.2805,-6.2805,-6.2805,-6.2805,-6.2805,-6.2805,-6.1969,-6.0938,-6.0519,-5.9791,-5.8971,-5.8128,-5.849,-5.8863,-5.8051,-5.8795,-5.9471,-5.9099,-6.025,-6.1163,-6.0723,-6.1298,-6.167,-6.1197,-6.1163,-6.1298,-6.1738,-6.1129,-6.0689,-6.0757,-5.8019,-5.6253,-5.6285,-5.5548,-5.4328,-5.2762,-5.2937,-5.2732,-5.2002,-5.2116,-5.1704,-5.0801,-4.8913,-4.7988,-4.7988,-4.7538,-4.7309,-4.7309,-4.7309,-4.7309,-4.8644,-4.9238,-4.9815,-4.9543,-4.9659,-4.962,-4.86,-4.7782,-4.7003,-4.6123,-4.5967,-4.602,-4.6125,-4.6805,-4.7384,-4.745,-4.836,-4.9326,-5.0091,-5.1013,-5.2587,-5.5203,-5.5415,-5.5788,-5.6816,-5.6084,-5.5153,-5.4364,-5.3943,-5.372,-5.372,-5.34,-5.3518,-5.4216,-5.4326,-5.4803,-5.5574,-5.7079,-5.7886,-5.7997,-5.8107,-5.8547,-5.9208,-5.9355,-5.8981,-5.8248,-5.8244,-5.6989,-5.493,-5.4913,-5.4482,-5.3881,-5.4544,-5.5203,-5.5948,-5.6668,-5.7424,-5.84,-6.0015,-6.1484,-6.2658,-6.2768,-6.2805,-6.2805,-6.2805,-6.2705,-6.2618,-6.2618,-6.1604,-6.0519,-6.0273,-5.9145,-5.8065,-5.7954,-5.7881,-5.7881,-5.7881,-5.849,-5.9032,-5.9032,-6.025,-6.1298,-6.1298,-6.1907,-6.2347,-6.2245,-6.2313,-6.2347,-6.2245,-6.1569,-6.0858,-6.0182,-5.7493,-5.5545,-5.5031,-5.4522,-5.3989,-5.3607,-5.3435,-5.3258,-5.3165,-5.3989,-5.3821,-5.2509,-5.0322,-4.9097,-4.8841,-4.7904,-4.7452,-4.7309,-4.7309,-4.7309,-4.7607,-4.8854,-4.9761,-4.8315,-4.9058,-4.9722,-4.8119,-4.7612,-4.7299,-4.6402,-4.6246,-4.6445,-4.7189,-4.7294,-4.7726,-4.9216,-5.0625,-5.2069,-5.3589,-5.4454,-5.4895,-5.4703,-5.5826,-5.5901,-5.4056,-5.4317,-5.4248,-5.3474,-5.3318,-5.3314,-5.3314,-5.323,-5.3261,-5.3408,-5.4032,-5.4803,-5.5574,-5.6528,-5.7336,-5.7997,-5.8694,-5.9098,-5.9245,-5.9905,-5.9771,-5.9005,-5.9042,-5.8047,-5.6564,-5.6545,-5.6095,-5.5379,-5.5495,-5.6039,-5.6721,-5.6861,-5.7788,-5.9245,-6.086,-6.1594,-6.1887,-6.2585,-6.2805,-6.2805,-6.2805,-6.2324,-6.177,-6.177,-6.1604,-6.1113,-5.9669,-5.9111,-5.8737,-5.8065,-5.7881,-5.7881,-5.7881,-5.849,-5.9032,-5.9032,-6.025,-6.1298,-6.1298,-6.1907,-6.2178,-6.1569,-6.2009,-6.2178,-6.1535,-6.0791,-6.025,-6.0114,-5.7698,-5.6329,-5.6774,-5.5918,-5.5334,-5.5288,-5.5153,-5.4943,-5.4369,-5.393,-5.339,-5.2477,-5.1598,-5.0342,-4.8841,-4.8677,-4.8157,-4.7309,-4.7309,-4.7309,-4.7492,-4.8147,-4.8711,-4.8398,-4.9892,-5.1214,-5.0425,-4.9465,-4.8499,-4.7645,-4.7099,-4.6916,-4.731,-4.8059,-4.9459,-5.2067,-5.2986,-5.349,-5.3815,-5.4528,-5.5088,-5.5126,-5.5798,-5.6182,-5.5918,-5.5391,-5.4693,-5.3922,-5.3849,-5.3849,-5.3849,-5.3849,-5.4069,-5.4473,-5.484,-5.5427,-5.6235,-5.6638,-5.7189,-5.7997,-5.8841,-5.9428,-5.9905,-6.0676,-6.064,-5.9866,-5.9835,-5.8746,-5.6904,-5.6901,-5.6421,-5.578,-5.6204,-5.6867,-5.765,-5.8478,-5.9518,-6.0603,-6.1337,-6.1887,-6.2328,-6.2695,-6.2805,-6.2805,-6.2805,-6.2271,-6.1548,-6.1055,-6.0605,-6.0051,-5.9311,-5.8806,-5.8388,-5.8027,-5.7881,-5.7881,-5.7881,-5.8795,-5.9607,-5.9607,-6.0858,-6.1873,-6.1873,-6.2178,-6.2279,-6.1941,-6.2178,-6.2279,-6.1941,-6.1231,-6.0757,-6.0757,-5.8386,-5.6962,-5.7324,-5.6449,-5.6303,-5.7084,-5.6401,-5.6253,-5.6909,-5.593,-5.517,-5.484,-5.3553,-5.2268,-5.1064,-4.9909,-4.8934,-4.8072,-4.7538,-4.7309,-4.7245,-4.7553,-4.8017,-4.866,-5.0091,-5.1541,-5.2354,-5.0941,-4.9446,-4.9431,-4.8755,-4.8133,-4.8099,-4.9666,-5.1818,-5.4513,-5.5203,-5.5203,-5.4741,-5.5241,-5.5818,-5.6242,-5.6293,-5.671,-5.7767,-5.6506,-5.5317,-5.473,-5.4693,-5.4693,-5.4693,-5.4693,-5.495,-5.5574,-5.5574,-5.5978,-5.6785,-5.6822,-5.7189,-5.7997,-5.8841,-5.9648,-6.0419,-6.1043,-6.108,-6.0676,-6.0493,-5.9249,-5.7456,-5.7456,-5.7113,-5.6563,-5.7216,-5.7927,-5.8776,-5.9932,-6.0786,-6.1337,-6.152,-6.1998,-6.2548,-6.2768,-6.2805,-6.2755,-6.2567,-6.1969,-6.1113,-6.0335,-5.9509,-5.8806,-5.8806,-5.8388,-5.7881,-5.7881,-5.7881,-5.7949,-5.8118,-5.9167,-6.0148,-6.0351,-6.1467,-6.2381,-6.2381,-6.2381,-6.2381,-6.2381,-6.2381,-6.2381,-6.2381,-6.1772,-6.1298,-6.1298,-5.9321,-5.8117,-5.8283,-5.7586,-5.7752,-5.9358,-5.7951,-5.7663,-5.8923,-5.7746,-5.6968,-5.6799,-5.5436,-5.4295,-5.3239,-5.1407,-5.0039,-4.9058,-4.8006,-4.7459,-4.624,-4.7403,-4.8624,-4.8555,-4.823,-4.8772,-5.1933,-5.0657,-4.9429,-5.1739,-5.1529,-5.0885,-5.0756,-5.2685,-5.4647,-5.5472,-5.6973,-5.828,-5.8934,-5.9088,-5.8896,-5.8204,-5.8043,-5.7729,-5.705,-5.6172,-5.5574,-5.55,-5.55,-5.55,-5.55,-5.55,-5.5537,-5.5574,-5.5574,-5.5978,-5.6785,-5.6822,-5.7189,-5.7997,-5.8841,-5.9648,-6.0419,-6.0456,-6.086,-6.1484,-6.0713,-5.9858,-5.9003,-5.9003,-5.9003,-5.8956,-5.9003,-5.9516,-6.0261,-6.0382,-6.0456,-6.0603,-6.1337,-6.163,-6.1814,-6.2585,-6.2805,-6.2654,-6.1915,-6.1113,-6.0273,-5.9443,-5.8633,-5.8027,-5.8027,-5.7954,-5.7881,-5.7881,-5.7881,-5.8084,-5.8795,-5.9539,-6.0317,-6.1061,-6.1839,-6.2381,-6.2381,-6.2381,-6.2381,-6.2381,-6.2381,-6.2381,-6.2381,-6.1772,-6.1298,-6.1298,-6.0444,-6.0241,-6.0984,-6.0309,-6.0511,-6.2032,-6.068,-5.9565,-5.9032,-5.8254,-5.7476,-5.6799,-5.666,-5.5789,-5.3997,-5.2856,-5.1466,-4.9823,-4.8758,-4.7878,-4.6127,-4.6912,-4.7889,-4.8392,-4.7895,-4.8373,-5.2338,-5.2374,-5.1621,-5.2141,-5.2779,-5.307,-5.2473,-5.3972,-5.5484,-5.5963,-5.7757,-5.9057,-5.9063,-5.9777,-5.9903,-5.8757,-5.8805,-5.8719,-5.8091,-5.745,-5.6895,-5.6381,-5.6345,-5.6345,-5.6345,-5.6345,-5.6565,-5.7079,-5.7079,-5.7226,-5.7556,-5.7556,-5.7703,-5.8033,-5.9318,-6.0126,-6.0419,-6.1447,-6.1777,-6.1557,-6.1263,-6.0676,-5.9942,-5.9942,-5.9942,-6.0015,-6.0493,-6.0896,-6.1153,-6.1153,-6.1447,-6.1851,-6.1667,-6.1924,-6.2401,-6.2695,-6.2805,-6.2654,-6.1824,-6.1055,-6.0211,-5.9377,-5.8494,-5.7881,-5.7881,-5.7881,-5.7881,-5.7881,-5.8254,-5.866,-5.8964,-5.9979,-6.0926,-6.1231,-6.1907,-6.2381,-6.2381,-6.2381,-6.255,-6.3024,-6.3091,-6.3091,-6.3091,-6.2854,-6.2482,-6.2009,-6.1298,-6.0757,-6.0554,-6.0723,-6.1095,-6.167,-6.0283,-5.9505,-5.9674,-5.8524,-5.7746,-5.7476,-5.7476,-5.6959,-5.5822,-5.4754,-5.3323,-5.1498,-4.9965,-4.8754,-4.6022,-4.6355,-4.6971,-4.7794,-4.7756,-4.8546,-5.2589,-5.3205,-5.3105,-5.3951,-5.4297,-5.4395,-5.4126,-5.4972,-5.5868,-5.6435,-5.8448,-5.9787,-5.9458,-6.0099,-6.0226,-5.9331,-5.9185,-5.9028,-5.8716,-5.8282,-5.7776,-5.7226,-5.7189,-5.7189,-5.7189,-5.7189,-5.7446,-5.796,-5.7997,-5.7997,-5.7997,-5.7997,-5.7997,-5.8033,-5.9391,-6.0162,-6.0456,-6.1814,-6.2254,-6.1998,-6.1998,-6.152,-6.0786,-6.0786,-6.0786,-6.086,-6.1667,-6.1998,-6.1961,-6.1704,-6.1777,-6.1961,-6.141,-6.1594,-6.2108,-6.2365,-6.2585,-6.2654,-6.1824,-6.1055,-6.0211,-5.9377,-5.8494,-5.7881,-5.7881,-5.7881,-5.7949,-5.8186,-5.8626,-5.9133,-5.9641,-6.0554,-6.1366,-6.1603,-6.2042,-6.2381,-6.2381,-6.2381,-6.2651,-6.3396,-6.3531,-6.3531,-6.3531,-6.37,-6.3565,-6.2821,-6.2313,-6.167,-6.0892,-6.1332,-6.1637,-6.1637,-6.0452,-5.9844,-6.008,-5.866,-5.7881,-5.7881,-5.7881,-5.7645,-5.7137,-5.6079,-5.4652,-5.2797,-5.1257,-4.9702,-4.5835,-4.5796,-4.5988,-4.674,-4.7509,-4.9067,-5.2589,-5.2761,-5.3353,-5.761,-5.6379,-5.4818,-5.5742,-5.5818,-5.6011,-5.6857,-5.9127,-6.0781,-6.0781,-6.0391,-6.0103,-6.0103,-5.9248,-5.8713,-5.8676,-5.8282,-5.7997,-5.7997,-5.7997,-5.7997,-5.7997,-5.7997,-5.7997,-5.7997,-5.7997,-5.7997,-5.7997,-5.7997,-5.7997,-5.7997,-5.8841,-5.9648,-6.0419,-6.1227,-6.2034,-6.2805,-6.2805,-6.2365,-6.1594,-6.1594,-6.1594,-6.1704,-6.2511,-6.2805,-6.2695,-6.1887,-6.108,-6.0419,-6.0382,-6.0382,-6.0529,-6.1337,-6.2144,-6.2618,-6.1824,-6.0997,-6.0211,-5.9311,-5.8494,-5.7881,-5.7915,-5.7915,-5.8084,-5.8829,-5.9032,-5.9438,-6.096,-6.1298,-6.1535,-6.2245,-6.2381,-6.2381,-6.2381,-6.2381,-6.2651,-6.3396,-6.3531,-6.3531,-6.3531,-6.4174,-6.4343,-6.3599,-6.3531,-6.3226,-6.2448,-6.2415,-6.2381,-6.2381,-6.1704,-6.0926,-6.0148,-5.8693,-5.7881,-5.7881,-5.7881,-5.7881,-5.7881,-5.6778,-5.5338,-5.3614,-5.248,-5.059,-4.583,-4.6163,-4.6778,-4.7548,-4.8931,-5.0817,-5.3668,-5.4031,-5.4818,-5.8434,-5.7627,-5.6511,-5.7434,-5.755,-5.752,-5.743,-5.8832,-5.9979,-6.0261,-6.0189,-5.9977,-5.9625,-5.9065,-5.8549,-5.8238,-5.8051,-5.7997,-5.7997,-5.7997,-5.7997,-5.7997,-5.7997,-5.7997,-5.7997,-5.7997,-5.7997,-5.7997,-5.7997,-5.7997,-5.7997,-5.8841,-5.9648,-6.0419,-6.1227,-6.2034,-6.2805,-6.2805,-6.2658,-6.2438,-6.2438,-6.2438,-6.2475,-6.2732,-6.2805,-6.2658,-6.1263,-6.097,-6.108,-5.9942,-5.9942,-6.0529,-6.1337,-6.1741,-6.1835,-6.1028,-6.058,-6.0086,-5.8633,-5.8065,-5.8017,-5.8558,-5.8693,-5.8727,-5.8964,-5.9844,-6.0757,-6.1197,-6.1704,-6.2144,-6.2347,-6.2381,-6.2381,-6.2381,-6.2381,-6.2821,-6.4072,-6.4275,-6.4478,-6.4986,-6.4783,-6.4512,-6.4309,-6.4275,-6.3971,-6.326,-6.3193,-6.2956,-6.2415,-6.1704,-6.0926,-6.0148,-5.9201,-5.8423,-5.7915,-5.7881,-5.7881,-5.7881,-5.7554,-5.6678,-5.5404,-5.4677,-5.3063,-4.5834,-4.6411,-4.7335,-4.8911,-5.0624,-5.2723,-5.5555,-5.6425,-5.7264,-5.9588,-5.8704,-5.778,-5.8627,-5.8511,-5.8289,-5.8362,-5.9317,-6.0046,-6.0084,-5.9946,-5.9625,-5.9176,-5.8713,-5.8326,-5.8042,-5.7997,-5.7997,-5.7997,-5.7997,-5.7997,-5.7997,-5.7997,-5.7997,-5.7997,-5.7997,-5.7997,-5.7997,-5.7997,-5.7997,-5.7997,-5.851,-5.9134,-5.9942,-6.075,-6.1557,-6.2365,-6.2658,-6.2438,-6.1924,-6.2548,-6.2622,-6.2365,-6.2695,-6.2622,-6.2218,-6.1227,-6.0786,-6.0529,-5.9538,-5.9538,-6.0052,-6.086,-6.1103,-6.1111,-6.0956,-6.0397,-5.9774,-5.9081,-5.8579,-5.8524,-5.9268,-5.9674,-5.9911,-5.9911,-6.0622,-6.1366,-6.167,-6.2076,-6.2381,-6.2381,-6.2381,-6.2381,-6.2381,-6.2381,-6.2888,-6.4377,-6.485,-6.529,-6.6034,-6.5493,-6.5019,-6.5019,-6.4783,-6.4309,-6.3565,-6.3226,-6.2854,-6.2415,-6.1975,-6.14,-6.0622,-5.9844,-5.9099,-5.8355,-5.8355,-5.8186,-5.7881,-5.7881,-5.7297,-5.6171,-5.5853,-5.455,-4.5967,-4.6617,-4.788,-5.0632,-5.2779,-5.4979,-5.8086,-5.936,-6.0118,-6.0727,-5.9627,-5.8742,-5.9473,-5.9011,-5.8781,-5.9511,-6.0258,-6.0597,-6.0161,-5.9658,-5.9176,-5.8756,-5.8282,-5.7997,-5.7997,-5.7997,-5.7997,-5.7997,-5.7997,-5.7997,-5.7997,-5.7997,-5.7997,-5.7997,-5.7997,-5.7997,-5.7997,-5.7997,-5.7997,-5.7997,-5.7997,-5.84,-5.9134,-5.9942,-6.075,-6.152,-6.2254,-6.1777,-6.0529,-6.1998,-6.2144,-6.1557,-6.2291,-6.2144,-6.1484,-6.141,-6.0456,-5.9208,-5.9134,-5.9098,-5.9197,-6.0029,-6.0326,-6.043,-6.1148,-6.03,-5.9284,-5.9944,-5.9587,-5.9201,-6.0013,-6.0757,-6.1332,-6.14,-6.14,-6.1569,-6.2245,-6.2381,-6.2381,-6.2381,-6.2381,-6.2381,-6.2381,-6.2381,-6.2888,-6.4377,-6.529,-6.6,-6.6643,-6.6102,-6.5662,-6.5595,-6.4986,-6.4309,-6.3565,-6.2888,-6.2448,-6.2381,-6.2381,-6.211,-6.1434,-6.0554,-5.9742,-5.9032,-5.893,-5.8592,-5.7881,-5.7881,-5.7372,-5.636,-5.636,-5.545,-4.6722,-4.753,-4.8982,-5.223,-5.5939,-5.9143,-6.053,-6.0911,-6.0766,-5.9973,-6.005,-6.0319,-6.0473,-6.0358,-6.0319,-6.0473,-6.0367,-6.0189,-6.0132,-5.9389,-5.8796,-5.8713,-5.8282,-5.7997,-5.7997,-5.7997,-5.7997,-5.7997,-5.7997,-5.7997,-5.7997,-5.7997,-5.7997,-5.7997,-5.7997,-5.7997,-5.7997,-5.7997,-5.7997,-5.7997,-5.7997,-5.8107,-5.829,-5.9098,-5.9905,-6.0676,-6.086,-6.0713,-6.0419,-6.0786,-6.0823,-6.0676,-6.086,-6.0823,-6.0566,-5.9942,-5.9501,-5.9134,-5.8474,-5.8253,-5.838,-5.919,-5.9473,-5.9454,-5.9628,-5.9377,-5.9149,-5.9238,-5.9146,-5.9336,-6.0689,-6.1163,-6.1467,-6.2009,-6.2144,-6.2212,-6.2347,-6.2381,-6.2381,-6.2381,-6.2381,-6.2381,-6.2381,-6.2381,-6.2888,-6.4377,-6.573,-6.6406,-6.5967,-6.5797,-6.5459,-6.4884,-6.4681,-6.4309,-6.3565,-6.3362,-6.3024,-6.2415,-6.2381,-6.2313,-6.2144,-6.0825,-5.9742,-5.9032,-5.8423,-5.8051,-5.7881,-5.7881,-5.7808,-5.7554,-5.7554,-5.6863,-4.7148,-4.8284,-5.027,-5.458,-5.8259,-6.0916,-6.133,-6.1271,-6.0958,-6.0281,-6.0473,-6.0781,-6.0781,-6.0781,-6.0734,-6.0508,-6.0283,-5.9946,-5.9492,-5.9028,-5.8632,-5.8375,-5.8142,-5.7997,-5.7997,-5.7997,-5.7997,-5.7997,-5.7997,-5.7997,-5.7997,-5.7997,-5.7997,-5.7997,-5.7997,-5.7997,-5.7997,-5.7997,-5.7997,-5.7997,-5.7997,-5.7997,-5.8033,-5.8841,-5.9245,-5.9281,-6.0089,-5.9979,-5.9318,-6.0089,-6.0162,-5.9869,-6.0272,-6.0162,-5.9795,-5.9355,-5.8988,-5.8584,-5.8143,-5.8253,-5.8673,-5.9072,-5.9202,-5.9193,-5.9125,-5.8806,-5.8663,-5.9349,-5.9539,-5.9877,-6.1434,-6.1839,-6.1907,-6.2313,-6.2381,-6.2381,-6.2381,-6.2381,-6.2381,-6.2381,-6.2381,-6.2516,-6.2854,-6.3497,-6.4241,-6.5019,-6.6102,-6.6542,-6.5764,-6.5696,-6.5425,-6.4681,-6.4275,-6.3937,-6.3531,-6.3193,-6.2821,-6.2415,-6.2381,-6.2381,-6.2381,-6.0926,-5.9911,-5.9539,-5.9133,-5.8592,-5.7881,-5.7881,-5.7881,-5.7881,-5.7881,-5.7554,-4.735,-4.9132,-5.1852,-5.6659,-5.9593,-6.1263,-6.1244,-6.1118,-6.0935,-6.0819,-6.0781,-6.0781,-6.0781,-6.0734,-6.0533,-6.0161,-5.9946,-5.9592,-5.8796,-5.8632,-5.8461,-5.8042,-5.7997,-5.7997,-5.7997,-5.7997,-5.7997,-5.7997,-5.7997,-5.7997,-5.7997,-5.7997,-5.7997,-5.7997,-5.7997,-5.7997,-5.7997,-5.7997,-5.7997,-5.7997,-5.7997,-5.7997,-5.8033,-5.8694,-5.8621,-5.807,-5.9428,-5.9245,-5.8107,-5.9428,-5.9612,-5.9061,-5.9722,-5.9575,-5.8988,-5.8988,-5.8584,-5.7997,-5.7821,-5.8322,-5.8945,-5.8862,-5.8886,-5.894,-5.8903,-5.8458,-5.8186,-5.9539,-6.0013,-6.0419,-6.1839,-6.2279,-6.2381,-6.2381,-6.2381,-6.2381,-6.2381,-6.2381,-6.2381,-6.2381,-6.2381,-6.2651,-6.3565,-6.4715,-6.5493,-6.5493,-6.6237,-6.644,-6.5425,-6.5425,-6.5155,-6.4309,-6.3666,-6.3328,-6.3328,-6.2753,-6.2381,-6.2381,-6.2381,-6.2381,-6.2381,-6.1061,-6.025,-6.0114,-5.9844,-5.9099,-5.7881,-5.7746,-5.778,-5.7881,-5.7746,-5.778,-4.7375,-5.0457,-5.4128,-5.6958,-5.9001,-6.0496,-6.0933,-6.1004,-6.0935,-6.0819,-6.0781,-6.0781,-6.0781,-6.0482,-6.0161,-6.0103,-5.9424,-5.8835,-5.8753,-5.8332,-5.8051,-5.7997,-5.7997,-5.7997,-5.7997,-5.7997,-5.7997,-5.7997,-5.7997,-5.7997,-5.7997,-5.7997,-5.7997,-5.7997,-5.7997,-5.7997,-5.7997,-5.7997,-5.7997,-5.7997,-5.7997,-5.7997,-5.7997,-5.8107,-5.8107,-5.7997,-5.8217,-5.818,-5.8033,-5.8217,-5.8253,-5.818,-5.829,-5.8253,-5.8143,-5.8143,-5.8107,-5.7904,-5.7302,-5.7521,-5.8016,-5.7394,-5.7538,-5.8074,-5.8041,-5.8027,-5.8051,-5.893,-5.9607,-6.0317,-6.1197,-6.1907,-6.2381,-6.2381,-6.2381,-6.2381,-6.2381,-6.2381,-6.2381,-6.2381,-6.2381,-6.2821,-6.4208,-6.4613,-6.4749,-6.4749,-6.5933,-6.6068,-6.4072,-6.4343,-6.4208,-6.2821,-6.2618,-6.255,-6.255,-6.2448,-6.2381,-6.2381,-6.2381,-6.2381,-6.2381,-6.1603,-6.0825,-6.0114,-5.8829,-5.8084,-5.7881,-5.7273,-5.7273,-5.7881,-5.7239,-5.7273,-4.8555,-5.1074,-5.3793,-5.6308,-5.8088,-5.9457,-6.015,-6.065,-6.0858,-6.0819,-6.0597,-6.043,-6.043,-6.0006,-5.9592,-5.9354,-5.899,-5.8591,-5.8332,-5.8142,-5.7997,-5.7997,-5.7997,-5.7997,-5.7997,-5.7997,-5.7997,-5.7997,-5.7997,-5.7997,-5.7997,-5.7997,-5.7997,-5.7997,-5.7997,-5.7997,-5.7997,-5.7997,-5.7997,-5.7997,-5.7997,-5.7997,-5.7997,-5.7997,-5.7997,-5.7997,-5.7997,-5.7997,-5.7997,-5.7997,-5.7997,-5.7997,-5.7997,-5.7997,-5.7997,-5.7997,-5.7726,-5.7424,-5.7469,-5.7747,-5.7996,-5.7561,-5.7936,-5.8494,-5.8035,-5.7881,-5.8051,-5.8795,-5.9539,-6.0283,-6.1095,-6.1839,-6.2381,-6.2381,-6.2381,-6.2381,-6.2381,-6.2381,-6.2381,-6.2381,-6.3057,-6.3835,-6.4478,-6.529,-6.5831,-6.5831,-6.6406,-6.617,-6.4343,-6.441,-6.4038,-6.255,-6.2381,-6.2381,-6.2381,-6.2381,-6.2381,-6.2381,-6.2381,-6.2381,-6.2381,-6.1264,-6.0452,-6.0114,-5.9066,-5.8321,-5.7881,-5.7577,-5.7577,-5.7881,-5.7577,-5.7577,-4.8915,-5.0647,-5.2435,-5.4724,-5.6571,-5.811,-5.9188,-5.9935,-6.0512,-6.0742,-6.0338,-5.9916,-5.9916,-5.9526,-5.9102,-5.8756,-5.8591,-5.8418,-5.8042,-5.7997,-5.7997,-5.7997,-5.7997,-5.7997,-5.7997,-5.7997,-5.7997,-5.7997,-5.7997,-5.7997,-5.7997,-5.7997,-5.7997,-5.7997,-5.7997,-5.7997,-5.7997,-5.7997,-5.7997,-5.7997,-5.7997,-5.7997,-5.7997,-5.7997,-5.7997,-5.7997,-5.7997,-5.7997,-5.7997,-5.7997,-5.7997,-5.7997,-5.7997,-5.7997,-5.7997,-5.7774,-5.746,-5.7221,-5.7333,-5.7681,-5.8,-5.7697,-5.8152,-5.8668,-5.8065,-5.7881,-5.8017,-5.8558,-5.9268,-5.9979,-6.0554,-6.1264,-6.1806,-6.1806,-6.1806,-6.1907,-6.2313,-6.2381,-6.2448,-6.2618,-6.3429,-6.4208,-6.4783,-6.5662,-6.6305,-6.6508,-6.6677,-6.6203,-6.4546,-6.4478,-6.4038,-6.255,-6.2381,-6.2381,-6.2381,-6.2381,-6.2381,-6.2381,-6.2381,-6.2381,-6.2381,-6.1129,-6.0317,-6.0114,-5.9404,-5.866,-5.7881,-5.7712,-5.7712,-5.7881,-5.7712,-5.7611,-4.7326,-4.8795,-5.0471,-5.1972,-5.4203,-5.6434,-5.8011,-5.9011,-5.9819,-6.0627,-6.0074,-5.9424,-5.9424,-5.9028,-5.8716,-5.8713,-5.8326,-5.8042,-5.7997,-5.7997,-5.7997,-5.7997,-5.7997,-5.7997,-5.7997,-5.7997,-5.7997,-5.7997,-5.7997,-5.7997,-5.7997,-5.7997,-5.7997,-5.7997,-5.7997,-5.7997,-5.7997,-5.7997,-5.7997,-5.7997,-5.7997,-5.7997,-5.7997,-5.7997,-5.7997,-5.7997,-5.7997,-5.7997,-5.7997,-5.7997,-5.7997,-5.7997,-5.7997,-5.7997,-5.795,-5.7252,-5.7381,-5.7729,-5.63,-5.6784,-5.7769,-5.7085,-5.7345,-5.7954,-5.7881,-5.7881,-5.7915,-5.7949,-5.849,-5.9099,-5.9133,-5.9674,-6.0216,-6.0216,-6.0216,-6.0622,-6.2076,-6.2381,-6.2618,-6.3328,-6.2956,-6.3159,-6.5256,-6.5121,-6.4952,-6.5628,-6.6339,-6.6034,-6.3869,-6.4174,-6.4038,-6.255,-6.2381,-6.2381,-6.2381,-6.2381,-6.2381,-6.2381,-6.2381,-6.2381,-6.2381,-6.1637,-6.0892,-6.0114,-5.9404,-5.866,-5.7881,-5.7205,-5.7205,-5.7881,-5.7171,-5.6867,-4.7078,-4.7666,-4.8586,-5.0779,-5.2741,-5.4472,-5.5588,-5.7357,-5.8819,-5.9127,-5.8863,-5.8597,-5.8597,-5.842,-5.8238,-5.8238,-5.8097,-5.7997,-5.7997,-5.7997,-5.7997,-5.7997,-5.7997,-5.7997,-5.7997,-5.7997,-5.7997,-5.7997,-5.7997,-5.7997,-5.7997,-5.7997,-5.7997,-5.7997,-5.7997,-5.7997,-5.7997,-5.7997,-5.7997,-5.7997,-5.7997,-5.7997,-5.7997,-5.7997,-5.7997,-5.7997,-5.7997,-5.7997,-5.7997,-5.7997,-5.7997,-5.7997,-5.7997,-5.7726,-5.7252,-5.7015,-5.6704,-5.649,-5.6397,-5.6776,-5.7257,-5.7484,-5.7679,-5.7881,-5.7881,-5.7881,-5.7881,-5.7881,-5.8423,-5.9032,-5.9032,-5.9945,-6.0994,-6.1467,-6.1569,-6.1738,-6.2279,-6.2381,-6.2482,-6.2753,-6.2956,-6.3362,-6.414,-6.485,-6.5222,-6.5019,-6.6034,-6.617,-6.4444,-6.4444,-6.4208,-6.3226,-6.2685,-6.2381,-6.2381,-6.2381,-6.2381,-6.2381,-6.2381,-6.2381,-6.2381,-6.167,-6.0926,-6.0114,-5.9404,-5.866,-5.7881,-5.7611,-5.7645,-5.7881,-5.7611,-5.7239,-4.659,-4.6854,-4.7548,-4.9817,-5.1395,-5.2741,-5.4164,-5.6011,-5.7511,-5.778,-5.7987,-5.8035,-5.7804,-5.7888,-5.7923,-5.7629,-5.7813,-5.7997,-5.7997,-5.7997,-5.7997,-5.7997,-5.7997,-5.7997,-5.7997,-5.7997,-5.7997,-5.7997,-5.7997,-5.7997,-5.7997,-5.7997,-5.7997,-5.7997,-5.7997,-5.7997,-5.7997,-5.7997,-5.7997,-5.7997,-5.7997,-5.7997,-5.7997,-5.7997,-5.7997,-5.7997,-5.7997,-5.7997,-5.7997,-5.7997,-5.7997,-5.7997,-5.7726,-5.7351,-5.6861,-5.6313,-5.5965,-5.579,-5.626,-5.6577,-5.6934,-5.7645,-5.7881,-5.7881,-5.7881,-5.7881,-5.7881,-5.7881,-5.8254,-5.8626,-5.8626,-5.9573,-6.0723,-6.1434,-6.1806,-6.2009,-6.2009,-6.2212,-6.2381,-6.2381,-6.2787,-6.3226,-6.3463,-6.4309,-6.4884,-6.4647,-6.5662,-6.6,-6.4749,-6.4613,-6.4343,-6.3599,-6.2854,-6.2381,-6.2381,-6.2381,-6.2381,-6.2381,-6.2381,-6.2381,-6.2381,-6.1907,-6.1298,-6.052,-5.9776,-5.8998,-5.8254,-5.8017,-5.7881,-5.7881,-5.7645,-5.7002,0.0,0.0,0.0,-4.8933,-4.9971,-5.1279,-5.378,-5.4972,-5.5818,-5.6742,-5.7492,-5.7767,-5.7012,-5.7478,-5.7712,-5.6895,-5.7446,-5.7997,-5.7997,-5.7997,-5.7997,-5.7997,-5.7997,-5.7997,-5.7997,-5.7997,-5.7997,-5.7997,-5.7997,-5.7997,-5.7997,-5.7997,-5.7997,-5.7997,-5.7997,-5.7997,-5.7997,-5.7997,-5.7997,-5.7997,-5.7997,-5.7997,-5.7997,-5.7997,-5.7997,-5.7997,-5.7997,-5.7997,-5.7997,-5.7997,-5.7997,-5.7904,-5.7166,-5.6861,-5.6616,-5.5179,-5.5092,-5.5662,-5.5689,-5.619,-5.6934,-5.7645,-5.7881,-5.7881,-5.7881,-5.7881,-5.7881,-5.7881,-5.7881,-5.7915,-5.7949,-5.8524,-5.9268,-5.9979,-6.0757,-6.1332,-6.1332,-6.1873,-6.2381,-6.2381,-6.2381,-6.2618,-6.3362,-6.3497,-6.3768,-6.4478,-6.5189,-6.5392,-6.4681,-6.458,-6.4309,-6.3599,-6.2854,-6.2381,-6.2381,-6.2381,-6.2381,-6.2381,-6.2381,-6.2381,-6.2381,-6.2381,-6.2042,-6.1332,-6.052,-5.9742,-5.9032,-5.8254,-5.7881,-5.7881,-5.7137,-5.6021,-4.568,0.0,0.0,0.0,0.0,0.0,-5.051,-5.1471,-5.2664,-5.4741,-5.5084,-5.5332,-5.6378,-5.6899,-5.7005,-5.6466,-5.7309,-5.7997,-5.7997,-5.7997,-5.7997,-5.7997,-5.7997,-5.7997,-5.7997,-5.7997,-5.7997,-5.7997,-5.7997,-5.7997,-5.7997,-5.7997,-5.7997,-5.7997,-5.7997,-5.7997,-5.7997,-5.7997,-5.7997,-5.7997,-5.7997,-5.7997,-5.7997,-5.7997,-5.7997,-5.7997,-5.7997,-5.7997,-5.7997,-5.7997,-5.7679,-5.7166,-5.6964,-5.6204,-5.5179,-5.4757,-5.4746,-5.4975,-5.5516,-5.619,-5.6934,-5.7645,-5.7881,-5.7881,-5.7881,-5.7881,-5.7881,-5.7881,-5.7881,-5.8152,-5.9201,-6.008,-6.0858,-6.1569,-6.1907,-6.2076,-6.2076,-6.2245,-6.2381,-6.2381,-6.2381,-6.2448,-6.2651,-6.3159,-6.3599,-6.3768,-6.4444,-6.4816,-6.4613,-6.414,-6.3734,-6.3531,-6.2854,-6.2381,-6.2381,-6.2381,-6.2381,-6.2381,-6.2381,-6.2381,-6.2381,-6.2381,-6.2042,-6.1332,-6.052,-5.9742,-5.9032,-5.8254,-5.7881,-5.7881,-5.7137,-5.6292,-4.5624,-4.5855,-4.6432,-4.7625,0.0,0.0,-4.9663,-5.0048,-5.0664,-5.251,-5.3092,-5.3682,-5.5069,-5.5906,-5.6319,-5.6218,-5.7047,-5.7825,-5.8006,-5.7997,-5.7997,-5.7997,-5.7997,-5.7997,-5.7997,-5.7997,-5.7997,-5.7997,-5.7997,-5.7997,-5.7997,-5.7997,-5.7997,-5.7997,-5.7997,-5.7997,-5.7997,-5.7997,-5.7997,-5.7997,-5.7997,-5.7997,-5.7997,-5.7997,-5.7997,-5.7997,-5.7997,-5.7997,-5.7997,-5.7997,-5.7583,-5.6861,-5.6563,-5.5667,-5.4544,-5.4264,-5.4359,-5.4702,-5.5446,-5.619,-5.6934,-5.7645,-5.7881,-5.7881,-5.7881,-5.7881,-5.7881,-5.7881,-5.8118,-5.8693,-6.0216,-6.096,-6.1501,-6.2212,-6.2381,-6.2381,-6.2381,-6.2381,-6.2381,-6.2381,-6.2381,-6.2381,-6.2381,-6.2753,-6.3057,-6.3057,-6.3666,-6.414,-6.414,-6.3768,-6.3531,-6.3531,-6.2854,-6.2381,-6.2381,-6.2381,-6.2381,-6.2381,-6.2381,-6.2381,-6.2381,-6.2381,-6.2042,-6.1332,-6.052,-5.9607,-5.8558,-5.8084,-5.7577,-5.6968,-5.6867,-5.6089,-4.5701,-4.6317,-4.7278,-4.874,-4.8625,0.0,-5.0048,-4.9817,-4.951,-5.051,-5.1545,-5.259,-5.3531,-5.4705,-5.5555,-5.5809,-5.6703,-5.7509,-5.7941,-5.7997,-5.7997,-5.7997,-5.7997,-5.7997,-5.7997,-5.7997,-5.7997,-5.7997,-5.7923,-5.7813,-5.774,-5.774,-5.774,-5.774,-5.774,-5.774,-5.774,-5.7813,-5.7886,-5.7886,-5.796,-5.7997,-5.7997,-5.7997,-5.7997,-5.7997,-5.7997,-5.7997,-5.7997,-5.7997,-5.7498,-5.6668,-5.5948,-5.5203,-5.4356,-5.3717,-5.3923,-5.4566,-5.5344,-5.6021,-5.6697,-5.7509,-5.778,-5.778,-5.7881,-5.7881,-5.7915,-5.7983,-5.8626,-5.9573,-6.096,-6.1366,-6.1603,-6.2245,-6.2381,-6.2381,-6.2381,-6.2381,-6.2381,-6.2381,-6.2381,-6.2381,-6.2381,-6.2381,-6.2415,-6.2516,-6.3024,-6.3429,-6.3497,-6.3429,-6.3396,-6.3396,-6.2787,-6.2381,-6.2381,-6.2381,-6.2381,-6.2381,-6.2381,-6.2347,-6.2279,-6.2279,-6.1907,-6.1197,-6.0385,-5.9302,-5.7881,-5.7881,-5.7239,-5.5987,-5.663,-5.5818,-4.6471,-4.6778,-4.6971,-4.7317,-4.774,0.0,-4.8548,-4.8471,-4.8817,-5.0356,-5.0893,-5.1544,-5.3042,-5.4089,-5.4499,-5.3887,-5.5567,-5.723,-5.7913,-5.7997,-5.7997,-5.7997,-5.7997,-5.7997,-5.7997,-5.7997,-5.7997,-5.7997,-5.7409,-5.6748,-5.6088,-5.6051,-5.6051,-5.6051,-5.6051,-5.6051,-5.6051,-5.6712,-5.7042,-5.7042,-5.7703,-5.7997,-5.7997,-5.7997,-5.7997,-5.7997,-5.7997,-5.7997,-5.7997,-5.7997,-5.718,-5.5893,-5.578,-5.4878,-5.3717,-5.3551,-5.3585,-5.3822,-5.4566,-5.4905,-5.5243,-5.6562,-5.7002,-5.7137,-5.7712,-5.7881,-5.8017,-5.8626,-5.9776,-6.0926,-6.1231,-6.1738,-6.2212,-6.2347,-6.2381,-6.2381,-6.2381,-6.2381,-6.2381,-6.2381,-6.2381,-6.2381,-6.2381,-6.2381,-6.2584,-6.3193,-6.2888,-6.2821,-6.3429,-6.299,-6.2618,-6.2618,-6.2482,-6.2381,-6.2381,-6.2381,-6.2381,-6.2381,-6.2381,-6.211,-6.1535,-6.1501,-6.1129,-6.0351,-5.9607,-5.8795,-5.7881,-5.7881,-5.7746,-5.7476,-5.7611,-5.7137,-4.6124,-4.6586,-4.7086,-4.7932,-4.8125,0.0,0.0,-4.8702,-4.8471,-4.9779,-5.0048,-5.0548,-5.2241,-5.2933,-5.3398,-5.4012,-5.5148,-5.629,-5.7299,-5.7983,-5.8332,-5.8332,-5.8332,-5.8332,-5.8332,-5.8142,-5.7997,-5.7997,-5.7262,-5.6638,-5.6235,-5.5794,-5.5574,-5.5574,-5.5574,-5.5574,-5.5574,-5.6418,-5.6822,-5.6822,-5.7629,-5.7997,-5.7997,-5.7997,-5.7997,-5.7997,-5.7997,-5.7997,-5.7997,-5.7997,-5.7315,-5.6313,-5.6313,-5.5355,-5.4076,-5.4487,-5.4566,-5.4702,-5.5446,-5.5919,-5.6359,-5.7103,-5.734,-5.7408,-5.778,-5.7881,-5.8051,-5.8795,-5.9844,-6.0791,-6.1197,-6.1839,-6.2381,-6.2381,-6.2381,-6.2381,-6.2381,-6.2381,-6.2381,-6.2381,-6.2381,-6.2381,-6.2381,-6.2381,-6.2516,-6.2888,-6.2618,-6.2516,-6.2888,-6.2618,-6.2381,-6.2381,-6.2381,-6.2381,-6.2381,-6.2381,-6.2581,-6.3049,-6.2706,-6.233,-6.1953,-6.1576,-6.1028,-6.0206,-5.9453,-5.8905,-5.8494,-5.8065,-5.7712,-5.734,-5.7712,-5.7306,-4.624,-4.6855,-4.7702,-4.9048,-4.9009,-4.8933,0.0,0.0,0.0,-4.9548,-4.9894,-5.051,-5.1702,-5.2049,-5.2636,-5.4065,-5.4699,-5.5361,-5.6295,-5.7638,-5.8501,-5.8574,-5.8343,-5.8341,-5.8676,-5.8134,-5.7703,-5.7556,-5.6785,-5.6271,-5.6124,-5.55,-5.5133,-5.5133,-5.5133,-5.5207,-5.5354,-5.6161,-5.6638,-5.6822,-5.7629,-5.7997,-5.7997,-5.7997,-5.7997,-5.7997,-5.7997,-5.7997,-5.7997,-5.7997,-5.7679,-5.7065,-5.6964,-5.5984,-5.4676,-5.5299,-5.5478,-5.5581,-5.619,-5.6867,-5.7476,-5.7645,-5.778,-5.7881,-5.7881,-5.7983,-5.8293,-5.905,-5.9655,-6.0359,-6.1291,-6.1859,-6.2212,-6.2347,-6.2381,-6.2381,-6.2381,-6.2381,-6.2381,-6.2381,-6.2279,-6.2212,-6.2381,-6.2381,-6.2381,-6.2381,-6.2381,-6.2381,-6.2381,-6.2381,-6.2381,-6.2381,-6.2503,-6.2591,-6.2455,-6.2574,-6.289,-6.3483,-6.2892,-6.2475,-6.2405,-6.1606,-6.091,-6.0352,-5.9525,-5.9111,-5.9111,-5.8424,-5.7759,-5.7036,-5.7611,-5.7243,-4.8548,-4.9048,-4.9163,-4.9356,-4.9894,-5.024,-4.9663,0.0,-5.1279,-5.0664,0.0,-5.2587,-5.201,0.0,0.0,-5.1863,-5.3556,-5.4943,-5.478,-5.6474,-5.7825,-5.8113,-5.7155,-5.7072,-5.8564,-5.7617,-5.6638,-5.5904,-5.5133,-5.4363,-5.3665,-5.3518,-5.3482,-5.3482,-5.3482,-5.3812,-5.4509,-5.5317,-5.6088,-5.6822,-5.7629,-5.7997,-5.7997,-5.7997,-5.7997,-5.7997,-5.7997,-5.7997,-5.7997,-5.7997,-5.795,-5.7821,-5.7202,-5.5984,-5.4606,-5.4676,-5.4689,-5.4735,-5.4803,-5.5344,-5.6089,-5.6697,-5.7374,-5.7881,-5.7881,-5.8355,-5.9044,-5.9873,-6.0134,-6.0476,-6.1972,-6.1872,-6.1603,-6.2245,-6.2381,-6.2381,-6.2381,-6.2381,-6.2381,-6.2381,-6.1873,-6.1637,-6.2279,-6.2381,-6.2381,-6.2381,-6.2381,-6.2381,-6.2381,-6.2381,-6.2381,-6.2381,-6.3124,-6.3224,-6.2568,-6.3205,-6.3361,-6.2722,-6.2617,-6.2329,-6.1658,-6.0882,-6.0458,-6.0415,-5.9543,-5.9111,-5.9111,-5.8976,-5.8599,-5.778,-5.7848,-5.78,-4.8432,-4.8663,-4.8894,-4.9894,-5.0048,-5.0087,-5.0702,-5.1048,-5.1241,-5.1356,0.0,0.0,0.0,0.0,0.0,0.0,-5.4005,-5.48,-5.5135,-5.5351,-5.6044,-5.7628,-5.7092,-5.6669,-5.689,-5.6404,-5.5757,-5.495,-5.4179,-5.3555,-5.3225,-5.2747,-5.2711,-5.3188,-5.3225,-5.3371,-5.3702,-5.495,-5.5757,-5.6124,-5.7373,-5.7997,-5.7997,-5.7997,-5.7997,-5.7997,-5.7997,-5.7997,-5.7997,-5.7997,-5.7997,-5.7997,-5.7679,-5.6876,-5.5907,-5.5906,-5.5939,-5.5788,-5.5416,-5.5987,-5.7074,-5.7877,-5.8359,-5.8703,-5.9212,-5.9867,-6.0593,-6.0924,-6.1293,-6.1693,-6.2401,-6.2261,-6.2009,-6.2313,-6.2381,-6.2381,-6.2381,-6.2381,-6.2245,-6.1839,-6.1501,-6.14,-6.1704,-6.1772,-6.1907,-6.2313,-6.2381,-6.2381,-6.2381,-6.2381,-6.2581,-6.3124,-6.3462,-6.3587,-6.3271,-6.3604,-6.3641,-6.3357,-6.2952,-6.2379,-6.1592,-6.1234,-6.1113,-6.1113,-6.0725,-6.0544,-6.0544,-6.0051,-5.9704,-5.9346,-5.9036,-5.889,-4.8625,-4.8817,-4.9163,-5.0664,-5.0548,-5.0356,-5.1356,-5.1664,-5.1895,-5.251,-5.3164,0.0,0.0,0.0,-5.4357,-5.4741,0.0,-5.5011,-5.5626,-5.4647,-5.4752,-5.7014,-5.7143,-5.6743,-5.5992,-5.5721,-5.5244,-5.4473,-5.3445,-5.2784,-5.2564,-5.2197,-5.227,-5.2858,-5.3115,-5.3408,-5.3849,-5.5023,-5.5794,-5.6271,-5.7446,-5.7997,-5.7997,-5.7997,-5.7997,-5.7997,-5.7997,-5.7997,-5.7997,-5.7997,-5.7997,-5.7997,-5.7997,-5.7679,-5.7188,-5.6957,-5.6835,-5.6738,-5.6225,-5.7021,-5.8359,-5.9175,-5.9443,-5.9574,-6.0211,-6.0786,-6.1344,-6.1803,-6.2123,-6.2439,-6.2857,-6.2737,-6.2464,-6.2425,-6.2381,-6.2381,-6.2381,-6.2381,-6.2178,-6.1434,-6.1129,-6.096,-6.096,-6.1163,-6.1535,-6.2279,-6.2581,-6.2779,-6.2779,-6.2973,-6.3388,-6.3971,-6.4044,-6.3999,-6.3875,-6.3877,-6.3777,-6.3599,-6.3075,-6.2531,-6.1915,-6.1915,-6.1915,-6.1915,-6.1715,-6.1604,-6.1604,-6.0997,-6.07,-6.07,-5.9962,-5.9689,-4.9933,-5.0625,-5.0818,-5.1664,-5.1856,-5.1625,-5.0894,-5.2626,-5.4395,-5.4395,-5.6395,-5.7857,-5.7011,-5.6857,-5.6588,-5.578,-5.5665,0.0,0.0,-5.4647,-5.4523,-5.624,-5.7062,-5.7283,-5.6793,-5.6051,-5.5244,-5.4473,-5.2931,-5.1683,-5.0912,-5.1573,-5.2013,-5.205,-5.2784,-5.3959,-5.55,-5.5574,-5.6381,-5.7923,-5.796,-5.7997,-5.7997,-5.7997,-5.7997,-5.7997,-5.7997,-5.7997,-5.7997,-5.7997,-5.7997,-5.7997,-5.7997,-5.7997,-5.7904,-5.7152,-5.6885,-5.6905,-5.6846,-5.7871,-5.9284,-6.0123,-6.0335,-6.0335,-6.0397,-6.0432,-6.0793,-6.235,-6.2212,-6.1954,-6.3412,-6.3168,-6.253,-6.2411,-6.2381,-6.2381,-6.2381,-6.2381,-6.2178,-6.1434,-6.0655,-6.0148,-6.0148,-6.0791,-6.1535,-6.2279,-6.3124,-6.3647,-6.3647,-6.4427,-6.4933,-6.4933,-6.5028,-6.4757,-6.4,-6.402,-6.3745,-6.2902,-6.2792,-6.2792,-6.2755,-6.2755,-6.2755,-6.2755,-6.2023,-6.1604,-6.1604,-6.1604,-6.1548,-6.1512,-6.019,-5.9893,-4.9625,-5.024,-5.0894,-5.1702,-5.151,-5.1318,-5.2164,-5.301,-5.3933,-5.5049,-5.6434,-5.7511,-5.7819,-5.7857,-5.7742,-5.7473,-5.6697,-5.6167,0.0,-5.4381,-5.3136,-5.3421,-5.4392,-5.4907,-5.4442,-5.4179,-5.3482,-5.2123,-5.1022,-5.0288,-4.9994,-5.0765,-5.1463,-5.1977,-5.2784,-5.3482,-5.3995,-5.506,-5.5868,-5.6418,-5.7483,-5.7997,-5.7997,-5.7997,-5.7997,-5.7997,-5.7997,-5.7997,-5.7997,-5.7997,-5.7997,-5.7997,-5.7997,-5.7997,-5.7941,-5.7782,-5.798,-5.8534,-5.9053,-5.891,-5.8757,-6.0568,-6.1171,-6.1286,-6.186,-6.2368,-6.3094,-6.4147,-6.4215,-6.4147,-6.5223,-6.4446,-6.3444,-6.3973,-6.324,-6.2581,-6.3124,-6.2779,-6.2178,-6.1434,-6.0655,-6.0114,-6.0114,-6.0882,-6.1487,-6.1727,-6.2879,-6.3726,-6.3725,-6.4482,-6.5196,-6.5842,-6.5934,-6.5641,-6.4876,-6.3863,-6.3135,-6.2842,-6.2805,-6.2805,-6.2805,-6.2805,-6.2805,-6.2805,-6.2515,-6.2376,-6.2376,-6.2376,-6.2376,-6.2376,-6.1184,-6.055,-4.9625,-5.0471,-5.1318,-5.2164,-5.2202,-5.2318,-5.3433,-5.3895,-5.4587,-5.628,-5.728,-5.8165,-5.9011,-5.9034,-5.8731,-5.8155,-5.7221,-5.6139,0.0,-5.3433,-5.2345,-5.1654,-5.3038,-5.4001,-5.4075,-5.3812,-5.2858,-5.0949,-5.0031,-4.9334,-4.8746,-5.0031,-5.1059,-5.1573,-5.2931,-5.3628,-5.3628,-5.5207,-5.5868,-5.5611,-5.6932,-5.7556,-5.7556,-5.7556,-5.774,-5.7997,-5.7997,-5.7997,-5.7997,-5.7997,-5.7997,-5.7997,-5.7997,-5.818,-5.8427,-5.8469,-5.8972,-5.9704,-6.0572,-6.0188,-5.9653,-6.1426,-6.2023,-6.2129,-6.2618,-6.3209,-6.387,-6.5007,-6.5223,-6.5307,-6.5777,-6.5062,-6.4277,-6.4508,-6.3694,-6.3117,-6.3973,-6.3477,-6.2763,-6.2282,-6.1559,-6.1008,-6.108,-6.1537,-6.1915,-6.1813,-6.3449,-6.4658,-6.4749,-6.5207,-6.5887,-6.6758,-6.609,-6.524,-6.4479,-6.3429,-6.2805,-6.2805,-6.2805,-6.2805,-6.2805,-6.2805,-6.3099,-6.3686,-6.3099,-6.3099,-6.3686,-6.3099,-6.2658,-6.2365,-6.1985,-6.119]}]]